<?xml version="1.0" encoding="UTF-8" standalone="no" ?>
<gpx xmlns="http://www.topografix.com/GPX/1/1" xmlns:xsi="http://www.w3.org/2001/XMLSchema-instance" xsi:schemaLocation="http://www.topografix.com/GPX/1/1 http://www.topografix.com/GPX/1/1/gpx.xsd" version="1.1" creator="VisuGPX - https://www.visugpx.com">
  <metadata>
    <name>2019-01-16 Pégairolles de Buèges- Mas d'Agre- Le Monthaut 19KM D825m</name>
    <desc><![CDATA[Long cheminement le long du ruisseau de Font basse jusqu'au col des Lavagnes (très ombragé). On prend ensuite la piste pour rejoindre la combe de Loubet. Beau sentier pour rejoindre le Mas d'Agre.  Attention pour atteindre le Monthaut il faut mettre les mains sur quelques mètres. Le parcours sur la crète est long et technique mais bien balisé.]]></desc>
  </metadata>
  <trk>
    <name><![CDATA[2019-01-15 17:08:16]]></name>
    <trkseg>
      <trkpt lat="43.8128" lon="3.59093">
        <ele>174.14</ele>
        <time>2019-01-15T08:22:53Z</time>
      </trkpt>
      <trkpt lat="43.81279" lon="3.59094">
        <ele>176.54</ele>
        <time>2019-01-15T08:23:35Z</time>
      </trkpt>
      <trkpt lat="43.8128" lon="3.59094">
        <ele>175.1</ele>
        <time>2019-01-15T08:24:07Z</time>
      </trkpt>
      <trkpt lat="43.81276" lon="3.591">
        <ele>175.1</ele>
        <time>2019-01-15T08:24:24Z</time>
      </trkpt>
      <trkpt lat="43.81271" lon="3.59101">
        <ele>175.1</ele>
        <time>2019-01-15T08:24:30Z</time>
      </trkpt>
      <trkpt lat="43.81265" lon="3.591">
        <ele>175.58</ele>
        <time>2019-01-15T08:24:36Z</time>
      </trkpt>
      <trkpt lat="43.81258" lon="3.59095">
        <ele>176.06</ele>
        <time>2019-01-15T08:24:54Z</time>
      </trkpt>
      <trkpt lat="43.81257" lon="3.59096">
        <ele>176.06</ele>
        <time>2019-01-15T08:25:18Z</time>
      </trkpt>
      <trkpt lat="43.81257" lon="3.59099">
        <ele>175.58</ele>
        <time>2019-01-15T08:25:22Z</time>
      </trkpt>
      <trkpt lat="43.81251" lon="3.59109">
        <ele>175.1</ele>
        <time>2019-01-15T08:25:34Z</time>
      </trkpt>
      <trkpt lat="43.8125" lon="3.59107">
        <ele>174.62</ele>
        <time>2019-01-15T08:25:51Z</time>
      </trkpt>
      <trkpt lat="43.8125" lon="3.59101">
        <ele>176.06</ele>
        <time>2019-01-15T08:26:05Z</time>
      </trkpt>
      <trkpt lat="43.81251" lon="3.59078">
        <ele>179.42</ele>
        <time>2019-01-15T08:26:21Z</time>
      </trkpt>
      <trkpt lat="43.8125" lon="3.59058">
        <ele>181.35</ele>
        <time>2019-01-15T08:26:34Z</time>
      </trkpt>
      <trkpt lat="43.81249" lon="3.59034">
        <ele>183.27</ele>
        <time>2019-01-15T08:26:52Z</time>
      </trkpt>
      <trkpt lat="43.81252" lon="3.59034">
        <ele>182.79</ele>
        <time>2019-01-15T08:27:03Z</time>
      </trkpt>
      <trkpt lat="43.81258" lon="3.59032">
        <ele>181.83</ele>
        <time>2019-01-15T08:27:19Z</time>
      </trkpt>
      <trkpt lat="43.81264" lon="3.59026">
        <ele>182.31</ele>
        <time>2019-01-15T08:27:33Z</time>
      </trkpt>
      <trkpt lat="43.81265" lon="3.59022">
        <ele>182.31</ele>
        <time>2019-01-15T08:27:36Z</time>
      </trkpt>
      <trkpt lat="43.81266" lon="3.59019">
        <ele>182.31</ele>
        <time>2019-01-15T08:27:38Z</time>
      </trkpt>
      <trkpt lat="43.81267" lon="3.58997">
        <ele>182.79</ele>
        <time>2019-01-15T08:27:54Z</time>
      </trkpt>
      <trkpt lat="43.81266" lon="3.58981">
        <ele>183.27</ele>
        <time>2019-01-15T08:28:06Z</time>
      </trkpt>
      <trkpt lat="43.81268" lon="3.58962">
        <ele>187.11</ele>
        <time>2019-01-15T08:28:22Z</time>
      </trkpt>
      <trkpt lat="43.81271" lon="3.58949">
        <ele>189.52</ele>
        <time>2019-01-15T08:28:36Z</time>
      </trkpt>
      <trkpt lat="43.81263" lon="3.58931">
        <ele>189.52</ele>
        <time>2019-01-15T08:28:51Z</time>
      </trkpt>
      <trkpt lat="43.81261" lon="3.58915">
        <ele>191.44</ele>
        <time>2019-01-15T08:29:05Z</time>
      </trkpt>
      <trkpt lat="43.81262" lon="3.58901">
        <ele>192.88</ele>
        <time>2019-01-15T08:29:18Z</time>
      </trkpt>
      <trkpt lat="43.81258" lon="3.58887">
        <ele>194.32</ele>
        <time>2019-01-15T08:29:32Z</time>
      </trkpt>
      <trkpt lat="43.81258" lon="3.58875">
        <ele>194.32</ele>
        <time>2019-01-15T08:29:45Z</time>
      </trkpt>
      <trkpt lat="43.81261" lon="3.58862">
        <ele>196.25</ele>
        <time>2019-01-15T08:29:59Z</time>
      </trkpt>
      <trkpt lat="43.81268" lon="3.58847">
        <ele>199.61</ele>
        <time>2019-01-15T08:30:15Z</time>
      </trkpt>
      <trkpt lat="43.81274" lon="3.58836">
        <ele>201.05</ele>
        <time>2019-01-15T08:30:29Z</time>
      </trkpt>
      <trkpt lat="43.81267" lon="3.58816">
        <ele>202.49</ele>
        <time>2019-01-15T08:30:44Z</time>
      </trkpt>
      <trkpt lat="43.81264" lon="3.5881">
        <ele>202.98</ele>
        <time>2019-01-15T08:30:48Z</time>
      </trkpt>
      <trkpt lat="43.81263" lon="3.58801">
        <ele>206.34</ele>
        <time>2019-01-15T08:31:04Z</time>
      </trkpt>
      <trkpt lat="43.81273" lon="3.5879">
        <ele>209.7</ele>
        <time>2019-01-15T08:31:18Z</time>
      </trkpt>
      <trkpt lat="43.81277" lon="3.58785">
        <ele>211.15</ele>
        <time>2019-01-15T08:31:24Z</time>
      </trkpt>
      <trkpt lat="43.81278" lon="3.58782">
        <ele>211.15</ele>
        <time>2019-01-15T08:31:26Z</time>
      </trkpt>
      <trkpt lat="43.81286" lon="3.58764">
        <ele>214.03</ele>
        <time>2019-01-15T08:31:40Z</time>
      </trkpt>
      <trkpt lat="43.81293" lon="3.58751">
        <ele>214.51</ele>
        <time>2019-01-15T08:31:51Z</time>
      </trkpt>
      <trkpt lat="43.81278" lon="3.58734">
        <ele>214.51</ele>
        <time>2019-01-15T08:32:06Z</time>
      </trkpt>
      <trkpt lat="43.8126" lon="3.58726">
        <ele>214.03</ele>
        <time>2019-01-15T08:32:21Z</time>
      </trkpt>
      <trkpt lat="43.81257" lon="3.58725">
        <ele>213.07</ele>
        <time>2019-01-15T08:32:24Z</time>
      </trkpt>
      <trkpt lat="43.81251" lon="3.58716">
        <ele>212.11</ele>
        <time>2019-01-15T08:32:35Z</time>
      </trkpt>
      <trkpt lat="43.81239" lon="3.58705">
        <ele>207.3</ele>
        <time>2019-01-15T08:32:51Z</time>
      </trkpt>
      <trkpt lat="43.81228" lon="3.58695">
        <ele>202.98</ele>
        <time>2019-01-15T08:33:06Z</time>
      </trkpt>
      <trkpt lat="43.8121" lon="3.58681">
        <ele>202.98</ele>
        <time>2019-01-15T08:33:23Z</time>
      </trkpt>
      <trkpt lat="43.81199" lon="3.58673">
        <ele>202.01</ele>
        <time>2019-01-15T08:33:34Z</time>
      </trkpt>
      <trkpt lat="43.81185" lon="3.58661">
        <ele>200.09</ele>
        <time>2019-01-15T08:33:49Z</time>
      </trkpt>
      <trkpt lat="43.81173" lon="3.58644">
        <ele>198.65</ele>
        <time>2019-01-15T08:34:04Z</time>
      </trkpt>
      <trkpt lat="43.81167" lon="3.58639">
        <ele>197.69</ele>
        <time>2019-01-15T08:34:08Z</time>
      </trkpt>
      <trkpt lat="43.8116" lon="3.58636">
        <ele>197.21</ele>
        <time>2019-01-15T08:34:20Z</time>
      </trkpt>
      <trkpt lat="43.81145" lon="3.58633">
        <ele>195.77</ele>
        <time>2019-01-15T08:34:33Z</time>
      </trkpt>
      <trkpt lat="43.8114" lon="3.58635">
        <ele>196.25</ele>
        <time>2019-01-15T08:34:39Z</time>
      </trkpt>
      <trkpt lat="43.81126" lon="3.5864">
        <ele>193.36</ele>
        <time>2019-01-15T08:34:53Z</time>
      </trkpt>
      <trkpt lat="43.81124" lon="3.58639">
        <ele>192.88</ele>
        <time>2019-01-15T08:34:55Z</time>
      </trkpt>
      <trkpt lat="43.81112" lon="3.58633">
        <ele>190</ele>
        <time>2019-01-15T08:35:06Z</time>
      </trkpt>
      <trkpt lat="43.81101" lon="3.58625">
        <ele>189.52</ele>
        <time>2019-01-15T08:35:19Z</time>
      </trkpt>
      <trkpt lat="43.8109" lon="3.58608">
        <ele>187.11</ele>
        <time>2019-01-15T08:35:34Z</time>
      </trkpt>
      <trkpt lat="43.81073" lon="3.58609">
        <ele>185.19</ele>
        <time>2019-01-15T08:35:46Z</time>
      </trkpt>
      <trkpt lat="43.81059" lon="3.58604">
        <ele>186.15</ele>
        <time>2019-01-15T08:36:00Z</time>
      </trkpt>
      <trkpt lat="43.81056" lon="3.58605">
        <ele>185.19</ele>
        <time>2019-01-15T08:36:15Z</time>
      </trkpt>
      <trkpt lat="43.81055" lon="3.58606">
        <ele>185.67</ele>
        <time>2019-01-15T08:36:16Z</time>
      </trkpt>
      <trkpt lat="43.81039" lon="3.58617">
        <ele>183.75</ele>
        <time>2019-01-15T08:36:33Z</time>
      </trkpt>
      <trkpt lat="43.81028" lon="3.58624">
        <ele>182.31</ele>
        <time>2019-01-15T08:36:47Z</time>
      </trkpt>
      <trkpt lat="43.81021" lon="3.58613">
        <ele>180.38</ele>
        <time>2019-01-15T08:37:00Z</time>
      </trkpt>
      <trkpt lat="43.81017" lon="3.58615">
        <ele>179.9</ele>
        <time>2019-01-15T08:37:18Z</time>
      </trkpt>
      <trkpt lat="43.81011" lon="3.58616">
        <ele>180.38</ele>
        <time>2019-01-15T08:37:34Z</time>
      </trkpt>
      <trkpt lat="43.8101" lon="3.58614">
        <ele>180.38</ele>
        <time>2019-01-15T08:37:36Z</time>
      </trkpt>
      <trkpt lat="43.80996" lon="3.58602">
        <ele>181.35</ele>
        <time>2019-01-15T08:37:52Z</time>
      </trkpt>
      <trkpt lat="43.80977" lon="3.58595">
        <ele>187.11</ele>
        <time>2019-01-15T08:38:09Z</time>
      </trkpt>
      <trkpt lat="43.80968" lon="3.58598">
        <ele>190</ele>
        <time>2019-01-15T08:38:17Z</time>
      </trkpt>
      <trkpt lat="43.80955" lon="3.58605">
        <ele>190.96</ele>
        <time>2019-01-15T08:38:31Z</time>
      </trkpt>
      <trkpt lat="43.80947" lon="3.58606">
        <ele>190.96</ele>
        <time>2019-01-15T08:38:38Z</time>
      </trkpt>
      <trkpt lat="43.80933" lon="3.58608">
        <ele>192.4</ele>
        <time>2019-01-15T08:38:50Z</time>
      </trkpt>
      <trkpt lat="43.8093" lon="3.58607">
        <ele>193.36</ele>
        <time>2019-01-15T08:38:53Z</time>
      </trkpt>
      <trkpt lat="43.80915" lon="3.5862">
        <ele>195.77</ele>
        <time>2019-01-15T08:39:10Z</time>
      </trkpt>
      <trkpt lat="43.80906" lon="3.5863">
        <ele>197.21</ele>
        <time>2019-01-15T08:39:22Z</time>
      </trkpt>
      <trkpt lat="43.80899" lon="3.58649">
        <ele>197.69</ele>
        <time>2019-01-15T08:39:38Z</time>
      </trkpt>
      <trkpt lat="43.80888" lon="3.58659">
        <ele>200.57</ele>
        <time>2019-01-15T08:39:53Z</time>
      </trkpt>
      <trkpt lat="43.80876" lon="3.58666">
        <ele>203.94</ele>
        <time>2019-01-15T08:40:04Z</time>
      </trkpt>
      <trkpt lat="43.80863" lon="3.58673">
        <ele>207.78</ele>
        <time>2019-01-15T08:40:18Z</time>
      </trkpt>
      <trkpt lat="43.8085" lon="3.58679">
        <ele>208.74</ele>
        <time>2019-01-15T08:40:31Z</time>
      </trkpt>
      <trkpt lat="43.80842" lon="3.58681">
        <ele>210.19</ele>
        <time>2019-01-15T08:40:40Z</time>
      </trkpt>
      <trkpt lat="43.80838" lon="3.58681">
        <ele>209.7</ele>
        <time>2019-01-15T08:40:44Z</time>
      </trkpt>
      <trkpt lat="43.80832" lon="3.58688">
        <ele>209.7</ele>
        <time>2019-01-15T08:40:50Z</time>
      </trkpt>
      <trkpt lat="43.80821" lon="3.58689">
        <ele>210.67</ele>
        <time>2019-01-15T08:41:05Z</time>
      </trkpt>
      <trkpt lat="43.80811" lon="3.58691">
        <ele>210.67</ele>
        <time>2019-01-15T08:41:18Z</time>
      </trkpt>
      <trkpt lat="43.80801" lon="3.58696">
        <ele>213.07</ele>
        <time>2019-01-15T08:41:30Z</time>
      </trkpt>
      <trkpt lat="43.80799" lon="3.58697">
        <ele>213.55</ele>
        <time>2019-01-15T08:41:32Z</time>
      </trkpt>
      <trkpt lat="43.80789" lon="3.58702">
        <ele>216.91</ele>
        <time>2019-01-15T08:41:42Z</time>
      </trkpt>
      <trkpt lat="43.80776" lon="3.58705">
        <ele>219.8</ele>
        <time>2019-01-15T08:41:57Z</time>
      </trkpt>
      <trkpt lat="43.80763" lon="3.58708">
        <ele>220.76</ele>
        <time>2019-01-15T08:42:10Z</time>
      </trkpt>
      <trkpt lat="43.80755" lon="3.58713">
        <ele>223.16</ele>
        <time>2019-01-15T08:42:19Z</time>
      </trkpt>
      <trkpt lat="43.80742" lon="3.58722">
        <ele>229.41</ele>
        <time>2019-01-15T08:42:36Z</time>
      </trkpt>
      <trkpt lat="43.80737" lon="3.58726">
        <ele>228.93</ele>
        <time>2019-01-15T08:42:48Z</time>
      </trkpt>
      <trkpt lat="43.80729" lon="3.58725">
        <ele>228.93</ele>
        <time>2019-01-15T08:42:59Z</time>
      </trkpt>
      <trkpt lat="43.80721" lon="3.58723">
        <ele>229.41</ele>
        <time>2019-01-15T08:43:09Z</time>
      </trkpt>
      <trkpt lat="43.80712" lon="3.58722">
        <ele>229.41</ele>
        <time>2019-01-15T08:43:22Z</time>
      </trkpt>
      <trkpt lat="43.80703" lon="3.58723">
        <ele>232.78</ele>
        <time>2019-01-15T08:43:34Z</time>
      </trkpt>
      <trkpt lat="43.80693" lon="3.58739">
        <ele>233.74</ele>
        <time>2019-01-15T08:43:50Z</time>
      </trkpt>
      <trkpt lat="43.80687" lon="3.58744">
        <ele>235.66</ele>
        <time>2019-01-15T08:44:03Z</time>
      </trkpt>
      <trkpt lat="43.8069" lon="3.5875">
        <ele>235.66</ele>
        <time>2019-01-15T08:44:26Z</time>
      </trkpt>
      <trkpt lat="43.80688" lon="3.58746">
        <ele>234.7</ele>
        <time>2019-01-15T08:44:50Z</time>
      </trkpt>
      <trkpt lat="43.80687" lon="3.58745">
        <ele>234.7</ele>
        <time>2019-01-15T08:44:51Z</time>
      </trkpt>
      <trkpt lat="43.80677" lon="3.5875">
        <ele>238.54</ele>
        <time>2019-01-15T08:45:04Z</time>
      </trkpt>
      <trkpt lat="43.80671" lon="3.58756">
        <ele>238.06</ele>
        <time>2019-01-15T08:45:15Z</time>
      </trkpt>
      <trkpt lat="43.80674" lon="3.58751">
        <ele>237.58</ele>
        <time>2019-01-15T08:45:24Z</time>
      </trkpt>
      <trkpt lat="43.80674" lon="3.58745">
        <ele>238.54</ele>
        <time>2019-01-15T08:45:31Z</time>
      </trkpt>
      <trkpt lat="43.80663" lon="3.58767">
        <ele>239.51</ele>
        <time>2019-01-15T08:45:50Z</time>
      </trkpt>
      <trkpt lat="43.80654" lon="3.58784">
        <ele>242.39</ele>
        <time>2019-01-15T08:46:05Z</time>
      </trkpt>
      <trkpt lat="43.8065" lon="3.588">
        <ele>243.83</ele>
        <time>2019-01-15T08:46:18Z</time>
      </trkpt>
      <trkpt lat="43.80645" lon="3.58797">
        <ele>246.23</ele>
        <time>2019-01-15T08:46:29Z</time>
      </trkpt>
      <trkpt lat="43.8064" lon="3.58787">
        <ele>246.72</ele>
        <time>2019-01-15T08:46:44Z</time>
      </trkpt>
      <trkpt lat="43.80634" lon="3.58787">
        <ele>246.72</ele>
        <time>2019-01-15T08:46:54Z</time>
      </trkpt>
      <trkpt lat="43.80628" lon="3.58783">
        <ele>246.23</ele>
        <time>2019-01-15T08:47:00Z</time>
      </trkpt>
      <trkpt lat="43.80624" lon="3.58779">
        <ele>246.72</ele>
        <time>2019-01-15T08:47:06Z</time>
      </trkpt>
      <trkpt lat="43.80625" lon="3.58764">
        <ele>249.6</ele>
        <time>2019-01-15T08:47:19Z</time>
      </trkpt>
      <trkpt lat="43.80619" lon="3.58761">
        <ele>248.64</ele>
        <time>2019-01-15T08:47:29Z</time>
      </trkpt>
      <trkpt lat="43.8062" lon="3.58762">
        <ele>248.64</ele>
        <time>2019-01-15T08:47:46Z</time>
      </trkpt>
      <trkpt lat="43.80615" lon="3.5876">
        <ele>250.08</ele>
        <time>2019-01-15T08:48:02Z</time>
      </trkpt>
      <trkpt lat="43.8061" lon="3.58762">
        <ele>249.6</ele>
        <time>2019-01-15T08:48:09Z</time>
      </trkpt>
      <trkpt lat="43.80606" lon="3.58764">
        <ele>250.56</ele>
        <time>2019-01-15T08:48:13Z</time>
      </trkpt>
      <trkpt lat="43.80604" lon="3.58766">
        <ele>250.56</ele>
        <time>2019-01-15T08:48:15Z</time>
      </trkpt>
      <trkpt lat="43.80593" lon="3.5877">
        <ele>251.04</ele>
        <time>2019-01-15T08:48:28Z</time>
      </trkpt>
      <trkpt lat="43.80587" lon="3.58771">
        <ele>252.96</ele>
        <time>2019-01-15T08:48:38Z</time>
      </trkpt>
      <trkpt lat="43.80583" lon="3.58759">
        <ele>256.81</ele>
        <time>2019-01-15T08:48:52Z</time>
      </trkpt>
      <trkpt lat="43.80581" lon="3.58755">
        <ele>256.33</ele>
        <time>2019-01-15T08:48:55Z</time>
      </trkpt>
      <trkpt lat="43.80576" lon="3.58747">
        <ele>256.81</ele>
        <time>2019-01-15T08:49:02Z</time>
      </trkpt>
      <trkpt lat="43.80574" lon="3.58742">
        <ele>257.77</ele>
        <time>2019-01-15T08:49:08Z</time>
      </trkpt>
      <trkpt lat="43.80567" lon="3.58723">
        <ele>260.65</ele>
        <time>2019-01-15T08:49:23Z</time>
      </trkpt>
      <trkpt lat="43.80559" lon="3.58701">
        <ele>261.14</ele>
        <time>2019-01-15T08:49:38Z</time>
      </trkpt>
      <trkpt lat="43.80547" lon="3.58683">
        <ele>263.06</ele>
        <time>2019-01-15T08:49:52Z</time>
      </trkpt>
      <trkpt lat="43.80534" lon="3.58672">
        <ele>264.5</ele>
        <time>2019-01-15T08:50:04Z</time>
      </trkpt>
      <trkpt lat="43.80526" lon="3.58666">
        <ele>265.94</ele>
        <time>2019-01-15T08:50:16Z</time>
      </trkpt>
      <trkpt lat="43.80515" lon="3.58649">
        <ele>265.94</ele>
        <time>2019-01-15T08:50:30Z</time>
      </trkpt>
      <trkpt lat="43.80508" lon="3.58638">
        <ele>264.98</ele>
        <time>2019-01-15T08:50:39Z</time>
      </trkpt>
      <trkpt lat="43.80496" lon="3.58619">
        <ele>264.02</ele>
        <time>2019-01-15T08:50:56Z</time>
      </trkpt>
      <trkpt lat="43.80492" lon="3.58615">
        <ele>265.46</ele>
        <time>2019-01-15T08:51:17Z</time>
      </trkpt>
      <trkpt lat="43.80481" lon="3.58598">
        <ele>264.02</ele>
        <time>2019-01-15T08:51:33Z</time>
      </trkpt>
      <trkpt lat="43.80478" lon="3.58602">
        <ele>263.06</ele>
        <time>2019-01-15T08:51:40Z</time>
      </trkpt>
      <trkpt lat="43.80475" lon="3.58617">
        <ele>259.69</ele>
        <time>2019-01-15T08:51:53Z</time>
      </trkpt>
      <trkpt lat="43.80474" lon="3.58624">
        <ele>258.73</ele>
        <time>2019-01-15T08:52:00Z</time>
      </trkpt>
      <trkpt lat="43.80469" lon="3.58641">
        <ele>257.77</ele>
        <time>2019-01-15T08:52:13Z</time>
      </trkpt>
      <trkpt lat="43.80465" lon="3.58642">
        <ele>254.41</ele>
        <time>2019-01-15T08:52:26Z</time>
      </trkpt>
      <trkpt lat="43.80461" lon="3.58647">
        <ele>252.96</ele>
        <time>2019-01-15T08:52:36Z</time>
      </trkpt>
      <trkpt lat="43.80456" lon="3.58645">
        <ele>251.04</ele>
        <time>2019-01-15T08:52:48Z</time>
      </trkpt>
      <trkpt lat="43.80454" lon="3.58634">
        <ele>249.12</ele>
        <time>2019-01-15T08:52:58Z</time>
      </trkpt>
      <trkpt lat="43.80455" lon="3.5863">
        <ele>250.08</ele>
        <time>2019-01-15T08:53:01Z</time>
      </trkpt>
      <trkpt lat="43.80454" lon="3.58622">
        <ele>252.96</ele>
        <time>2019-01-15T08:53:08Z</time>
      </trkpt>
      <trkpt lat="43.80453" lon="3.58614">
        <ele>253.93</ele>
        <time>2019-01-15T08:53:23Z</time>
      </trkpt>
      <trkpt lat="43.80453" lon="3.58603">
        <ele>252</ele>
        <time>2019-01-15T08:53:37Z</time>
      </trkpt>
      <trkpt lat="43.80452" lon="3.58596">
        <ele>252</ele>
        <time>2019-01-15T08:53:43Z</time>
      </trkpt>
      <trkpt lat="43.80445" lon="3.5858">
        <ele>250.08</ele>
        <time>2019-01-15T08:53:56Z</time>
      </trkpt>
      <trkpt lat="43.8044" lon="3.58563">
        <ele>247.2</ele>
        <time>2019-01-15T08:54:10Z</time>
      </trkpt>
      <trkpt lat="43.80434" lon="3.5856">
        <ele>244.79</ele>
        <time>2019-01-15T08:54:23Z</time>
      </trkpt>
      <trkpt lat="43.80437" lon="3.58568">
        <ele>240.95</ele>
        <time>2019-01-15T08:54:45Z</time>
      </trkpt>
      <trkpt lat="43.80438" lon="3.58574">
        <ele>239.02</ele>
        <time>2019-01-15T08:54:51Z</time>
      </trkpt>
      <trkpt lat="43.80435" lon="3.58582">
        <ele>237.1</ele>
        <time>2019-01-15T08:55:05Z</time>
      </trkpt>
      <trkpt lat="43.80434" lon="3.5858">
        <ele>237.1</ele>
        <time>2019-01-15T08:55:07Z</time>
      </trkpt>
      <trkpt lat="43.80423" lon="3.58568">
        <ele>237.58</ele>
        <time>2019-01-15T08:55:20Z</time>
      </trkpt>
      <trkpt lat="43.80415" lon="3.58557">
        <ele>235.18</ele>
        <time>2019-01-15T08:55:31Z</time>
      </trkpt>
      <trkpt lat="43.80406" lon="3.58548">
        <ele>231.81</ele>
        <time>2019-01-15T08:55:44Z</time>
      </trkpt>
      <trkpt lat="43.80399" lon="3.58537">
        <ele>228.93</ele>
        <time>2019-01-15T08:55:55Z</time>
      </trkpt>
      <trkpt lat="43.80396" lon="3.58535">
        <ele>228.45</ele>
        <time>2019-01-15T08:55:58Z</time>
      </trkpt>
      <trkpt lat="43.80386" lon="3.58526">
        <ele>226.53</ele>
        <time>2019-01-15T08:56:09Z</time>
      </trkpt>
      <trkpt lat="43.80372" lon="3.58514">
        <ele>225.57</ele>
        <time>2019-01-15T08:56:24Z</time>
      </trkpt>
      <trkpt lat="43.80363" lon="3.58506">
        <ele>222.2</ele>
        <time>2019-01-15T08:56:36Z</time>
      </trkpt>
      <trkpt lat="43.80354" lon="3.58496">
        <ele>219.32</ele>
        <time>2019-01-15T08:56:50Z</time>
      </trkpt>
      <trkpt lat="43.80342" lon="3.58492">
        <ele>217.88</ele>
        <time>2019-01-15T08:57:03Z</time>
      </trkpt>
      <trkpt lat="43.80335" lon="3.58485">
        <ele>216.43</ele>
        <time>2019-01-15T08:57:15Z</time>
      </trkpt>
      <trkpt lat="43.80329" lon="3.58481">
        <ele>215.47</ele>
        <time>2019-01-15T08:57:26Z</time>
      </trkpt>
      <trkpt lat="43.8032" lon="3.58478">
        <ele>214.99</ele>
        <time>2019-01-15T08:57:36Z</time>
      </trkpt>
      <trkpt lat="43.80313" lon="3.58469">
        <ele>214.99</ele>
        <time>2019-01-15T08:57:49Z</time>
      </trkpt>
      <trkpt lat="43.80309" lon="3.58469">
        <ele>216.43</ele>
        <time>2019-01-15T08:57:54Z</time>
      </trkpt>
      <trkpt lat="43.80298" lon="3.58471">
        <ele>217.4</ele>
        <time>2019-01-15T08:58:04Z</time>
      </trkpt>
      <trkpt lat="43.80284" lon="3.58466">
        <ele>216.43</ele>
        <time>2019-01-15T08:58:17Z</time>
      </trkpt>
      <trkpt lat="43.80272" lon="3.58455">
        <ele>215.95</ele>
        <time>2019-01-15T08:58:30Z</time>
      </trkpt>
      <trkpt lat="43.80261" lon="3.58447">
        <ele>216.43</ele>
        <time>2019-01-15T08:58:43Z</time>
      </trkpt>
      <trkpt lat="43.8025" lon="3.58444">
        <ele>213.55</ele>
        <time>2019-01-15T08:58:56Z</time>
      </trkpt>
      <trkpt lat="43.80239" lon="3.5844">
        <ele>212.11</ele>
        <time>2019-01-15T08:59:10Z</time>
      </trkpt>
      <trkpt lat="43.8023" lon="3.58433">
        <ele>209.7</ele>
        <time>2019-01-15T08:59:22Z</time>
      </trkpt>
      <trkpt lat="43.80223" lon="3.5843">
        <ele>206.82</ele>
        <time>2019-01-15T08:59:37Z</time>
      </trkpt>
      <trkpt lat="43.80219" lon="3.58423">
        <ele>202.98</ele>
        <time>2019-01-15T08:59:57Z</time>
      </trkpt>
      <trkpt lat="43.80211" lon="3.58411">
        <ele>199.61</ele>
        <time>2019-01-15T09:00:09Z</time>
      </trkpt>
      <trkpt lat="43.80208" lon="3.58406">
        <ele>198.17</ele>
        <time>2019-01-15T09:00:16Z</time>
      </trkpt>
      <trkpt lat="43.802" lon="3.58388">
        <ele>198.65</ele>
        <time>2019-01-15T09:00:30Z</time>
      </trkpt>
      <trkpt lat="43.80196" lon="3.58384">
        <ele>199.61</ele>
        <time>2019-01-15T09:00:35Z</time>
      </trkpt>
      <trkpt lat="43.8018" lon="3.58379">
        <ele>198.17</ele>
        <time>2019-01-15T09:00:49Z</time>
      </trkpt>
      <trkpt lat="43.8017" lon="3.58373">
        <ele>199.13</ele>
        <time>2019-01-15T09:01:01Z</time>
      </trkpt>
      <trkpt lat="43.8016" lon="3.58368">
        <ele>202.01</ele>
        <time>2019-01-15T09:01:10Z</time>
      </trkpt>
      <trkpt lat="43.8015" lon="3.58359">
        <ele>202.98</ele>
        <time>2019-01-15T09:01:18Z</time>
      </trkpt>
      <trkpt lat="43.80136" lon="3.58344">
        <ele>207.78</ele>
        <time>2019-01-15T09:01:34Z</time>
      </trkpt>
      <trkpt lat="43.80133" lon="3.58343">
        <ele>208.74</ele>
        <time>2019-01-15T09:01:36Z</time>
      </trkpt>
      <trkpt lat="43.80115" lon="3.5833">
        <ele>214.03</ele>
        <time>2019-01-15T09:01:51Z</time>
      </trkpt>
      <trkpt lat="43.801" lon="3.58326">
        <ele>214.03</ele>
        <time>2019-01-15T09:02:02Z</time>
      </trkpt>
      <trkpt lat="43.80089" lon="3.5831">
        <ele>209.7</ele>
        <time>2019-01-15T09:02:16Z</time>
      </trkpt>
      <trkpt lat="43.80081" lon="3.583">
        <ele>207.78</ele>
        <time>2019-01-15T09:02:28Z</time>
      </trkpt>
      <trkpt lat="43.8007" lon="3.58287">
        <ele>211.63</ele>
        <time>2019-01-15T09:02:42Z</time>
      </trkpt>
      <trkpt lat="43.80058" lon="3.58277">
        <ele>216.91</ele>
        <time>2019-01-15T09:02:56Z</time>
      </trkpt>
      <trkpt lat="43.80052" lon="3.58266">
        <ele>216.91</ele>
        <time>2019-01-15T09:03:07Z</time>
      </trkpt>
      <trkpt lat="43.80046" lon="3.58249">
        <ele>219.32</ele>
        <time>2019-01-15T09:03:20Z</time>
      </trkpt>
      <trkpt lat="43.80039" lon="3.58236">
        <ele>220.28</ele>
        <time>2019-01-15T09:03:31Z</time>
      </trkpt>
      <trkpt lat="43.80036" lon="3.5823">
        <ele>220.76</ele>
        <time>2019-01-15T09:03:36Z</time>
      </trkpt>
      <trkpt lat="43.80021" lon="3.58217">
        <ele>221.72</ele>
        <time>2019-01-15T09:03:50Z</time>
      </trkpt>
      <trkpt lat="43.80016" lon="3.58211">
        <ele>221.72</ele>
        <time>2019-01-15T09:03:57Z</time>
      </trkpt>
      <trkpt lat="43.79998" lon="3.5821">
        <ele>221.72</ele>
        <time>2019-01-15T09:04:09Z</time>
      </trkpt>
      <trkpt lat="43.7999" lon="3.58206">
        <ele>221.24</ele>
        <time>2019-01-15T09:04:14Z</time>
      </trkpt>
      <trkpt lat="43.79975" lon="3.58192">
        <ele>216.43</ele>
        <time>2019-01-15T09:04:27Z</time>
      </trkpt>
      <trkpt lat="43.79962" lon="3.58182">
        <ele>215.47</ele>
        <time>2019-01-15T09:04:40Z</time>
      </trkpt>
      <trkpt lat="43.79961" lon="3.58181">
        <ele>215.47</ele>
        <time>2019-01-15T09:04:41Z</time>
      </trkpt>
      <trkpt lat="43.79954" lon="3.58172">
        <ele>213.55</ele>
        <time>2019-01-15T09:04:54Z</time>
      </trkpt>
      <trkpt lat="43.7995" lon="3.58175">
        <ele>212.11</ele>
        <time>2019-01-15T09:05:16Z</time>
      </trkpt>
      <trkpt lat="43.79947" lon="3.58178">
        <ele>211.15</ele>
        <time>2019-01-15T09:05:45Z</time>
      </trkpt>
      <trkpt lat="43.79948" lon="3.58169">
        <ele>208.26</ele>
        <time>2019-01-15T09:06:06Z</time>
      </trkpt>
      <trkpt lat="43.79946" lon="3.58157">
        <ele>210.19</ele>
        <time>2019-01-15T09:06:17Z</time>
      </trkpt>
      <trkpt lat="43.7994" lon="3.58143">
        <ele>210.19</ele>
        <time>2019-01-15T09:06:30Z</time>
      </trkpt>
      <trkpt lat="43.7993" lon="3.58134">
        <ele>211.63</ele>
        <time>2019-01-15T09:06:42Z</time>
      </trkpt>
      <trkpt lat="43.79914" lon="3.58127">
        <ele>212.11</ele>
        <time>2019-01-15T09:06:55Z</time>
      </trkpt>
      <trkpt lat="43.799" lon="3.58119">
        <ele>213.55</ele>
        <time>2019-01-15T09:07:07Z</time>
      </trkpt>
      <trkpt lat="43.79899" lon="3.58119">
        <ele>213.55</ele>
        <time>2019-01-15T09:07:08Z</time>
      </trkpt>
      <trkpt lat="43.79889" lon="3.58117">
        <ele>214.51</ele>
        <time>2019-01-15T09:07:16Z</time>
      </trkpt>
      <trkpt lat="43.79874" lon="3.58107">
        <ele>214.99</ele>
        <time>2019-01-15T09:07:30Z</time>
      </trkpt>
      <trkpt lat="43.79871" lon="3.58094">
        <ele>215.47</ele>
        <time>2019-01-15T09:07:40Z</time>
      </trkpt>
      <trkpt lat="43.79871" lon="3.58084">
        <ele>215.95</ele>
        <time>2019-01-15T09:07:46Z</time>
      </trkpt>
      <trkpt lat="43.79866" lon="3.58067">
        <ele>214.03</ele>
        <time>2019-01-15T09:07:56Z</time>
      </trkpt>
      <trkpt lat="43.79857" lon="3.58055">
        <ele>212.11</ele>
        <time>2019-01-15T09:08:04Z</time>
      </trkpt>
      <trkpt lat="43.79847" lon="3.58039">
        <ele>210.19</ele>
        <time>2019-01-15T09:08:16Z</time>
      </trkpt>
      <trkpt lat="43.79846" lon="3.58032">
        <ele>209.7</ele>
        <time>2019-01-15T09:08:20Z</time>
      </trkpt>
      <trkpt lat="43.79846" lon="3.58026">
        <ele>208.74</ele>
        <time>2019-01-15T09:08:24Z</time>
      </trkpt>
      <trkpt lat="43.79837" lon="3.58008">
        <ele>210.19</ele>
        <time>2019-01-15T09:08:36Z</time>
      </trkpt>
      <trkpt lat="43.79832" lon="3.57995">
        <ele>214.03</ele>
        <time>2019-01-15T09:08:46Z</time>
      </trkpt>
      <trkpt lat="43.79823" lon="3.57977">
        <ele>220.76</ele>
        <time>2019-01-15T09:08:58Z</time>
      </trkpt>
      <trkpt lat="43.79814" lon="3.57962">
        <ele>225.09</ele>
        <time>2019-01-15T09:09:09Z</time>
      </trkpt>
      <trkpt lat="43.79799" lon="3.57942">
        <ele>227.49</ele>
        <time>2019-01-15T09:09:25Z</time>
      </trkpt>
      <trkpt lat="43.79785" lon="3.57928">
        <ele>227.49</ele>
        <time>2019-01-15T09:09:37Z</time>
      </trkpt>
      <trkpt lat="43.79776" lon="3.57916">
        <ele>224.61</ele>
        <time>2019-01-15T09:09:48Z</time>
      </trkpt>
      <trkpt lat="43.79765" lon="3.57904">
        <ele>223.16</ele>
        <time>2019-01-15T09:09:59Z</time>
      </trkpt>
      <trkpt lat="43.79755" lon="3.57894">
        <ele>218.84</ele>
        <time>2019-01-15T09:10:11Z</time>
      </trkpt>
      <trkpt lat="43.79741" lon="3.57881">
        <ele>215.47</ele>
        <time>2019-01-15T09:10:25Z</time>
      </trkpt>
      <trkpt lat="43.79728" lon="3.57867">
        <ele>213.07</ele>
        <time>2019-01-15T09:10:38Z</time>
      </trkpt>
      <trkpt lat="43.79716" lon="3.5785">
        <ele>216.91</ele>
        <time>2019-01-15T09:10:52Z</time>
      </trkpt>
      <trkpt lat="43.79712" lon="3.57845">
        <ele>217.88</ele>
        <time>2019-01-15T09:10:56Z</time>
      </trkpt>
      <trkpt lat="43.79702" lon="3.57834">
        <ele>219.32</ele>
        <time>2019-01-15T09:11:08Z</time>
      </trkpt>
      <trkpt lat="43.79699" lon="3.57832">
        <ele>219.32</ele>
        <time>2019-01-15T09:11:10Z</time>
      </trkpt>
      <trkpt lat="43.79691" lon="3.57819">
        <ele>220.28</ele>
        <time>2019-01-15T09:11:24Z</time>
      </trkpt>
      <trkpt lat="43.79688" lon="3.57809">
        <ele>224.61</ele>
        <time>2019-01-15T09:11:37Z</time>
      </trkpt>
      <trkpt lat="43.79688" lon="3.57802">
        <ele>226.05</ele>
        <time>2019-01-15T09:11:44Z</time>
      </trkpt>
      <trkpt lat="43.79685" lon="3.57791">
        <ele>225.57</ele>
        <time>2019-01-15T09:11:51Z</time>
      </trkpt>
      <trkpt lat="43.79678" lon="3.57778">
        <ele>224.61</ele>
        <time>2019-01-15T09:11:59Z</time>
      </trkpt>
      <trkpt lat="43.79679" lon="3.57763">
        <ele>223.64</ele>
        <time>2019-01-15T09:12:12Z</time>
      </trkpt>
      <trkpt lat="43.7968" lon="3.57758">
        <ele>224.61</ele>
        <time>2019-01-15T09:12:22Z</time>
      </trkpt>
      <trkpt lat="43.79688" lon="3.57745">
        <ele>227.49</ele>
        <time>2019-01-15T09:12:32Z</time>
      </trkpt>
      <trkpt lat="43.7969" lon="3.57743">
        <ele>227.49</ele>
        <time>2019-01-15T09:12:34Z</time>
      </trkpt>
      <trkpt lat="43.79693" lon="3.57734">
        <ele>227.01</ele>
        <time>2019-01-15T09:12:38Z</time>
      </trkpt>
      <trkpt lat="43.79687" lon="3.57709">
        <ele>226.53</ele>
        <time>2019-01-15T09:12:53Z</time>
      </trkpt>
      <trkpt lat="43.79685" lon="3.57688">
        <ele>227.97</ele>
        <time>2019-01-15T09:13:07Z</time>
      </trkpt>
      <trkpt lat="43.7968" lon="3.57671">
        <ele>229.89</ele>
        <time>2019-01-15T09:13:18Z</time>
      </trkpt>
      <trkpt lat="43.79675" lon="3.57654">
        <ele>231.33</ele>
        <time>2019-01-15T09:13:32Z</time>
      </trkpt>
      <trkpt lat="43.79674" lon="3.57647">
        <ele>230.37</ele>
        <time>2019-01-15T09:13:38Z</time>
      </trkpt>
      <trkpt lat="43.79674" lon="3.57641">
        <ele>230.37</ele>
        <time>2019-01-15T09:13:43Z</time>
      </trkpt>
      <trkpt lat="43.79673" lon="3.57632">
        <ele>230.85</ele>
        <time>2019-01-15T09:13:49Z</time>
      </trkpt>
      <trkpt lat="43.79672" lon="3.57619">
        <ele>230.85</ele>
        <time>2019-01-15T09:14:00Z</time>
      </trkpt>
      <trkpt lat="43.79672" lon="3.57611">
        <ele>231.81</ele>
        <time>2019-01-15T09:14:06Z</time>
      </trkpt>
      <trkpt lat="43.79674" lon="3.5759">
        <ele>231.33</ele>
        <time>2019-01-15T09:14:20Z</time>
      </trkpt>
      <trkpt lat="43.79672" lon="3.57581">
        <ele>231.81</ele>
        <time>2019-01-15T09:14:28Z</time>
      </trkpt>
      <trkpt lat="43.79672" lon="3.5757">
        <ele>231.81</ele>
        <time>2019-01-15T09:14:36Z</time>
      </trkpt>
      <trkpt lat="43.79667" lon="3.57548">
        <ele>233.74</ele>
        <time>2019-01-15T09:14:50Z</time>
      </trkpt>
      <trkpt lat="43.79651" lon="3.57534">
        <ele>235.18</ele>
        <time>2019-01-15T09:15:05Z</time>
      </trkpt>
      <trkpt lat="43.79649" lon="3.57531">
        <ele>235.66</ele>
        <time>2019-01-15T09:15:08Z</time>
      </trkpt>
      <trkpt lat="43.79641" lon="3.57517">
        <ele>235.66</ele>
        <time>2019-01-15T09:15:21Z</time>
      </trkpt>
      <trkpt lat="43.79628" lon="3.57505">
        <ele>233.74</ele>
        <time>2019-01-15T09:15:33Z</time>
      </trkpt>
      <trkpt lat="43.79624" lon="3.57495">
        <ele>232.78</ele>
        <time>2019-01-15T09:15:43Z</time>
      </trkpt>
      <trkpt lat="43.79617" lon="3.57481">
        <ele>238.54</ele>
        <time>2019-01-15T09:15:57Z</time>
      </trkpt>
      <trkpt lat="43.79613" lon="3.57471">
        <ele>242.39</ele>
        <time>2019-01-15T09:16:10Z</time>
      </trkpt>
      <trkpt lat="43.79607" lon="3.57459">
        <ele>250.08</ele>
        <time>2019-01-15T09:16:23Z</time>
      </trkpt>
      <trkpt lat="43.79603" lon="3.57452">
        <ele>252</ele>
        <time>2019-01-15T09:16:29Z</time>
      </trkpt>
      <trkpt lat="43.79597" lon="3.57445">
        <ele>254.89</ele>
        <time>2019-01-15T09:16:35Z</time>
      </trkpt>
      <trkpt lat="43.79593" lon="3.57439">
        <ele>255.85</ele>
        <time>2019-01-15T09:16:40Z</time>
      </trkpt>
      <trkpt lat="43.79579" lon="3.57427">
        <ele>254.89</ele>
        <time>2019-01-15T09:16:53Z</time>
      </trkpt>
      <trkpt lat="43.79566" lon="3.57409">
        <ele>253.93</ele>
        <time>2019-01-15T09:17:07Z</time>
      </trkpt>
      <trkpt lat="43.79555" lon="3.57397">
        <ele>253.44</ele>
        <time>2019-01-15T09:17:18Z</time>
      </trkpt>
      <trkpt lat="43.79547" lon="3.57391">
        <ele>253.93</ele>
        <time>2019-01-15T09:17:33Z</time>
      </trkpt>
      <trkpt lat="43.79547" lon="3.57392">
        <ele>254.41</ele>
        <time>2019-01-15T09:17:45Z</time>
      </trkpt>
      <trkpt lat="43.79545" lon="3.57389">
        <ele>251.52</ele>
        <time>2019-01-15T09:17:57Z</time>
      </trkpt>
      <trkpt lat="43.79544" lon="3.57389">
        <ele>252</ele>
        <time>2019-01-15T09:18:15Z</time>
      </trkpt>
      <trkpt lat="43.79543" lon="3.57391">
        <ele>253.44</ele>
        <time>2019-01-15T09:18:47Z</time>
      </trkpt>
      <trkpt lat="43.79547" lon="3.57396">
        <ele>253.44</ele>
        <time>2019-01-15T09:19:11Z</time>
      </trkpt>
      <trkpt lat="43.79549" lon="3.57395">
        <ele>252.96</ele>
        <time>2019-01-15T09:19:29Z</time>
      </trkpt>
      <trkpt lat="43.79548" lon="3.57395">
        <ele>262.1</ele>
        <time>2019-01-15T09:19:55Z</time>
      </trkpt>
      <trkpt lat="43.79547" lon="3.57394">
        <ele>263.54</ele>
        <time>2019-01-15T09:20:15Z</time>
      </trkpt>
      <trkpt lat="43.79548" lon="3.57394">
        <ele>259.69</ele>
        <time>2019-01-15T09:20:33Z</time>
      </trkpt>
      <trkpt lat="43.79547" lon="3.57388">
        <ele>256.33</ele>
        <time>2019-01-15T09:21:01Z</time>
      </trkpt>
      <trkpt lat="43.79545" lon="3.5739">
        <ele>254.89</ele>
        <time>2019-01-15T09:21:27Z</time>
      </trkpt>
      <trkpt lat="43.79545" lon="3.57393">
        <ele>253.93</ele>
        <time>2019-01-15T09:21:54Z</time>
      </trkpt>
      <trkpt lat="43.79544" lon="3.57389">
        <ele>251.04</ele>
        <time>2019-01-15T09:22:17Z</time>
      </trkpt>
      <trkpt lat="43.79539" lon="3.57374">
        <ele>251.52</ele>
        <time>2019-01-15T09:22:32Z</time>
      </trkpt>
      <trkpt lat="43.79534" lon="3.57369">
        <ele>251.04</ele>
        <time>2019-01-15T09:22:44Z</time>
      </trkpt>
      <trkpt lat="43.79521" lon="3.5736">
        <ele>252.96</ele>
        <time>2019-01-15T09:22:57Z</time>
      </trkpt>
      <trkpt lat="43.79509" lon="3.57351">
        <ele>254.89</ele>
        <time>2019-01-15T09:23:12Z</time>
      </trkpt>
      <trkpt lat="43.79499" lon="3.57339">
        <ele>253.93</ele>
        <time>2019-01-15T09:23:24Z</time>
      </trkpt>
      <trkpt lat="43.79496" lon="3.57328">
        <ele>252</ele>
        <time>2019-01-15T09:23:32Z</time>
      </trkpt>
      <trkpt lat="43.79484" lon="3.57316">
        <ele>255.37</ele>
        <time>2019-01-15T09:23:46Z</time>
      </trkpt>
      <trkpt lat="43.79477" lon="3.57308">
        <ele>255.85</ele>
        <time>2019-01-15T09:23:53Z</time>
      </trkpt>
      <trkpt lat="43.79474" lon="3.57304">
        <ele>256.33</ele>
        <time>2019-01-15T09:23:57Z</time>
      </trkpt>
      <trkpt lat="43.7946" lon="3.57289">
        <ele>254.41</ele>
        <time>2019-01-15T09:24:11Z</time>
      </trkpt>
      <trkpt lat="43.79459" lon="3.57288">
        <ele>253.93</ele>
        <time>2019-01-15T09:24:12Z</time>
      </trkpt>
      <trkpt lat="43.79455" lon="3.57277">
        <ele>255.85</ele>
        <time>2019-01-15T09:24:21Z</time>
      </trkpt>
      <trkpt lat="43.79453" lon="3.57263">
        <ele>258.73</ele>
        <time>2019-01-15T09:24:34Z</time>
      </trkpt>
      <trkpt lat="43.79455" lon="3.57254">
        <ele>258.73</ele>
        <time>2019-01-15T09:24:41Z</time>
      </trkpt>
      <trkpt lat="43.79454" lon="3.57249">
        <ele>258.73</ele>
        <time>2019-01-15T09:24:44Z</time>
      </trkpt>
      <trkpt lat="43.79447" lon="3.57229">
        <ele>261.14</ele>
        <time>2019-01-15T09:24:58Z</time>
      </trkpt>
      <trkpt lat="43.79441" lon="3.57216">
        <ele>264.5</ele>
        <time>2019-01-15T09:25:10Z</time>
      </trkpt>
      <trkpt lat="43.79439" lon="3.57213">
        <ele>265.94</ele>
        <time>2019-01-15T09:25:13Z</time>
      </trkpt>
      <trkpt lat="43.79424" lon="3.57206">
        <ele>264.98</ele>
        <time>2019-01-15T09:25:27Z</time>
      </trkpt>
      <trkpt lat="43.79418" lon="3.57201">
        <ele>261.62</ele>
        <time>2019-01-15T09:25:34Z</time>
      </trkpt>
      <trkpt lat="43.79413" lon="3.57197">
        <ele>259.69</ele>
        <time>2019-01-15T09:25:38Z</time>
      </trkpt>
      <trkpt lat="43.79402" lon="3.57192">
        <ele>258.25</ele>
        <time>2019-01-15T09:25:51Z</time>
      </trkpt>
      <trkpt lat="43.79394" lon="3.57186">
        <ele>260.65</ele>
        <time>2019-01-15T09:26:01Z</time>
      </trkpt>
      <trkpt lat="43.79391" lon="3.57182">
        <ele>261.62</ele>
        <time>2019-01-15T09:26:07Z</time>
      </trkpt>
      <trkpt lat="43.7938" lon="3.57175">
        <ele>261.62</ele>
        <time>2019-01-15T09:26:19Z</time>
      </trkpt>
      <trkpt lat="43.79367" lon="3.57166">
        <ele>261.62</ele>
        <time>2019-01-15T09:26:32Z</time>
      </trkpt>
      <trkpt lat="43.79365" lon="3.57163">
        <ele>262.1</ele>
        <time>2019-01-15T09:26:35Z</time>
      </trkpt>
      <trkpt lat="43.79358" lon="3.57146">
        <ele>265.46</ele>
        <time>2019-01-15T09:26:49Z</time>
      </trkpt>
      <trkpt lat="43.79352" lon="3.57136">
        <ele>265.94</ele>
        <time>2019-01-15T09:26:57Z</time>
      </trkpt>
      <trkpt lat="43.79346" lon="3.57127">
        <ele>268.83</ele>
        <time>2019-01-15T09:27:04Z</time>
      </trkpt>
      <trkpt lat="43.79336" lon="3.57109">
        <ele>268.35</ele>
        <time>2019-01-15T09:27:17Z</time>
      </trkpt>
      <trkpt lat="43.7933" lon="3.57092">
        <ele>272.67</ele>
        <time>2019-01-15T09:27:31Z</time>
      </trkpt>
      <trkpt lat="43.79327" lon="3.57089">
        <ele>274.59</ele>
        <time>2019-01-15T09:27:34Z</time>
      </trkpt>
      <trkpt lat="43.7932" lon="3.57078">
        <ele>278.44</ele>
        <time>2019-01-15T09:27:46Z</time>
      </trkpt>
      <trkpt lat="43.79321" lon="3.57073">
        <ele>278.44</ele>
        <time>2019-01-15T09:27:50Z</time>
      </trkpt>
      <trkpt lat="43.79322" lon="3.57065">
        <ele>277.48</ele>
        <time>2019-01-15T09:27:55Z</time>
      </trkpt>
      <trkpt lat="43.79321" lon="3.57055">
        <ele>277.96</ele>
        <time>2019-01-15T09:28:01Z</time>
      </trkpt>
      <trkpt lat="43.79322" lon="3.57036">
        <ele>277</ele>
        <time>2019-01-15T09:28:14Z</time>
      </trkpt>
      <trkpt lat="43.79314" lon="3.57021">
        <ele>277</ele>
        <time>2019-01-15T09:28:27Z</time>
      </trkpt>
      <trkpt lat="43.79308" lon="3.57005">
        <ele>277.48</ele>
        <time>2019-01-15T09:28:38Z</time>
      </trkpt>
      <trkpt lat="43.79307" lon="3.57001">
        <ele>277</ele>
        <time>2019-01-15T09:28:40Z</time>
      </trkpt>
      <trkpt lat="43.7931" lon="3.56981">
        <ele>280.36</ele>
        <time>2019-01-15T09:28:55Z</time>
      </trkpt>
      <trkpt lat="43.79312" lon="3.56972">
        <ele>281.8</ele>
        <time>2019-01-15T09:29:03Z</time>
      </trkpt>
      <trkpt lat="43.79318" lon="3.56961">
        <ele>281.8</ele>
        <time>2019-01-15T09:29:10Z</time>
      </trkpt>
      <trkpt lat="43.79324" lon="3.56949">
        <ele>282.28</ele>
        <time>2019-01-15T09:29:18Z</time>
      </trkpt>
      <trkpt lat="43.79325" lon="3.56944">
        <ele>283.73</ele>
        <time>2019-01-15T09:29:21Z</time>
      </trkpt>
      <trkpt lat="43.79326" lon="3.56941">
        <ele>283.73</ele>
        <time>2019-01-15T09:29:23Z</time>
      </trkpt>
      <trkpt lat="43.79329" lon="3.56934">
        <ele>284.69</ele>
        <time>2019-01-15T09:29:38Z</time>
      </trkpt>
      <trkpt lat="43.7933" lon="3.56935">
        <ele>287.09</ele>
        <time>2019-01-15T09:29:52Z</time>
      </trkpt>
      <trkpt lat="43.79331" lon="3.56936">
        <ele>290.94</ele>
        <time>2019-01-15T09:30:18Z</time>
      </trkpt>
      <trkpt lat="43.7933" lon="3.56922">
        <ele>290.46</ele>
        <time>2019-01-15T09:30:34Z</time>
      </trkpt>
      <trkpt lat="43.79339" lon="3.5691">
        <ele>290.46</ele>
        <time>2019-01-15T09:30:45Z</time>
      </trkpt>
      <trkpt lat="43.7934" lon="3.56907">
        <ele>290.46</ele>
        <time>2019-01-15T09:30:48Z</time>
      </trkpt>
      <trkpt lat="43.79335" lon="3.5689">
        <ele>291.42</ele>
        <time>2019-01-15T09:31:03Z</time>
      </trkpt>
      <trkpt lat="43.79333" lon="3.56872">
        <ele>291.42</ele>
        <time>2019-01-15T09:31:16Z</time>
      </trkpt>
      <trkpt lat="43.79328" lon="3.56854">
        <ele>292.86</ele>
        <time>2019-01-15T09:31:30Z</time>
      </trkpt>
      <trkpt lat="43.79326" lon="3.56835">
        <ele>294.3</ele>
        <time>2019-01-15T09:31:43Z</time>
      </trkpt>
      <trkpt lat="43.79325" lon="3.56832">
        <ele>295.26</ele>
        <time>2019-01-15T09:31:46Z</time>
      </trkpt>
      <trkpt lat="43.79325" lon="3.56829">
        <ele>295.74</ele>
        <time>2019-01-15T09:31:48Z</time>
      </trkpt>
      <trkpt lat="43.79321" lon="3.56809">
        <ele>299.59</ele>
        <time>2019-01-15T09:32:01Z</time>
      </trkpt>
      <trkpt lat="43.79308" lon="3.56794">
        <ele>301.03</ele>
        <time>2019-01-15T09:32:15Z</time>
      </trkpt>
      <trkpt lat="43.79293" lon="3.56781">
        <ele>297.18</ele>
        <time>2019-01-15T09:32:29Z</time>
      </trkpt>
      <trkpt lat="43.79277" lon="3.56772">
        <ele>297.18</ele>
        <time>2019-01-15T09:32:43Z</time>
      </trkpt>
      <trkpt lat="43.79263" lon="3.56761">
        <ele>296.22</ele>
        <time>2019-01-15T09:32:56Z</time>
      </trkpt>
      <trkpt lat="43.79256" lon="3.56755">
        <ele>296.22</ele>
        <time>2019-01-15T09:33:03Z</time>
      </trkpt>
      <trkpt lat="43.79243" lon="3.56739">
        <ele>296.7</ele>
        <time>2019-01-15T09:33:17Z</time>
      </trkpt>
      <trkpt lat="43.79239" lon="3.56735">
        <ele>296.7</ele>
        <time>2019-01-15T09:33:21Z</time>
      </trkpt>
      <trkpt lat="43.79237" lon="3.56728">
        <ele>296.22</ele>
        <time>2019-01-15T09:33:25Z</time>
      </trkpt>
      <trkpt lat="43.79232" lon="3.56721">
        <ele>296.7</ele>
        <time>2019-01-15T09:33:30Z</time>
      </trkpt>
      <trkpt lat="43.79227" lon="3.56709">
        <ele>297.18</ele>
        <time>2019-01-15T09:33:39Z</time>
      </trkpt>
      <trkpt lat="43.79226" lon="3.56706">
        <ele>296.7</ele>
        <time>2019-01-15T09:33:42Z</time>
      </trkpt>
      <trkpt lat="43.79221" lon="3.56695">
        <ele>296.7</ele>
        <time>2019-01-15T09:33:50Z</time>
      </trkpt>
      <trkpt lat="43.79216" lon="3.56686">
        <ele>298.15</ele>
        <time>2019-01-15T09:33:57Z</time>
      </trkpt>
      <trkpt lat="43.79209" lon="3.56673">
        <ele>298.63</ele>
        <time>2019-01-15T09:34:10Z</time>
      </trkpt>
      <trkpt lat="43.79207" lon="3.56671">
        <ele>300.55</ele>
        <time>2019-01-15T09:34:23Z</time>
      </trkpt>
      <trkpt lat="43.79203" lon="3.56665">
        <ele>303.43</ele>
        <time>2019-01-15T09:34:34Z</time>
      </trkpt>
      <trkpt lat="43.79201" lon="3.5666">
        <ele>305.36</ele>
        <time>2019-01-15T09:34:38Z</time>
      </trkpt>
      <trkpt lat="43.79196" lon="3.56645">
        <ele>305.84</ele>
        <time>2019-01-15T09:34:51Z</time>
      </trkpt>
      <trkpt lat="43.79192" lon="3.56631">
        <ele>304.39</ele>
        <time>2019-01-15T09:35:04Z</time>
      </trkpt>
      <trkpt lat="43.79186" lon="3.56617">
        <ele>306.32</ele>
        <time>2019-01-15T09:35:19Z</time>
      </trkpt>
      <trkpt lat="43.79184" lon="3.56616">
        <ele>306.32</ele>
        <time>2019-01-15T09:35:32Z</time>
      </trkpt>
      <trkpt lat="43.79181" lon="3.56614">
        <ele>305.36</ele>
        <time>2019-01-15T09:35:47Z</time>
      </trkpt>
      <trkpt lat="43.7918" lon="3.56609">
        <ele>305.36</ele>
        <time>2019-01-15T09:35:52Z</time>
      </trkpt>
      <trkpt lat="43.79168" lon="3.56598">
        <ele>304.88</ele>
        <time>2019-01-15T09:36:05Z</time>
      </trkpt>
      <trkpt lat="43.7916" lon="3.56589">
        <ele>305.84</ele>
        <time>2019-01-15T09:36:15Z</time>
      </trkpt>
      <trkpt lat="43.79152" lon="3.56579">
        <ele>306.8</ele>
        <time>2019-01-15T09:36:23Z</time>
      </trkpt>
      <trkpt lat="43.79151" lon="3.56558">
        <ele>307.28</ele>
        <time>2019-01-15T09:36:38Z</time>
      </trkpt>
      <trkpt lat="43.79153" lon="3.5654">
        <ele>308.24</ele>
        <time>2019-01-15T09:36:50Z</time>
      </trkpt>
      <trkpt lat="43.79154" lon="3.5653">
        <ele>309.2</ele>
        <time>2019-01-15T09:36:56Z</time>
      </trkpt>
      <trkpt lat="43.79151" lon="3.56518">
        <ele>308.24</ele>
        <time>2019-01-15T09:37:03Z</time>
      </trkpt>
      <trkpt lat="43.79146" lon="3.56496">
        <ele>312.09</ele>
        <time>2019-01-15T09:37:17Z</time>
      </trkpt>
      <trkpt lat="43.7914" lon="3.56479">
        <ele>312.57</ele>
        <time>2019-01-15T09:37:29Z</time>
      </trkpt>
      <trkpt lat="43.79128" lon="3.56463">
        <ele>312.57</ele>
        <time>2019-01-15T09:37:43Z</time>
      </trkpt>
      <trkpt lat="43.79121" lon="3.56448">
        <ele>311.6</ele>
        <time>2019-01-15T09:37:54Z</time>
      </trkpt>
      <trkpt lat="43.79112" lon="3.56435">
        <ele>311.6</ele>
        <time>2019-01-15T09:38:06Z</time>
      </trkpt>
      <trkpt lat="43.791" lon="3.5642">
        <ele>314.49</ele>
        <time>2019-01-15T09:38:20Z</time>
      </trkpt>
      <trkpt lat="43.79087" lon="3.56405">
        <ele>313.53</ele>
        <time>2019-01-15T09:38:34Z</time>
      </trkpt>
      <trkpt lat="43.7908" lon="3.56396">
        <ele>309.68</ele>
        <time>2019-01-15T09:38:43Z</time>
      </trkpt>
      <trkpt lat="43.79071" lon="3.56383">
        <ele>308.72</ele>
        <time>2019-01-15T09:38:54Z</time>
      </trkpt>
      <trkpt lat="43.79056" lon="3.5637">
        <ele>311.12</ele>
        <time>2019-01-15T09:39:08Z</time>
      </trkpt>
      <trkpt lat="43.79054" lon="3.56369">
        <ele>311.6</ele>
        <time>2019-01-15T09:39:10Z</time>
      </trkpt>
      <trkpt lat="43.7904" lon="3.56357">
        <ele>315.45</ele>
        <time>2019-01-15T09:39:23Z</time>
      </trkpt>
      <trkpt lat="43.79028" lon="3.56348">
        <ele>319.78</ele>
        <time>2019-01-15T09:39:36Z</time>
      </trkpt>
      <trkpt lat="43.79018" lon="3.56338">
        <ele>319.3</ele>
        <time>2019-01-15T09:39:48Z</time>
      </trkpt>
      <trkpt lat="43.7901" lon="3.5633">
        <ele>320.26</ele>
        <time>2019-01-15T09:39:58Z</time>
      </trkpt>
      <trkpt lat="43.79002" lon="3.56315">
        <ele>320.26</ele>
        <time>2019-01-15T09:40:11Z</time>
      </trkpt>
      <trkpt lat="43.78991" lon="3.56307">
        <ele>321.7</ele>
        <time>2019-01-15T09:40:24Z</time>
      </trkpt>
      <trkpt lat="43.78985" lon="3.56301">
        <ele>325.06</ele>
        <time>2019-01-15T09:40:32Z</time>
      </trkpt>
      <trkpt lat="43.78977" lon="3.56291">
        <ele>325.54</ele>
        <time>2019-01-15T09:40:43Z</time>
      </trkpt>
      <trkpt lat="43.78968" lon="3.56276">
        <ele>327.47</ele>
        <time>2019-01-15T09:40:58Z</time>
      </trkpt>
      <trkpt lat="43.78958" lon="3.56263">
        <ele>327.47</ele>
        <time>2019-01-15T09:41:12Z</time>
      </trkpt>
      <trkpt lat="43.78948" lon="3.56245">
        <ele>326.5</ele>
        <time>2019-01-15T09:41:27Z</time>
      </trkpt>
      <trkpt lat="43.78943" lon="3.56224">
        <ele>324.1</ele>
        <time>2019-01-15T09:41:42Z</time>
      </trkpt>
      <trkpt lat="43.78944" lon="3.56217">
        <ele>324.1</ele>
        <time>2019-01-15T09:41:46Z</time>
      </trkpt>
      <trkpt lat="43.78945" lon="3.5621">
        <ele>323.14</ele>
        <time>2019-01-15T09:41:50Z</time>
      </trkpt>
      <trkpt lat="43.78944" lon="3.56201">
        <ele>323.62</ele>
        <time>2019-01-15T09:41:56Z</time>
      </trkpt>
      <trkpt lat="43.78934" lon="3.56183">
        <ele>324.1</ele>
        <time>2019-01-15T09:42:09Z</time>
      </trkpt>
      <trkpt lat="43.78926" lon="3.56164">
        <ele>321.7</ele>
        <time>2019-01-15T09:42:23Z</time>
      </trkpt>
      <trkpt lat="43.78921" lon="3.56162">
        <ele>327.95</ele>
        <time>2019-01-15T09:42:42Z</time>
      </trkpt>
      <trkpt lat="43.78917" lon="3.56166">
        <ele>328.43</ele>
        <time>2019-01-15T09:43:18Z</time>
      </trkpt>
      <trkpt lat="43.7892" lon="3.5616">
        <ele>329.39</ele>
        <time>2019-01-15T09:43:34Z</time>
      </trkpt>
      <trkpt lat="43.78922" lon="3.56157">
        <ele>330.35</ele>
        <time>2019-01-15T09:44:00Z</time>
      </trkpt>
      <trkpt lat="43.7892" lon="3.56149">
        <ele>327.95</ele>
        <time>2019-01-15T09:44:18Z</time>
      </trkpt>
      <trkpt lat="43.78917" lon="3.56141">
        <ele>327.47</ele>
        <time>2019-01-15T09:44:26Z</time>
      </trkpt>
      <trkpt lat="43.78908" lon="3.5613">
        <ele>328.91</ele>
        <time>2019-01-15T09:44:40Z</time>
      </trkpt>
      <trkpt lat="43.78895" lon="3.56116">
        <ele>329.87</ele>
        <time>2019-01-15T09:44:54Z</time>
      </trkpt>
      <trkpt lat="43.78883" lon="3.56103">
        <ele>330.83</ele>
        <time>2019-01-15T09:45:07Z</time>
      </trkpt>
      <trkpt lat="43.78873" lon="3.56084">
        <ele>333.23</ele>
        <time>2019-01-15T09:45:21Z</time>
      </trkpt>
      <trkpt lat="43.78864" lon="3.56068">
        <ele>336.12</ele>
        <time>2019-01-15T09:45:35Z</time>
      </trkpt>
      <trkpt lat="43.7886" lon="3.56057">
        <ele>336.12</ele>
        <time>2019-01-15T09:45:43Z</time>
      </trkpt>
      <trkpt lat="43.78856" lon="3.5604">
        <ele>335.64</ele>
        <time>2019-01-15T09:45:53Z</time>
      </trkpt>
      <trkpt lat="43.78854" lon="3.56032">
        <ele>334.68</ele>
        <time>2019-01-15T09:45:59Z</time>
      </trkpt>
      <trkpt lat="43.78851" lon="3.56006">
        <ele>334.68</ele>
        <time>2019-01-15T09:46:13Z</time>
      </trkpt>
      <trkpt lat="43.78844" lon="3.55986">
        <ele>341.89</ele>
        <time>2019-01-15T09:46:27Z</time>
      </trkpt>
      <trkpt lat="43.78844" lon="3.55982">
        <ele>342.85</ele>
        <time>2019-01-15T09:46:29Z</time>
      </trkpt>
      <trkpt lat="43.78839" lon="3.55962">
        <ele>348.13</ele>
        <time>2019-01-15T09:46:44Z</time>
      </trkpt>
      <trkpt lat="43.78834" lon="3.55947">
        <ele>349.1</ele>
        <time>2019-01-15T09:46:56Z</time>
      </trkpt>
      <trkpt lat="43.78829" lon="3.55931">
        <ele>350.54</ele>
        <time>2019-01-15T09:47:11Z</time>
      </trkpt>
      <trkpt lat="43.78818" lon="3.55915">
        <ele>349.58</ele>
        <time>2019-01-15T09:47:26Z</time>
      </trkpt>
      <trkpt lat="43.78814" lon="3.55899">
        <ele>349.58</ele>
        <time>2019-01-15T09:47:38Z</time>
      </trkpt>
      <trkpt lat="43.78812" lon="3.55897">
        <ele>350.06</ele>
        <time>2019-01-15T09:47:40Z</time>
      </trkpt>
      <trkpt lat="43.7881" lon="3.55895">
        <ele>350.06</ele>
        <time>2019-01-15T09:47:42Z</time>
      </trkpt>
      <trkpt lat="43.78799" lon="3.55879">
        <ele>352.94</ele>
        <time>2019-01-15T09:47:56Z</time>
      </trkpt>
      <trkpt lat="43.78785" lon="3.55868">
        <ele>354.86</ele>
        <time>2019-01-15T09:48:10Z</time>
      </trkpt>
      <trkpt lat="43.78776" lon="3.55854">
        <ele>357.27</ele>
        <time>2019-01-15T09:48:23Z</time>
      </trkpt>
      <trkpt lat="43.78767" lon="3.55843">
        <ele>358.71</ele>
        <time>2019-01-15T09:48:35Z</time>
      </trkpt>
      <trkpt lat="43.78758" lon="3.55831">
        <ele>359.19</ele>
        <time>2019-01-15T09:48:48Z</time>
      </trkpt>
      <trkpt lat="43.78749" lon="3.55817">
        <ele>364.96</ele>
        <time>2019-01-15T09:49:02Z</time>
      </trkpt>
      <trkpt lat="43.78744" lon="3.55812">
        <ele>365.44</ele>
        <time>2019-01-15T09:49:07Z</time>
      </trkpt>
      <trkpt lat="43.78733" lon="3.55805">
        <ele>367.36</ele>
        <time>2019-01-15T09:49:17Z</time>
      </trkpt>
      <trkpt lat="43.78723" lon="3.55795">
        <ele>373.13</ele>
        <time>2019-01-15T09:49:31Z</time>
      </trkpt>
      <trkpt lat="43.7872" lon="3.55782">
        <ele>375.53</ele>
        <time>2019-01-15T09:49:43Z</time>
      </trkpt>
      <trkpt lat="43.7872" lon="3.55765">
        <ele>376.49</ele>
        <time>2019-01-15T09:49:58Z</time>
      </trkpt>
      <trkpt lat="43.78723" lon="3.55749">
        <ele>377.94</ele>
        <time>2019-01-15T09:50:12Z</time>
      </trkpt>
      <trkpt lat="43.78722" lon="3.55733">
        <ele>379.38</ele>
        <time>2019-01-15T09:50:26Z</time>
      </trkpt>
      <trkpt lat="43.78719" lon="3.55718">
        <ele>380.82</ele>
        <time>2019-01-15T09:50:41Z</time>
      </trkpt>
      <trkpt lat="43.78719" lon="3.55699">
        <ele>381.78</ele>
        <time>2019-01-15T09:50:55Z</time>
      </trkpt>
      <trkpt lat="43.78719" lon="3.55681">
        <ele>382.74</ele>
        <time>2019-01-15T09:51:09Z</time>
      </trkpt>
      <trkpt lat="43.78721" lon="3.55657">
        <ele>386.11</ele>
        <time>2019-01-15T09:51:23Z</time>
      </trkpt>
      <trkpt lat="43.78718" lon="3.55639">
        <ele>389.47</ele>
        <time>2019-01-15T09:51:36Z</time>
      </trkpt>
      <trkpt lat="43.78708" lon="3.5562">
        <ele>392.84</ele>
        <time>2019-01-15T09:51:51Z</time>
      </trkpt>
      <trkpt lat="43.78698" lon="3.55607">
        <ele>393.32</ele>
        <time>2019-01-15T09:52:05Z</time>
      </trkpt>
      <trkpt lat="43.78692" lon="3.55595">
        <ele>394.28</ele>
        <time>2019-01-15T09:52:17Z</time>
      </trkpt>
      <trkpt lat="43.78678" lon="3.55581">
        <ele>399.08</ele>
        <time>2019-01-15T09:52:33Z</time>
      </trkpt>
      <trkpt lat="43.7867" lon="3.55566">
        <ele>399.57</ele>
        <time>2019-01-15T09:52:46Z</time>
      </trkpt>
      <trkpt lat="43.78665" lon="3.5555">
        <ele>400.53</ele>
        <time>2019-01-15T09:53:00Z</time>
      </trkpt>
      <trkpt lat="43.78661" lon="3.55532">
        <ele>402.93</ele>
        <time>2019-01-15T09:53:15Z</time>
      </trkpt>
      <trkpt lat="43.78653" lon="3.55518">
        <ele>405.33</ele>
        <time>2019-01-15T09:53:30Z</time>
      </trkpt>
      <trkpt lat="43.78648" lon="3.55499">
        <ele>408.7</ele>
        <time>2019-01-15T09:53:45Z</time>
      </trkpt>
      <trkpt lat="43.78644" lon="3.55482">
        <ele>411.58</ele>
        <time>2019-01-15T09:53:59Z</time>
      </trkpt>
      <trkpt lat="43.78638" lon="3.55472">
        <ele>412.06</ele>
        <time>2019-01-15T09:54:13Z</time>
      </trkpt>
      <trkpt lat="43.78629" lon="3.55471">
        <ele>410.14</ele>
        <time>2019-01-15T09:54:25Z</time>
      </trkpt>
      <trkpt lat="43.78627" lon="3.55472">
        <ele>412.54</ele>
        <time>2019-01-15T09:54:49Z</time>
      </trkpt>
      <trkpt lat="43.78622" lon="3.55471">
        <ele>415.43</ele>
        <time>2019-01-15T09:55:19Z</time>
      </trkpt>
      <trkpt lat="43.78619" lon="3.55471">
        <ele>415.91</ele>
        <time>2019-01-15T09:55:49Z</time>
      </trkpt>
      <trkpt lat="43.78624" lon="3.55468">
        <ele>415.91</ele>
        <time>2019-01-15T09:56:14Z</time>
      </trkpt>
      <trkpt lat="43.78626" lon="3.55468">
        <ele>417.83</ele>
        <time>2019-01-15T09:56:40Z</time>
      </trkpt>
      <trkpt lat="43.78625" lon="3.55468">
        <ele>421.19</ele>
        <time>2019-01-15T09:57:00Z</time>
      </trkpt>
      <trkpt lat="43.78622" lon="3.55466">
        <ele>423.12</ele>
        <time>2019-01-15T09:57:28Z</time>
      </trkpt>
      <trkpt lat="43.78622" lon="3.55467">
        <ele>421.19</ele>
        <time>2019-01-15T09:57:59Z</time>
      </trkpt>
      <trkpt lat="43.78628" lon="3.55472">
        <ele>420.71</ele>
        <time>2019-01-15T09:58:23Z</time>
      </trkpt>
      <trkpt lat="43.78636" lon="3.55477">
        <ele>421.68</ele>
        <time>2019-01-15T09:58:54Z</time>
      </trkpt>
      <trkpt lat="43.78633" lon="3.55475">
        <ele>421.68</ele>
        <time>2019-01-15T09:59:24Z</time>
      </trkpt>
      <trkpt lat="43.78629" lon="3.5546">
        <ele>419.27</ele>
        <time>2019-01-15T09:59:37Z</time>
      </trkpt>
      <trkpt lat="43.78628" lon="3.55442">
        <ele>421.68</ele>
        <time>2019-01-15T09:59:52Z</time>
      </trkpt>
      <trkpt lat="43.78625" lon="3.55425">
        <ele>425.04</ele>
        <time>2019-01-15T10:00:07Z</time>
      </trkpt>
      <trkpt lat="43.78622" lon="3.55412">
        <ele>429.85</ele>
        <time>2019-01-15T10:00:20Z</time>
      </trkpt>
      <trkpt lat="43.78614" lon="3.55387">
        <ele>429.85</ele>
        <time>2019-01-15T10:00:36Z</time>
      </trkpt>
      <trkpt lat="43.78608" lon="3.55374">
        <ele>430.81</ele>
        <time>2019-01-15T10:00:49Z</time>
      </trkpt>
      <trkpt lat="43.78601" lon="3.55358">
        <ele>431.29</ele>
        <time>2019-01-15T10:01:03Z</time>
      </trkpt>
      <trkpt lat="43.78598" lon="3.55337">
        <ele>432.73</ele>
        <time>2019-01-15T10:01:19Z</time>
      </trkpt>
      <trkpt lat="43.78593" lon="3.55321">
        <ele>430.81</ele>
        <time>2019-01-15T10:01:34Z</time>
      </trkpt>
      <trkpt lat="43.78589" lon="3.55307">
        <ele>430.33</ele>
        <time>2019-01-15T10:01:47Z</time>
      </trkpt>
      <trkpt lat="43.78582" lon="3.55289">
        <ele>429.85</ele>
        <time>2019-01-15T10:02:03Z</time>
      </trkpt>
      <trkpt lat="43.78575" lon="3.55274">
        <ele>430.33</ele>
        <time>2019-01-15T10:02:14Z</time>
      </trkpt>
      <trkpt lat="43.78564" lon="3.55257">
        <ele>432.73</ele>
        <time>2019-01-15T10:02:29Z</time>
      </trkpt>
      <trkpt lat="43.78559" lon="3.55244">
        <ele>434.65</ele>
        <time>2019-01-15T10:02:41Z</time>
      </trkpt>
      <trkpt lat="43.78555" lon="3.55214">
        <ele>441.86</ele>
        <time>2019-01-15T10:02:55Z</time>
      </trkpt>
      <trkpt lat="43.7855" lon="3.55194">
        <ele>450.03</ele>
        <time>2019-01-15T10:03:08Z</time>
      </trkpt>
      <trkpt lat="43.78547" lon="3.55188">
        <ele>451.48</ele>
        <time>2019-01-15T10:03:13Z</time>
      </trkpt>
      <trkpt lat="43.78539" lon="3.55177">
        <ele>452.44</ele>
        <time>2019-01-15T10:03:24Z</time>
      </trkpt>
      <trkpt lat="43.78535" lon="3.5517">
        <ele>454.36</ele>
        <time>2019-01-15T10:03:30Z</time>
      </trkpt>
      <trkpt lat="43.78533" lon="3.55168">
        <ele>454.84</ele>
        <time>2019-01-15T10:03:32Z</time>
      </trkpt>
      <trkpt lat="43.78516" lon="3.55156">
        <ele>456.28</ele>
        <time>2019-01-15T10:03:47Z</time>
      </trkpt>
      <trkpt lat="43.7851" lon="3.55141">
        <ele>455.8</ele>
        <time>2019-01-15T10:04:00Z</time>
      </trkpt>
      <trkpt lat="43.78503" lon="3.55127">
        <ele>456.28</ele>
        <time>2019-01-15T10:04:11Z</time>
      </trkpt>
      <trkpt lat="43.78493" lon="3.55113">
        <ele>458.21</ele>
        <time>2019-01-15T10:04:23Z</time>
      </trkpt>
      <trkpt lat="43.78484" lon="3.55096">
        <ele>459.17</ele>
        <time>2019-01-15T10:04:36Z</time>
      </trkpt>
      <trkpt lat="43.78474" lon="3.55069">
        <ele>460.13</ele>
        <time>2019-01-15T10:04:51Z</time>
      </trkpt>
      <trkpt lat="43.78464" lon="3.55057">
        <ele>463.49</ele>
        <time>2019-01-15T10:05:04Z</time>
      </trkpt>
      <trkpt lat="43.78455" lon="3.55044">
        <ele>463.01</ele>
        <time>2019-01-15T10:05:17Z</time>
      </trkpt>
      <trkpt lat="43.78442" lon="3.55031">
        <ele>463.01</ele>
        <time>2019-01-15T10:05:30Z</time>
      </trkpt>
      <trkpt lat="43.78435" lon="3.55016">
        <ele>464.45</ele>
        <time>2019-01-15T10:05:42Z</time>
      </trkpt>
      <trkpt lat="43.78423" lon="3.54999">
        <ele>466.38</ele>
        <time>2019-01-15T10:05:56Z</time>
      </trkpt>
      <trkpt lat="43.78413" lon="3.54979">
        <ele>466.86</ele>
        <time>2019-01-15T10:06:13Z</time>
      </trkpt>
      <trkpt lat="43.78406" lon="3.54958">
        <ele>468.3</ele>
        <time>2019-01-15T10:06:27Z</time>
      </trkpt>
      <trkpt lat="43.78398" lon="3.54936">
        <ele>467.34</ele>
        <time>2019-01-15T10:06:41Z</time>
      </trkpt>
      <trkpt lat="43.7839" lon="3.54917">
        <ele>468.78</ele>
        <time>2019-01-15T10:06:56Z</time>
      </trkpt>
      <trkpt lat="43.78381" lon="3.54895">
        <ele>473.11</ele>
        <time>2019-01-15T10:07:09Z</time>
      </trkpt>
      <trkpt lat="43.78369" lon="3.54881">
        <ele>475.03</ele>
        <time>2019-01-15T10:07:23Z</time>
      </trkpt>
      <trkpt lat="43.78362" lon="3.54862">
        <ele>479.84</ele>
        <time>2019-01-15T10:07:37Z</time>
      </trkpt>
      <trkpt lat="43.78353" lon="3.54841">
        <ele>482.72</ele>
        <time>2019-01-15T10:07:49Z</time>
      </trkpt>
      <trkpt lat="43.78349" lon="3.54836">
        <ele>483.68</ele>
        <time>2019-01-15T10:07:53Z</time>
      </trkpt>
      <trkpt lat="43.78339" lon="3.54822">
        <ele>483.68</ele>
        <time>2019-01-15T10:08:03Z</time>
      </trkpt>
      <trkpt lat="43.78324" lon="3.54806">
        <ele>485.12</ele>
        <time>2019-01-15T10:08:17Z</time>
      </trkpt>
      <trkpt lat="43.78314" lon="3.54792">
        <ele>483.68</ele>
        <time>2019-01-15T10:08:29Z</time>
      </trkpt>
      <trkpt lat="43.7831" lon="3.54785">
        <ele>483.2</ele>
        <time>2019-01-15T10:08:34Z</time>
      </trkpt>
      <trkpt lat="43.78296" lon="3.54767">
        <ele>483.2</ele>
        <time>2019-01-15T10:08:49Z</time>
      </trkpt>
      <trkpt lat="43.7829" lon="3.54759">
        <ele>484.64</ele>
        <time>2019-01-15T10:08:56Z</time>
      </trkpt>
      <trkpt lat="43.78285" lon="3.54754">
        <ele>483.68</ele>
        <time>2019-01-15T10:09:02Z</time>
      </trkpt>
      <trkpt lat="43.78276" lon="3.54732">
        <ele>482.72</ele>
        <time>2019-01-15T10:09:15Z</time>
      </trkpt>
      <trkpt lat="43.78274" lon="3.54728">
        <ele>482.24</ele>
        <time>2019-01-15T10:09:18Z</time>
      </trkpt>
      <trkpt lat="43.78271" lon="3.54723">
        <ele>481.28</ele>
        <time>2019-01-15T10:09:21Z</time>
      </trkpt>
      <trkpt lat="43.78263" lon="3.54705">
        <ele>479.84</ele>
        <time>2019-01-15T10:09:34Z</time>
      </trkpt>
      <trkpt lat="43.78254" lon="3.54686">
        <ele>479.35</ele>
        <time>2019-01-15T10:09:48Z</time>
      </trkpt>
      <trkpt lat="43.78247" lon="3.54675">
        <ele>479.35</ele>
        <time>2019-01-15T10:09:57Z</time>
      </trkpt>
      <trkpt lat="43.78245" lon="3.54671">
        <ele>479.35</ele>
        <time>2019-01-15T10:10:00Z</time>
      </trkpt>
      <trkpt lat="43.78236" lon="3.54654">
        <ele>479.84</ele>
        <time>2019-01-15T10:10:13Z</time>
      </trkpt>
      <trkpt lat="43.78226" lon="3.54639">
        <ele>480.32</ele>
        <time>2019-01-15T10:10:26Z</time>
      </trkpt>
      <trkpt lat="43.78225" lon="3.54637">
        <ele>480.8</ele>
        <time>2019-01-15T10:10:28Z</time>
      </trkpt>
      <trkpt lat="43.78224" lon="3.54632">
        <ele>481.28</ele>
        <time>2019-01-15T10:10:31Z</time>
      </trkpt>
      <trkpt lat="43.78213" lon="3.54616">
        <ele>482.72</ele>
        <time>2019-01-15T10:10:44Z</time>
      </trkpt>
      <trkpt lat="43.782" lon="3.54596">
        <ele>488.01</ele>
        <time>2019-01-15T10:11:00Z</time>
      </trkpt>
      <trkpt lat="43.78188" lon="3.54575">
        <ele>490.41</ele>
        <time>2019-01-15T10:11:16Z</time>
      </trkpt>
      <trkpt lat="43.78179" lon="3.54564">
        <ele>488.97</ele>
        <time>2019-01-15T10:11:25Z</time>
      </trkpt>
      <trkpt lat="43.78174" lon="3.54559">
        <ele>490.41</ele>
        <time>2019-01-15T10:11:30Z</time>
      </trkpt>
      <trkpt lat="43.7816" lon="3.54549">
        <ele>493.77</ele>
        <time>2019-01-15T10:11:44Z</time>
      </trkpt>
      <trkpt lat="43.78158" lon="3.54545">
        <ele>493.29</ele>
        <time>2019-01-15T10:11:48Z</time>
      </trkpt>
      <trkpt lat="43.78144" lon="3.5453">
        <ele>494.26</ele>
        <time>2019-01-15T10:12:02Z</time>
      </trkpt>
      <trkpt lat="43.78133" lon="3.54517">
        <ele>496.66</ele>
        <time>2019-01-15T10:12:15Z</time>
      </trkpt>
      <trkpt lat="43.78129" lon="3.54512">
        <ele>497.14</ele>
        <time>2019-01-15T10:12:20Z</time>
      </trkpt>
      <trkpt lat="43.78122" lon="3.54507">
        <ele>497.62</ele>
        <time>2019-01-15T10:12:26Z</time>
      </trkpt>
      <trkpt lat="43.78109" lon="3.5449">
        <ele>498.58</ele>
        <time>2019-01-15T10:12:43Z</time>
      </trkpt>
      <trkpt lat="43.78104" lon="3.54484">
        <ele>499.54</ele>
        <time>2019-01-15T10:12:49Z</time>
      </trkpt>
      <trkpt lat="43.78094" lon="3.54473">
        <ele>503.39</ele>
        <time>2019-01-15T10:13:01Z</time>
      </trkpt>
      <trkpt lat="43.78082" lon="3.54453">
        <ele>505.31</ele>
        <time>2019-01-15T10:13:16Z</time>
      </trkpt>
      <trkpt lat="43.78076" lon="3.54444">
        <ele>506.75</ele>
        <time>2019-01-15T10:13:24Z</time>
      </trkpt>
      <trkpt lat="43.78071" lon="3.5444">
        <ele>506.75</ele>
        <time>2019-01-15T10:13:30Z</time>
      </trkpt>
      <trkpt lat="43.78059" lon="3.54429">
        <ele>509.64</ele>
        <time>2019-01-15T10:13:44Z</time>
      </trkpt>
      <trkpt lat="43.78053" lon="3.54424">
        <ele>509.64</ele>
        <time>2019-01-15T10:13:52Z</time>
      </trkpt>
      <trkpt lat="43.78044" lon="3.54417">
        <ele>510.6</ele>
        <time>2019-01-15T10:14:02Z</time>
      </trkpt>
      <trkpt lat="43.78036" lon="3.54401">
        <ele>511.08</ele>
        <time>2019-01-15T10:14:16Z</time>
      </trkpt>
      <trkpt lat="43.7803" lon="3.54385">
        <ele>515.4</ele>
        <time>2019-01-15T10:14:32Z</time>
      </trkpt>
      <trkpt lat="43.78025" lon="3.54364">
        <ele>518.29</ele>
        <time>2019-01-15T10:14:48Z</time>
      </trkpt>
      <trkpt lat="43.78022" lon="3.54363">
        <ele>519.73</ele>
        <time>2019-01-15T10:15:02Z</time>
      </trkpt>
      <trkpt lat="43.78022" lon="3.54363">
        <ele>518.77</ele>
        <time>2019-01-15T10:15:33Z</time>
      </trkpt>
      <trkpt lat="43.7802" lon="3.54365">
        <ele>520.21</ele>
        <time>2019-01-15T10:15:46Z</time>
      </trkpt>
      <trkpt lat="43.78021" lon="3.54364">
        <ele>520.21</ele>
        <time>2019-01-15T10:16:08Z</time>
      </trkpt>
      <trkpt lat="43.7802" lon="3.54369">
        <ele>520.21</ele>
        <time>2019-01-15T10:16:22Z</time>
      </trkpt>
      <trkpt lat="43.78019" lon="3.54393">
        <ele>520.69</ele>
        <time>2019-01-15T10:16:37Z</time>
      </trkpt>
      <trkpt lat="43.78021" lon="3.54418">
        <ele>521.65</ele>
        <time>2019-01-15T10:16:53Z</time>
      </trkpt>
      <trkpt lat="43.78027" lon="3.54434">
        <ele>521.65</ele>
        <time>2019-01-15T10:17:03Z</time>
      </trkpt>
      <trkpt lat="43.7803" lon="3.54447">
        <ele>520.69</ele>
        <time>2019-01-15T10:17:12Z</time>
      </trkpt>
      <trkpt lat="43.78031" lon="3.54452">
        <ele>520.21</ele>
        <time>2019-01-15T10:17:20Z</time>
      </trkpt>
      <trkpt lat="43.78029" lon="3.54454">
        <ele>520.69</ele>
        <time>2019-01-15T10:17:23Z</time>
      </trkpt>
      <trkpt lat="43.78021" lon="3.54448">
        <ele>524.06</ele>
        <time>2019-01-15T10:17:32Z</time>
      </trkpt>
      <trkpt lat="43.78011" lon="3.54429">
        <ele>527.42</ele>
        <time>2019-01-15T10:17:48Z</time>
      </trkpt>
      <trkpt lat="43.78007" lon="3.54421">
        <ele>527.42</ele>
        <time>2019-01-15T10:17:55Z</time>
      </trkpt>
      <trkpt lat="43.77998" lon="3.54403">
        <ele>529.82</ele>
        <time>2019-01-15T10:18:10Z</time>
      </trkpt>
      <trkpt lat="43.77995" lon="3.54378">
        <ele>533.19</ele>
        <time>2019-01-15T10:18:28Z</time>
      </trkpt>
      <trkpt lat="43.77992" lon="3.54358">
        <ele>536.07</ele>
        <time>2019-01-15T10:18:43Z</time>
      </trkpt>
      <trkpt lat="43.77985" lon="3.54336">
        <ele>536.07</ele>
        <time>2019-01-15T10:18:57Z</time>
      </trkpt>
      <trkpt lat="43.7798" lon="3.54321">
        <ele>535.59</ele>
        <time>2019-01-15T10:19:07Z</time>
      </trkpt>
      <trkpt lat="43.77975" lon="3.54302">
        <ele>535.11</ele>
        <time>2019-01-15T10:19:21Z</time>
      </trkpt>
      <trkpt lat="43.7797" lon="3.5429">
        <ele>535.11</ele>
        <time>2019-01-15T10:19:30Z</time>
      </trkpt>
      <trkpt lat="43.77968" lon="3.54288">
        <ele>535.59</ele>
        <time>2019-01-15T10:19:32Z</time>
      </trkpt>
      <trkpt lat="43.77966" lon="3.54266">
        <ele>537.99</ele>
        <time>2019-01-15T10:19:51Z</time>
      </trkpt>
      <trkpt lat="43.77968" lon="3.54253">
        <ele>541.36</ele>
        <time>2019-01-15T10:20:08Z</time>
      </trkpt>
      <trkpt lat="43.7797" lon="3.54236">
        <ele>542.32</ele>
        <time>2019-01-15T10:20:23Z</time>
      </trkpt>
      <trkpt lat="43.7797" lon="3.5422">
        <ele>543.76</ele>
        <time>2019-01-15T10:20:38Z</time>
      </trkpt>
      <trkpt lat="43.77968" lon="3.54203">
        <ele>543.76</ele>
        <time>2019-01-15T10:20:54Z</time>
      </trkpt>
      <trkpt lat="43.77964" lon="3.54185">
        <ele>546.17</ele>
        <time>2019-01-15T10:21:10Z</time>
      </trkpt>
      <trkpt lat="43.7796" lon="3.5417">
        <ele>548.57</ele>
        <time>2019-01-15T10:21:24Z</time>
      </trkpt>
      <trkpt lat="43.77955" lon="3.54157">
        <ele>549.53</ele>
        <time>2019-01-15T10:21:38Z</time>
      </trkpt>
      <trkpt lat="43.77951" lon="3.54151">
        <ele>548.57</ele>
        <time>2019-01-15T10:21:45Z</time>
      </trkpt>
      <trkpt lat="43.7794" lon="3.5413">
        <ele>549.05</ele>
        <time>2019-01-15T10:22:01Z</time>
      </trkpt>
      <trkpt lat="43.77932" lon="3.54115">
        <ele>550.97</ele>
        <time>2019-01-15T10:22:13Z</time>
      </trkpt>
      <trkpt lat="43.77921" lon="3.54093">
        <ele>551.93</ele>
        <time>2019-01-15T10:22:29Z</time>
      </trkpt>
      <trkpt lat="43.77909" lon="3.54072">
        <ele>552.41</ele>
        <time>2019-01-15T10:22:46Z</time>
      </trkpt>
      <trkpt lat="43.77895" lon="3.54051">
        <ele>553.38</ele>
        <time>2019-01-15T10:23:03Z</time>
      </trkpt>
      <trkpt lat="43.77882" lon="3.54038">
        <ele>555.78</ele>
        <time>2019-01-15T10:23:18Z</time>
      </trkpt>
      <trkpt lat="43.77881" lon="3.54036">
        <ele>556.26</ele>
        <time>2019-01-15T10:23:30Z</time>
      </trkpt>
      <trkpt lat="43.77873" lon="3.5403">
        <ele>555.3</ele>
        <time>2019-01-15T10:23:48Z</time>
      </trkpt>
      <trkpt lat="43.77857" lon="3.54012">
        <ele>552.9</ele>
        <time>2019-01-15T10:24:03Z</time>
      </trkpt>
      <trkpt lat="43.7784" lon="3.53993">
        <ele>552.41</ele>
        <time>2019-01-15T10:24:19Z</time>
      </trkpt>
      <trkpt lat="43.77828" lon="3.5398">
        <ele>549.53</ele>
        <time>2019-01-15T10:24:32Z</time>
      </trkpt>
      <trkpt lat="43.77813" lon="3.53961">
        <ele>544.72</ele>
        <time>2019-01-15T10:24:48Z</time>
      </trkpt>
      <trkpt lat="43.77809" lon="3.53956">
        <ele>543.76</ele>
        <time>2019-01-15T10:24:52Z</time>
      </trkpt>
      <trkpt lat="43.77791" lon="3.53948">
        <ele>541.36</ele>
        <time>2019-01-15T10:25:06Z</time>
      </trkpt>
      <trkpt lat="43.77789" lon="3.53948">
        <ele>540.88</ele>
        <time>2019-01-15T10:25:07Z</time>
      </trkpt>
      <trkpt lat="43.77771" lon="3.53949">
        <ele>540.88</ele>
        <time>2019-01-15T10:25:22Z</time>
      </trkpt>
      <trkpt lat="43.77769" lon="3.53948">
        <ele>540.4</ele>
        <time>2019-01-15T10:25:24Z</time>
      </trkpt>
      <trkpt lat="43.77764" lon="3.53953">
        <ele>540.4</ele>
        <time>2019-01-15T10:25:37Z</time>
      </trkpt>
      <trkpt lat="43.77762" lon="3.53952">
        <ele>541.36</ele>
        <time>2019-01-15T10:25:47Z</time>
      </trkpt>
      <trkpt lat="43.77759" lon="3.5395">
        <ele>541.36</ele>
        <time>2019-01-15T10:26:00Z</time>
      </trkpt>
      <trkpt lat="43.77768" lon="3.5396">
        <ele>542.8</ele>
        <time>2019-01-15T10:26:15Z</time>
      </trkpt>
      <trkpt lat="43.77771" lon="3.53961">
        <ele>543.28</ele>
        <time>2019-01-15T10:26:28Z</time>
      </trkpt>
      <trkpt lat="43.77771" lon="3.5396">
        <ele>543.76</ele>
        <time>2019-01-15T10:26:44Z</time>
      </trkpt>
      <trkpt lat="43.77772" lon="3.5396">
        <ele>545.2</ele>
        <time>2019-01-15T10:27:00Z</time>
      </trkpt>
      <trkpt lat="43.77771" lon="3.53959">
        <ele>546.65</ele>
        <time>2019-01-15T10:27:15Z</time>
      </trkpt>
      <trkpt lat="43.77771" lon="3.53959">
        <ele>544.24</ele>
        <time>2019-01-15T10:27:35Z</time>
      </trkpt>
      <trkpt lat="43.77767" lon="3.5396">
        <ele>544.24</ele>
        <time>2019-01-15T10:28:00Z</time>
      </trkpt>
      <trkpt lat="43.77767" lon="3.53962">
        <ele>545.2</ele>
        <time>2019-01-15T10:28:32Z</time>
      </trkpt>
      <trkpt lat="43.77767" lon="3.5396">
        <ele>543.76</ele>
        <time>2019-01-15T10:28:59Z</time>
      </trkpt>
      <trkpt lat="43.77767" lon="3.5396">
        <ele>543.76</ele>
        <time>2019-01-15T10:29:29Z</time>
      </trkpt>
      <trkpt lat="43.77768" lon="3.53962">
        <ele>541.84</ele>
        <time>2019-01-15T10:29:52Z</time>
      </trkpt>
      <trkpt lat="43.77767" lon="3.53962">
        <ele>543.28</ele>
        <time>2019-01-15T10:30:16Z</time>
      </trkpt>
      <trkpt lat="43.77766" lon="3.53962">
        <ele>543.28</ele>
        <time>2019-01-15T10:30:43Z</time>
      </trkpt>
      <trkpt lat="43.77768" lon="3.5396">
        <ele>541.84</ele>
        <time>2019-01-15T10:31:06Z</time>
      </trkpt>
      <trkpt lat="43.7777" lon="3.53964">
        <ele>542.32</ele>
        <time>2019-01-15T10:31:19Z</time>
      </trkpt>
      <trkpt lat="43.77776" lon="3.53984">
        <ele>544.72</ele>
        <time>2019-01-15T10:31:34Z</time>
      </trkpt>
      <trkpt lat="43.77778" lon="3.53987">
        <ele>545.69</ele>
        <time>2019-01-15T10:31:37Z</time>
      </trkpt>
      <trkpt lat="43.77778" lon="3.5399">
        <ele>546.17</ele>
        <time>2019-01-15T10:31:39Z</time>
      </trkpt>
      <trkpt lat="43.77779" lon="3.53992">
        <ele>546.17</ele>
        <time>2019-01-15T10:31:41Z</time>
      </trkpt>
      <trkpt lat="43.77781" lon="3.53998">
        <ele>546.65</ele>
        <time>2019-01-15T10:31:45Z</time>
      </trkpt>
      <trkpt lat="43.77791" lon="3.54021">
        <ele>548.57</ele>
        <time>2019-01-15T10:32:02Z</time>
      </trkpt>
      <trkpt lat="43.778" lon="3.54046">
        <ele>548.57</ele>
        <time>2019-01-15T10:32:19Z</time>
      </trkpt>
      <trkpt lat="43.77808" lon="3.5407">
        <ele>550.49</ele>
        <time>2019-01-15T10:32:36Z</time>
      </trkpt>
      <trkpt lat="43.77817" lon="3.54093">
        <ele>552.9</ele>
        <time>2019-01-15T10:32:52Z</time>
      </trkpt>
      <trkpt lat="43.77827" lon="3.54118">
        <ele>554.34</ele>
        <time>2019-01-15T10:33:10Z</time>
      </trkpt>
      <trkpt lat="43.77834" lon="3.54131">
        <ele>554.34</ele>
        <time>2019-01-15T10:33:20Z</time>
      </trkpt>
      <trkpt lat="43.77843" lon="3.54155">
        <ele>554.82</ele>
        <time>2019-01-15T10:33:36Z</time>
      </trkpt>
      <trkpt lat="43.77848" lon="3.54173">
        <ele>555.78</ele>
        <time>2019-01-15T10:33:50Z</time>
      </trkpt>
      <trkpt lat="43.77847" lon="3.54182">
        <ele>556.74</ele>
        <time>2019-01-15T10:33:57Z</time>
      </trkpt>
      <trkpt lat="43.7784" lon="3.54194">
        <ele>556.74</ele>
        <time>2019-01-15T10:34:12Z</time>
      </trkpt>
      <trkpt lat="43.77846" lon="3.54205">
        <ele>557.7</ele>
        <time>2019-01-15T10:34:25Z</time>
      </trkpt>
      <trkpt lat="43.77845" lon="3.54208">
        <ele>557.7</ele>
        <time>2019-01-15T10:34:27Z</time>
      </trkpt>
      <trkpt lat="43.77844" lon="3.54211">
        <ele>557.22</ele>
        <time>2019-01-15T10:34:29Z</time>
      </trkpt>
      <trkpt lat="43.77831" lon="3.54223">
        <ele>559.14</ele>
        <time>2019-01-15T10:34:46Z</time>
      </trkpt>
      <trkpt lat="43.77829" lon="3.54231">
        <ele>561.55</ele>
        <time>2019-01-15T10:34:58Z</time>
      </trkpt>
      <trkpt lat="43.7783" lon="3.54231">
        <ele>562.03</ele>
        <time>2019-01-15T10:35:00Z</time>
      </trkpt>
      <trkpt lat="43.77833" lon="3.54224">
        <ele>561.55</ele>
        <time>2019-01-15T10:35:09Z</time>
      </trkpt>
      <trkpt lat="43.77837" lon="3.54222">
        <ele>561.07</ele>
        <time>2019-01-15T10:35:13Z</time>
      </trkpt>
      <trkpt lat="43.77838" lon="3.54223">
        <ele>560.59</ele>
        <time>2019-01-15T10:35:15Z</time>
      </trkpt>
      <trkpt lat="43.77841" lon="3.54241">
        <ele>560.59</ele>
        <time>2019-01-15T10:35:31Z</time>
      </trkpt>
      <trkpt lat="43.77847" lon="3.54262">
        <ele>561.55</ele>
        <time>2019-01-15T10:35:47Z</time>
      </trkpt>
      <trkpt lat="43.77851" lon="3.54277">
        <ele>562.51</ele>
        <time>2019-01-15T10:36:01Z</time>
      </trkpt>
      <trkpt lat="43.7785" lon="3.5428">
        <ele>562.99</ele>
        <time>2019-01-15T10:36:17Z</time>
      </trkpt>
      <trkpt lat="43.77849" lon="3.54284">
        <ele>563.47</ele>
        <time>2019-01-15T10:36:30Z</time>
      </trkpt>
      <trkpt lat="43.77855" lon="3.5429">
        <ele>563.47</ele>
        <time>2019-01-15T10:36:50Z</time>
      </trkpt>
      <trkpt lat="43.77858" lon="3.54291">
        <ele>563.47</ele>
        <time>2019-01-15T10:37:12Z</time>
      </trkpt>
      <trkpt lat="43.77856" lon="3.5429">
        <ele>564.43</ele>
        <time>2019-01-15T10:37:28Z</time>
      </trkpt>
      <trkpt lat="43.77858" lon="3.54298">
        <ele>565.39</ele>
        <time>2019-01-15T10:37:38Z</time>
      </trkpt>
      <trkpt lat="43.77862" lon="3.54307">
        <ele>565.39</ele>
        <time>2019-01-15T10:37:53Z</time>
      </trkpt>
      <trkpt lat="43.77864" lon="3.54313">
        <ele>565.39</ele>
        <time>2019-01-15T10:38:02Z</time>
      </trkpt>
      <trkpt lat="43.77872" lon="3.54341">
        <ele>565.87</ele>
        <time>2019-01-15T10:38:21Z</time>
      </trkpt>
      <trkpt lat="43.77881" lon="3.54369">
        <ele>566.83</ele>
        <time>2019-01-15T10:38:39Z</time>
      </trkpt>
      <trkpt lat="43.77888" lon="3.54394">
        <ele>567.32</ele>
        <time>2019-01-15T10:38:57Z</time>
      </trkpt>
      <trkpt lat="43.77894" lon="3.54424">
        <ele>566.35</ele>
        <time>2019-01-15T10:39:16Z</time>
      </trkpt>
      <trkpt lat="43.77896" lon="3.54431">
        <ele>567.32</ele>
        <time>2019-01-15T10:39:20Z</time>
      </trkpt>
      <trkpt lat="43.77897" lon="3.54449">
        <ele>568.28</ele>
        <time>2019-01-15T10:39:31Z</time>
      </trkpt>
      <trkpt lat="43.7789" lon="3.5448">
        <ele>570.68</ele>
        <time>2019-01-15T10:39:50Z</time>
      </trkpt>
      <trkpt lat="43.77886" lon="3.54515">
        <ele>571.64</ele>
        <time>2019-01-15T10:40:09Z</time>
      </trkpt>
      <trkpt lat="43.77892" lon="3.5454">
        <ele>572.12</ele>
        <time>2019-01-15T10:40:24Z</time>
      </trkpt>
      <trkpt lat="43.77907" lon="3.54564">
        <ele>571.16</ele>
        <time>2019-01-15T10:40:41Z</time>
      </trkpt>
      <trkpt lat="43.77918" lon="3.54587">
        <ele>570.68</ele>
        <time>2019-01-15T10:40:56Z</time>
      </trkpt>
      <trkpt lat="43.77928" lon="3.5461">
        <ele>570.2</ele>
        <time>2019-01-15T10:41:11Z</time>
      </trkpt>
      <trkpt lat="43.7793" lon="3.54641">
        <ele>569.72</ele>
        <time>2019-01-15T10:41:29Z</time>
      </trkpt>
      <trkpt lat="43.7792" lon="3.5467">
        <ele>571.16</ele>
        <time>2019-01-15T10:41:47Z</time>
      </trkpt>
      <trkpt lat="43.77909" lon="3.547">
        <ele>570.68</ele>
        <time>2019-01-15T10:42:05Z</time>
      </trkpt>
      <trkpt lat="43.77904" lon="3.54728">
        <ele>569.72</ele>
        <time>2019-01-15T10:42:20Z</time>
      </trkpt>
      <trkpt lat="43.77908" lon="3.54761">
        <ele>568.28</ele>
        <time>2019-01-15T10:42:38Z</time>
      </trkpt>
      <trkpt lat="43.7792" lon="3.54784">
        <ele>565.87</ele>
        <time>2019-01-15T10:42:53Z</time>
      </trkpt>
      <trkpt lat="43.77923" lon="3.54791">
        <ele>566.35</ele>
        <time>2019-01-15T10:42:57Z</time>
      </trkpt>
      <trkpt lat="43.77936" lon="3.54817">
        <ele>568.28</ele>
        <time>2019-01-15T10:43:14Z</time>
      </trkpt>
      <trkpt lat="43.77948" lon="3.54843">
        <ele>569.24</ele>
        <time>2019-01-15T10:43:31Z</time>
      </trkpt>
      <trkpt lat="43.77958" lon="3.54872">
        <ele>568.76</ele>
        <time>2019-01-15T10:43:49Z</time>
      </trkpt>
      <trkpt lat="43.77969" lon="3.54897">
        <ele>569.24</ele>
        <time>2019-01-15T10:44:06Z</time>
      </trkpt>
      <trkpt lat="43.77981" lon="3.54919">
        <ele>569.72</ele>
        <time>2019-01-15T10:44:21Z</time>
      </trkpt>
      <trkpt lat="43.77991" lon="3.54939">
        <ele>570.2</ele>
        <time>2019-01-15T10:44:35Z</time>
      </trkpt>
      <trkpt lat="43.77996" lon="3.54947">
        <ele>570.68</ele>
        <time>2019-01-15T10:44:41Z</time>
      </trkpt>
      <trkpt lat="43.78008" lon="3.54975">
        <ele>573.08</ele>
        <time>2019-01-15T10:44:59Z</time>
      </trkpt>
      <trkpt lat="43.7802" lon="3.54998">
        <ele>575.49</ele>
        <time>2019-01-15T10:45:16Z</time>
      </trkpt>
      <trkpt lat="43.78036" lon="3.55019">
        <ele>576.45</ele>
        <time>2019-01-15T10:45:33Z</time>
      </trkpt>
      <trkpt lat="43.78052" lon="3.55036">
        <ele>576.93</ele>
        <time>2019-01-15T10:45:49Z</time>
      </trkpt>
      <trkpt lat="43.78059" lon="3.55047">
        <ele>577.41</ele>
        <time>2019-01-15T10:45:57Z</time>
      </trkpt>
      <trkpt lat="43.78078" lon="3.55065">
        <ele>578.85</ele>
        <time>2019-01-15T10:46:14Z</time>
      </trkpt>
      <trkpt lat="43.78091" lon="3.55082">
        <ele>579.81</ele>
        <time>2019-01-15T10:46:28Z</time>
      </trkpt>
      <trkpt lat="43.78102" lon="3.55108">
        <ele>578.37</ele>
        <time>2019-01-15T10:46:44Z</time>
      </trkpt>
      <trkpt lat="43.78108" lon="3.5514">
        <ele>577.41</ele>
        <time>2019-01-15T10:47:02Z</time>
      </trkpt>
      <trkpt lat="43.78111" lon="3.55173">
        <ele>575.97</ele>
        <time>2019-01-15T10:47:20Z</time>
      </trkpt>
      <trkpt lat="43.78108" lon="3.5521">
        <ele>575.97</ele>
        <time>2019-01-15T10:47:40Z</time>
      </trkpt>
      <trkpt lat="43.7809" lon="3.55237">
        <ele>574.04</ele>
        <time>2019-01-15T10:48:00Z</time>
      </trkpt>
      <trkpt lat="43.78074" lon="3.55257">
        <ele>572.6</ele>
        <time>2019-01-15T10:48:17Z</time>
      </trkpt>
      <trkpt lat="43.78059" lon="3.55279">
        <ele>571.16</ele>
        <time>2019-01-15T10:48:36Z</time>
      </trkpt>
      <trkpt lat="43.78045" lon="3.55312">
        <ele>569.72</ele>
        <time>2019-01-15T10:48:56Z</time>
      </trkpt>
      <trkpt lat="43.78039" lon="3.55339">
        <ele>570.68</ele>
        <time>2019-01-15T10:49:11Z</time>
      </trkpt>
      <trkpt lat="43.7803" lon="3.55368">
        <ele>572.12</ele>
        <time>2019-01-15T10:49:29Z</time>
      </trkpt>
      <trkpt lat="43.7802" lon="3.55395">
        <ele>573.08</ele>
        <time>2019-01-15T10:49:46Z</time>
      </trkpt>
      <trkpt lat="43.7801" lon="3.55424">
        <ele>574.04</ele>
        <time>2019-01-15T10:50:03Z</time>
      </trkpt>
      <trkpt lat="43.78001" lon="3.55452">
        <ele>575.01</ele>
        <time>2019-01-15T10:50:20Z</time>
      </trkpt>
      <trkpt lat="43.77992" lon="3.55481">
        <ele>574.53</ele>
        <time>2019-01-15T10:50:38Z</time>
      </trkpt>
      <trkpt lat="43.77981" lon="3.555">
        <ele>575.49</ele>
        <time>2019-01-15T10:50:52Z</time>
      </trkpt>
      <trkpt lat="43.77976" lon="3.55501">
        <ele>575.01</ele>
        <time>2019-01-15T10:50:57Z</time>
      </trkpt>
      <trkpt lat="43.77967" lon="3.55483">
        <ele>575.97</ele>
        <time>2019-01-15T10:51:13Z</time>
      </trkpt>
      <trkpt lat="43.77959" lon="3.55462">
        <ele>575.49</ele>
        <time>2019-01-15T10:51:28Z</time>
      </trkpt>
      <trkpt lat="43.77947" lon="3.55437">
        <ele>576.93</ele>
        <time>2019-01-15T10:51:47Z</time>
      </trkpt>
      <trkpt lat="43.77937" lon="3.55415">
        <ele>578.85</ele>
        <time>2019-01-15T10:52:03Z</time>
      </trkpt>
      <trkpt lat="43.77926" lon="3.55394">
        <ele>580.29</ele>
        <time>2019-01-15T10:52:20Z</time>
      </trkpt>
      <trkpt lat="43.77915" lon="3.55373">
        <ele>583.18</ele>
        <time>2019-01-15T10:52:36Z</time>
      </trkpt>
      <trkpt lat="43.77903" lon="3.55352">
        <ele>584.62</ele>
        <time>2019-01-15T10:52:52Z</time>
      </trkpt>
      <trkpt lat="43.77889" lon="3.55336">
        <ele>585.1</ele>
        <time>2019-01-15T10:53:07Z</time>
      </trkpt>
      <trkpt lat="43.77872" lon="3.55321">
        <ele>587.02</ele>
        <time>2019-01-15T10:53:24Z</time>
      </trkpt>
      <trkpt lat="43.77857" lon="3.55309">
        <ele>588.46</ele>
        <time>2019-01-15T10:53:39Z</time>
      </trkpt>
      <trkpt lat="43.77845" lon="3.55289">
        <ele>589.91</ele>
        <time>2019-01-15T10:53:55Z</time>
      </trkpt>
      <trkpt lat="43.77835" lon="3.55282">
        <ele>591.35</ele>
        <time>2019-01-15T10:54:04Z</time>
      </trkpt>
      <trkpt lat="43.77822" lon="3.55294">
        <ele>593.75</ele>
        <time>2019-01-15T10:54:18Z</time>
      </trkpt>
      <trkpt lat="43.77822" lon="3.55314">
        <ele>594.23</ele>
        <time>2019-01-15T10:54:32Z</time>
      </trkpt>
      <trkpt lat="43.77814" lon="3.55339">
        <ele>595.19</ele>
        <time>2019-01-15T10:54:48Z</time>
      </trkpt>
      <trkpt lat="43.77799" lon="3.55361">
        <ele>597.12</ele>
        <time>2019-01-15T10:55:05Z</time>
      </trkpt>
      <trkpt lat="43.77777" lon="3.55373">
        <ele>596.64</ele>
        <time>2019-01-15T10:55:23Z</time>
      </trkpt>
      <trkpt lat="43.77754" lon="3.55382">
        <ele>597.6</ele>
        <time>2019-01-15T10:55:41Z</time>
      </trkpt>
      <trkpt lat="43.7773" lon="3.5539">
        <ele>599.52</ele>
        <time>2019-01-15T10:55:59Z</time>
      </trkpt>
      <trkpt lat="43.77707" lon="3.55392">
        <ele>600</ele>
        <time>2019-01-15T10:56:15Z</time>
      </trkpt>
      <trkpt lat="43.77685" lon="3.554">
        <ele>600</ele>
        <time>2019-01-15T10:56:32Z</time>
      </trkpt>
      <trkpt lat="43.77668" lon="3.55411">
        <ele>599.52</ele>
        <time>2019-01-15T10:56:46Z</time>
      </trkpt>
      <trkpt lat="43.77653" lon="3.55433">
        <ele>598.56</ele>
        <time>2019-01-15T10:57:04Z</time>
      </trkpt>
      <trkpt lat="43.77633" lon="3.55462">
        <ele>599.04</ele>
        <time>2019-01-15T10:57:24Z</time>
      </trkpt>
      <trkpt lat="43.77625" lon="3.55472">
        <ele>600</ele>
        <time>2019-01-15T10:57:39Z</time>
      </trkpt>
      <trkpt lat="43.77625" lon="3.55474">
        <ele>598.56</ele>
        <time>2019-01-15T10:58:04Z</time>
      </trkpt>
      <trkpt lat="43.77624" lon="3.55472">
        <ele>599.04</ele>
        <time>2019-01-15T10:58:23Z</time>
      </trkpt>
      <trkpt lat="43.77625" lon="3.5547">
        <ele>598.56</ele>
        <time>2019-01-15T10:58:41Z</time>
      </trkpt>
      <trkpt lat="43.77625" lon="3.55463">
        <ele>598.08</ele>
        <time>2019-01-15T10:58:57Z</time>
      </trkpt>
      <trkpt lat="43.77622" lon="3.55466">
        <ele>597.6</ele>
        <time>2019-01-15T10:59:23Z</time>
      </trkpt>
      <trkpt lat="43.77623" lon="3.55469">
        <ele>597.6</ele>
        <time>2019-01-15T10:59:26Z</time>
      </trkpt>
      <trkpt lat="43.77623" lon="3.55472">
        <ele>597.6</ele>
        <time>2019-01-15T10:59:43Z</time>
      </trkpt>
      <trkpt lat="43.77624" lon="3.55473">
        <ele>597.6</ele>
        <time>2019-01-15T11:00:07Z</time>
      </trkpt>
      <trkpt lat="43.77624" lon="3.55475">
        <ele>598.08</ele>
        <time>2019-01-15T11:00:30Z</time>
      </trkpt>
      <trkpt lat="43.77625" lon="3.55475">
        <ele>597.12</ele>
        <time>2019-01-15T11:01:01Z</time>
      </trkpt>
      <trkpt lat="43.7762" lon="3.55481">
        <ele>596.64</ele>
        <time>2019-01-15T11:01:15Z</time>
      </trkpt>
      <trkpt lat="43.77611" lon="3.55491">
        <ele>596.64</ele>
        <time>2019-01-15T11:01:27Z</time>
      </trkpt>
      <trkpt lat="43.7759" lon="3.55504">
        <ele>596.64</ele>
        <time>2019-01-15T11:01:46Z</time>
      </trkpt>
      <trkpt lat="43.77569" lon="3.55517">
        <ele>594.71</ele>
        <time>2019-01-15T11:02:04Z</time>
      </trkpt>
      <trkpt lat="43.77554" lon="3.55537">
        <ele>593.75</ele>
        <time>2019-01-15T11:02:20Z</time>
      </trkpt>
      <trkpt lat="43.77548" lon="3.55569">
        <ele>592.79</ele>
        <time>2019-01-15T11:02:37Z</time>
      </trkpt>
      <trkpt lat="43.77549" lon="3.55605">
        <ele>591.35</ele>
        <time>2019-01-15T11:02:55Z</time>
      </trkpt>
      <trkpt lat="43.77559" lon="3.55627">
        <ele>590.87</ele>
        <time>2019-01-15T11:03:09Z</time>
      </trkpt>
      <trkpt lat="43.77571" lon="3.55653">
        <ele>589.91</ele>
        <time>2019-01-15T11:03:26Z</time>
      </trkpt>
      <trkpt lat="43.77589" lon="3.55689">
        <ele>587.98</ele>
        <time>2019-01-15T11:03:48Z</time>
      </trkpt>
      <trkpt lat="43.77605" lon="3.55717">
        <ele>585.58</ele>
        <time>2019-01-15T11:04:06Z</time>
      </trkpt>
      <trkpt lat="43.77621" lon="3.55749">
        <ele>587.5</ele>
        <time>2019-01-15T11:04:25Z</time>
      </trkpt>
      <trkpt lat="43.77639" lon="3.55781">
        <ele>586.06</ele>
        <time>2019-01-15T11:04:44Z</time>
      </trkpt>
      <trkpt lat="43.77656" lon="3.55815">
        <ele>584.14</ele>
        <time>2019-01-15T11:05:05Z</time>
      </trkpt>
      <trkpt lat="43.77672" lon="3.55852">
        <ele>582.7</ele>
        <time>2019-01-15T11:05:26Z</time>
      </trkpt>
      <trkpt lat="43.77684" lon="3.55891">
        <ele>581.25</ele>
        <time>2019-01-15T11:05:47Z</time>
      </trkpt>
      <trkpt lat="43.77703" lon="3.55927">
        <ele>581.73</ele>
        <time>2019-01-15T11:06:09Z</time>
      </trkpt>
      <trkpt lat="43.77719" lon="3.55957">
        <ele>579.81</ele>
        <time>2019-01-15T11:06:28Z</time>
      </trkpt>
      <trkpt lat="43.77728" lon="3.55994">
        <ele>578.37</ele>
        <time>2019-01-15T11:06:48Z</time>
      </trkpt>
      <trkpt lat="43.77738" lon="3.56024">
        <ele>576.93</ele>
        <time>2019-01-15T11:07:05Z</time>
      </trkpt>
      <trkpt lat="43.77749" lon="3.56057">
        <ele>574.53</ele>
        <time>2019-01-15T11:07:24Z</time>
      </trkpt>
      <trkpt lat="43.77759" lon="3.56087">
        <ele>573.08</ele>
        <time>2019-01-15T11:07:42Z</time>
      </trkpt>
      <trkpt lat="43.77771" lon="3.56119">
        <ele>571.64</ele>
        <time>2019-01-15T11:07:59Z</time>
      </trkpt>
      <trkpt lat="43.77776" lon="3.56135">
        <ele>571.64</ele>
        <time>2019-01-15T11:08:13Z</time>
      </trkpt>
      <trkpt lat="43.77778" lon="3.56138">
        <ele>571.64</ele>
        <time>2019-01-15T11:08:16Z</time>
      </trkpt>
      <trkpt lat="43.7778" lon="3.56144">
        <ele>571.16</ele>
        <time>2019-01-15T11:08:20Z</time>
      </trkpt>
      <trkpt lat="43.77789" lon="3.56169">
        <ele>569.72</ele>
        <time>2019-01-15T11:08:35Z</time>
      </trkpt>
      <trkpt lat="43.778" lon="3.56201">
        <ele>568.28</ele>
        <time>2019-01-15T11:08:53Z</time>
      </trkpt>
      <trkpt lat="43.7781" lon="3.56227">
        <ele>568.28</ele>
        <time>2019-01-15T11:09:08Z</time>
      </trkpt>
      <trkpt lat="43.77818" lon="3.56255">
        <ele>566.83</ele>
        <time>2019-01-15T11:09:25Z</time>
      </trkpt>
      <trkpt lat="43.7782" lon="3.56264">
        <ele>566.83</ele>
        <time>2019-01-15T11:09:37Z</time>
      </trkpt>
      <trkpt lat="43.77822" lon="3.56274">
        <ele>566.83</ele>
        <time>2019-01-15T11:09:57Z</time>
      </trkpt>
      <trkpt lat="43.77827" lon="3.56296">
        <ele>566.35</ele>
        <time>2019-01-15T11:10:11Z</time>
      </trkpt>
      <trkpt lat="43.77828" lon="3.56301">
        <ele>565.87</ele>
        <time>2019-01-15T11:10:14Z</time>
      </trkpt>
      <trkpt lat="43.77828" lon="3.56305">
        <ele>565.87</ele>
        <time>2019-01-15T11:10:16Z</time>
      </trkpt>
      <trkpt lat="43.77825" lon="3.56315">
        <ele>563.47</ele>
        <time>2019-01-15T11:10:23Z</time>
      </trkpt>
      <trkpt lat="43.77821" lon="3.56314">
        <ele>562.99</ele>
        <time>2019-01-15T11:10:27Z</time>
      </trkpt>
      <trkpt lat="43.7782" lon="3.56311">
        <ele>562.51</ele>
        <time>2019-01-15T11:10:30Z</time>
      </trkpt>
      <trkpt lat="43.77816" lon="3.56285">
        <ele>556.74</ele>
        <time>2019-01-15T11:10:47Z</time>
      </trkpt>
      <trkpt lat="43.77806" lon="3.56264">
        <ele>553.86</ele>
        <time>2019-01-15T11:11:02Z</time>
      </trkpt>
      <trkpt lat="43.7779" lon="3.56241">
        <ele>551.93</ele>
        <time>2019-01-15T11:11:18Z</time>
      </trkpt>
      <trkpt lat="43.77775" lon="3.56221">
        <ele>551.45</ele>
        <time>2019-01-15T11:11:33Z</time>
      </trkpt>
      <trkpt lat="43.7776" lon="3.56197">
        <ele>550.97</ele>
        <time>2019-01-15T11:11:49Z</time>
      </trkpt>
      <trkpt lat="43.77755" lon="3.56187">
        <ele>549.05</ele>
        <time>2019-01-15T11:11:56Z</time>
      </trkpt>
      <trkpt lat="43.77742" lon="3.56159">
        <ele>547.61</ele>
        <time>2019-01-15T11:12:13Z</time>
      </trkpt>
      <trkpt lat="43.77727" lon="3.56145">
        <ele>547.61</ele>
        <time>2019-01-15T11:12:27Z</time>
      </trkpt>
      <trkpt lat="43.7771" lon="3.56146">
        <ele>547.13</ele>
        <time>2019-01-15T11:12:40Z</time>
      </trkpt>
      <trkpt lat="43.7769" lon="3.56156">
        <ele>545.2</ele>
        <time>2019-01-15T11:12:54Z</time>
      </trkpt>
      <trkpt lat="43.77677" lon="3.56164">
        <ele>542.8</ele>
        <time>2019-01-15T11:13:04Z</time>
      </trkpt>
      <trkpt lat="43.77663" lon="3.56174">
        <ele>540.88</ele>
        <time>2019-01-15T11:13:15Z</time>
      </trkpt>
      <trkpt lat="43.77656" lon="3.5617">
        <ele>538.48</ele>
        <time>2019-01-15T11:13:20Z</time>
      </trkpt>
      <trkpt lat="43.77643" lon="3.56142">
        <ele>535.11</ele>
        <time>2019-01-15T11:13:37Z</time>
      </trkpt>
      <trkpt lat="43.77643" lon="3.56115">
        <ele>536.55</ele>
        <time>2019-01-15T11:13:51Z</time>
      </trkpt>
      <trkpt lat="43.77639" lon="3.5609">
        <ele>540.4</ele>
        <time>2019-01-15T11:14:06Z</time>
      </trkpt>
      <trkpt lat="43.77619" lon="3.56074">
        <ele>537.03</ele>
        <time>2019-01-15T11:14:22Z</time>
      </trkpt>
      <trkpt lat="43.77599" lon="3.56068">
        <ele>533.67</ele>
        <time>2019-01-15T11:14:37Z</time>
      </trkpt>
      <trkpt lat="43.77584" lon="3.5605">
        <ele>531.75</ele>
        <time>2019-01-15T11:14:52Z</time>
      </trkpt>
      <trkpt lat="43.77577" lon="3.5602">
        <ele>529.82</ele>
        <time>2019-01-15T11:15:08Z</time>
      </trkpt>
      <trkpt lat="43.77563" lon="3.56002">
        <ele>527.9</ele>
        <time>2019-01-15T11:15:22Z</time>
      </trkpt>
      <trkpt lat="43.77539" lon="3.55989">
        <ele>521.65</ele>
        <time>2019-01-15T11:15:39Z</time>
      </trkpt>
      <trkpt lat="43.77516" lon="3.55978">
        <ele>517.81</ele>
        <time>2019-01-15T11:15:56Z</time>
      </trkpt>
      <trkpt lat="43.77497" lon="3.55957">
        <ele>519.73</ele>
        <time>2019-01-15T11:16:12Z</time>
      </trkpt>
      <trkpt lat="43.77484" lon="3.55935">
        <ele>521.17</ele>
        <time>2019-01-15T11:16:27Z</time>
      </trkpt>
      <trkpt lat="43.77469" lon="3.55912">
        <ele>520.69</ele>
        <time>2019-01-15T11:16:42Z</time>
      </trkpt>
      <trkpt lat="43.77444" lon="3.55902">
        <ele>519.25</ele>
        <time>2019-01-15T11:16:58Z</time>
      </trkpt>
      <trkpt lat="43.77434" lon="3.55888">
        <ele>519.73</ele>
        <time>2019-01-15T11:17:08Z</time>
      </trkpt>
      <trkpt lat="43.77431" lon="3.55864">
        <ele>516.37</ele>
        <time>2019-01-15T11:17:22Z</time>
      </trkpt>
      <trkpt lat="43.77425" lon="3.55851">
        <ele>515.88</ele>
        <time>2019-01-15T11:17:32Z</time>
      </trkpt>
      <trkpt lat="43.77419" lon="3.55854">
        <ele>516.37</ele>
        <time>2019-01-15T11:17:36Z</time>
      </trkpt>
      <trkpt lat="43.77394" lon="3.55871">
        <ele>515.88</ele>
        <time>2019-01-15T11:17:52Z</time>
      </trkpt>
      <trkpt lat="43.77366" lon="3.55885">
        <ele>521.65</ele>
        <time>2019-01-15T11:18:11Z</time>
      </trkpt>
      <trkpt lat="43.77343" lon="3.55888">
        <ele>520.21</ele>
        <time>2019-01-15T11:18:29Z</time>
      </trkpt>
      <trkpt lat="43.77341" lon="3.55888">
        <ele>522.13</ele>
        <time>2019-01-15T11:18:45Z</time>
      </trkpt>
      <trkpt lat="43.77341" lon="3.5589">
        <ele>520.69</ele>
        <time>2019-01-15T11:19:12Z</time>
      </trkpt>
      <trkpt lat="43.77333" lon="3.55894">
        <ele>521.17</ele>
        <time>2019-01-15T11:19:35Z</time>
      </trkpt>
      <trkpt lat="43.77328" lon="3.55899">
        <ele>520.21</ele>
        <time>2019-01-15T11:19:41Z</time>
      </trkpt>
      <trkpt lat="43.77328" lon="3.55916">
        <ele>517.81</ele>
        <time>2019-01-15T11:19:51Z</time>
      </trkpt>
      <trkpt lat="43.7733" lon="3.55921">
        <ele>518.29</ele>
        <time>2019-01-15T11:19:54Z</time>
      </trkpt>
      <trkpt lat="43.7734" lon="3.55938">
        <ele>518.77</ele>
        <time>2019-01-15T11:20:07Z</time>
      </trkpt>
      <trkpt lat="43.77344" lon="3.55951">
        <ele>518.77</ele>
        <time>2019-01-15T11:20:14Z</time>
      </trkpt>
      <trkpt lat="43.77344" lon="3.55966">
        <ele>519.73</ele>
        <time>2019-01-15T11:20:25Z</time>
      </trkpt>
      <trkpt lat="43.77332" lon="3.5596">
        <ele>521.65</ele>
        <time>2019-01-15T11:20:37Z</time>
      </trkpt>
      <trkpt lat="43.77328" lon="3.55958">
        <ele>522.13</ele>
        <time>2019-01-15T11:20:41Z</time>
      </trkpt>
      <trkpt lat="43.77318" lon="3.55958">
        <ele>522.61</ele>
        <time>2019-01-15T11:20:48Z</time>
      </trkpt>
      <trkpt lat="43.77297" lon="3.55971">
        <ele>525.5</ele>
        <time>2019-01-15T11:21:04Z</time>
      </trkpt>
      <trkpt lat="43.77293" lon="3.55997">
        <ele>525.98</ele>
        <time>2019-01-15T11:21:17Z</time>
      </trkpt>
      <trkpt lat="43.77301" lon="3.56024">
        <ele>523.58</ele>
        <time>2019-01-15T11:21:31Z</time>
      </trkpt>
      <trkpt lat="43.77306" lon="3.56032">
        <ele>524.06</ele>
        <time>2019-01-15T11:21:36Z</time>
      </trkpt>
      <trkpt lat="43.77313" lon="3.56035">
        <ele>524.06</ele>
        <time>2019-01-15T11:21:41Z</time>
      </trkpt>
      <trkpt lat="43.77318" lon="3.56039">
        <ele>523.09</ele>
        <time>2019-01-15T11:21:46Z</time>
      </trkpt>
      <trkpt lat="43.77323" lon="3.56045">
        <ele>523.58</ele>
        <time>2019-01-15T11:21:50Z</time>
      </trkpt>
      <trkpt lat="43.77339" lon="3.5607">
        <ele>526.46</ele>
        <time>2019-01-15T11:22:07Z</time>
      </trkpt>
      <trkpt lat="43.77335" lon="3.56097">
        <ele>524.06</ele>
        <time>2019-01-15T11:22:23Z</time>
      </trkpt>
      <trkpt lat="43.77331" lon="3.56118">
        <ele>523.09</ele>
        <time>2019-01-15T11:22:34Z</time>
      </trkpt>
      <trkpt lat="43.77332" lon="3.56124">
        <ele>523.09</ele>
        <time>2019-01-15T11:22:37Z</time>
      </trkpt>
      <trkpt lat="43.77337" lon="3.56136">
        <ele>522.61</ele>
        <time>2019-01-15T11:22:43Z</time>
      </trkpt>
      <trkpt lat="43.77342" lon="3.56148">
        <ele>522.13</ele>
        <time>2019-01-15T11:22:50Z</time>
      </trkpt>
      <trkpt lat="43.77345" lon="3.56159">
        <ele>520.69</ele>
        <time>2019-01-15T11:22:56Z</time>
      </trkpt>
      <trkpt lat="43.77345" lon="3.56168">
        <ele>520.21</ele>
        <time>2019-01-15T11:23:02Z</time>
      </trkpt>
      <trkpt lat="43.77345" lon="3.56186">
        <ele>520.21</ele>
        <time>2019-01-15T11:23:12Z</time>
      </trkpt>
      <trkpt lat="43.77349" lon="3.56194">
        <ele>519.73</ele>
        <time>2019-01-15T11:23:18Z</time>
      </trkpt>
      <trkpt lat="43.77351" lon="3.56197">
        <ele>520.69</ele>
        <time>2019-01-15T11:23:20Z</time>
      </trkpt>
      <trkpt lat="43.77352" lon="3.56202">
        <ele>520.69</ele>
        <time>2019-01-15T11:23:23Z</time>
      </trkpt>
      <trkpt lat="43.77357" lon="3.5621">
        <ele>522.13</ele>
        <time>2019-01-15T11:23:28Z</time>
      </trkpt>
      <trkpt lat="43.77358" lon="3.56216">
        <ele>523.09</ele>
        <time>2019-01-15T11:23:31Z</time>
      </trkpt>
      <trkpt lat="43.77362" lon="3.56236">
        <ele>522.61</ele>
        <time>2019-01-15T11:23:42Z</time>
      </trkpt>
      <trkpt lat="43.77363" lon="3.56258">
        <ele>523.09</ele>
        <time>2019-01-15T11:23:53Z</time>
      </trkpt>
      <trkpt lat="43.77364" lon="3.56263">
        <ele>523.09</ele>
        <time>2019-01-15T11:23:56Z</time>
      </trkpt>
      <trkpt lat="43.77364" lon="3.56285">
        <ele>522.61</ele>
        <time>2019-01-15T11:24:10Z</time>
      </trkpt>
      <trkpt lat="43.77362" lon="3.56297">
        <ele>522.61</ele>
        <time>2019-01-15T11:24:17Z</time>
      </trkpt>
      <trkpt lat="43.77362" lon="3.56302">
        <ele>522.61</ele>
        <time>2019-01-15T11:24:20Z</time>
      </trkpt>
      <trkpt lat="43.77368" lon="3.56318">
        <ele>524.06</ele>
        <time>2019-01-15T11:24:29Z</time>
      </trkpt>
      <trkpt lat="43.7737" lon="3.56319">
        <ele>524.54</ele>
        <time>2019-01-15T11:24:31Z</time>
      </trkpt>
      <trkpt lat="43.77375" lon="3.56319">
        <ele>525.5</ele>
        <time>2019-01-15T11:24:35Z</time>
      </trkpt>
      <trkpt lat="43.77397" lon="3.56308">
        <ele>531.75</ele>
        <time>2019-01-15T11:24:51Z</time>
      </trkpt>
      <trkpt lat="43.77406" lon="3.56311">
        <ele>530.3</ele>
        <time>2019-01-15T11:24:59Z</time>
      </trkpt>
      <trkpt lat="43.77404" lon="3.56332">
        <ele>530.3</ele>
        <time>2019-01-15T11:25:12Z</time>
      </trkpt>
      <trkpt lat="43.77401" lon="3.5634">
        <ele>532.23</ele>
        <time>2019-01-15T11:25:18Z</time>
      </trkpt>
      <trkpt lat="43.774" lon="3.56354">
        <ele>533.19</ele>
        <time>2019-01-15T11:25:25Z</time>
      </trkpt>
      <trkpt lat="43.774" lon="3.5636">
        <ele>532.71</ele>
        <time>2019-01-15T11:25:28Z</time>
      </trkpt>
      <trkpt lat="43.774" lon="3.56369">
        <ele>532.71</ele>
        <time>2019-01-15T11:25:33Z</time>
      </trkpt>
      <trkpt lat="43.774" lon="3.56378">
        <ele>532.23</ele>
        <time>2019-01-15T11:25:38Z</time>
      </trkpt>
      <trkpt lat="43.774" lon="3.56391">
        <ele>532.23</ele>
        <time>2019-01-15T11:25:45Z</time>
      </trkpt>
      <trkpt lat="43.77401" lon="3.56418">
        <ele>531.75</ele>
        <time>2019-01-15T11:26:00Z</time>
      </trkpt>
      <trkpt lat="43.77397" lon="3.5644">
        <ele>534.63</ele>
        <time>2019-01-15T11:26:13Z</time>
      </trkpt>
      <trkpt lat="43.77396" lon="3.56444">
        <ele>534.63</ele>
        <time>2019-01-15T11:26:15Z</time>
      </trkpt>
      <trkpt lat="43.77396" lon="3.56471">
        <ele>537.03</ele>
        <time>2019-01-15T11:26:30Z</time>
      </trkpt>
      <trkpt lat="43.77397" lon="3.56475">
        <ele>537.99</ele>
        <time>2019-01-15T11:26:32Z</time>
      </trkpt>
      <trkpt lat="43.77399" lon="3.56481">
        <ele>538.96</ele>
        <time>2019-01-15T11:26:36Z</time>
      </trkpt>
      <trkpt lat="43.77401" lon="3.56485">
        <ele>538.96</ele>
        <time>2019-01-15T11:26:38Z</time>
      </trkpt>
      <trkpt lat="43.77402" lon="3.56492">
        <ele>539.44</ele>
        <time>2019-01-15T11:26:42Z</time>
      </trkpt>
      <trkpt lat="43.77417" lon="3.56512">
        <ele>540.88</ele>
        <time>2019-01-15T11:26:57Z</time>
      </trkpt>
      <trkpt lat="43.77422" lon="3.56517">
        <ele>541.36</ele>
        <time>2019-01-15T11:27:02Z</time>
      </trkpt>
      <trkpt lat="43.77421" lon="3.56531">
        <ele>541.84</ele>
        <time>2019-01-15T11:27:12Z</time>
      </trkpt>
      <trkpt lat="43.77418" lon="3.56541">
        <ele>542.32</ele>
        <time>2019-01-15T11:27:20Z</time>
      </trkpt>
      <trkpt lat="43.77423" lon="3.56566">
        <ele>546.17</ele>
        <time>2019-01-15T11:27:35Z</time>
      </trkpt>
      <trkpt lat="43.7743" lon="3.56584">
        <ele>549.53</ele>
        <time>2019-01-15T11:27:46Z</time>
      </trkpt>
      <trkpt lat="43.77438" lon="3.56606">
        <ele>549.05</ele>
        <time>2019-01-15T11:27:59Z</time>
      </trkpt>
      <trkpt lat="43.7745" lon="3.56625">
        <ele>549.53</ele>
        <time>2019-01-15T11:28:12Z</time>
      </trkpt>
      <trkpt lat="43.77454" lon="3.56632">
        <ele>550.01</ele>
        <time>2019-01-15T11:28:17Z</time>
      </trkpt>
      <trkpt lat="43.77457" lon="3.5664">
        <ele>550.01</ele>
        <time>2019-01-15T11:28:23Z</time>
      </trkpt>
      <trkpt lat="43.77458" lon="3.56646">
        <ele>550.49</ele>
        <time>2019-01-15T11:28:27Z</time>
      </trkpt>
      <trkpt lat="43.77458" lon="3.5665">
        <ele>551.45</ele>
        <time>2019-01-15T11:28:32Z</time>
      </trkpt>
      <trkpt lat="43.77442" lon="3.56664">
        <ele>553.38</ele>
        <time>2019-01-15T11:28:49Z</time>
      </trkpt>
      <trkpt lat="43.77437" lon="3.56667">
        <ele>552.41</ele>
        <time>2019-01-15T11:28:53Z</time>
      </trkpt>
      <trkpt lat="43.77435" lon="3.56669">
        <ele>551.45</ele>
        <time>2019-01-15T11:28:55Z</time>
      </trkpt>
      <trkpt lat="43.77428" lon="3.56671">
        <ele>549.53</ele>
        <time>2019-01-15T11:29:00Z</time>
      </trkpt>
      <trkpt lat="43.77413" lon="3.56669">
        <ele>545.2</ele>
        <time>2019-01-15T11:29:10Z</time>
      </trkpt>
      <trkpt lat="43.77407" lon="3.56667">
        <ele>542.32</ele>
        <time>2019-01-15T11:29:16Z</time>
      </trkpt>
      <trkpt lat="43.77397" lon="3.56668">
        <ele>539.44</ele>
        <time>2019-01-15T11:29:23Z</time>
      </trkpt>
      <trkpt lat="43.77378" lon="3.56678">
        <ele>534.63</ele>
        <time>2019-01-15T11:29:39Z</time>
      </trkpt>
      <trkpt lat="43.77375" lon="3.56679">
        <ele>533.67</ele>
        <time>2019-01-15T11:29:41Z</time>
      </trkpt>
      <trkpt lat="43.77357" lon="3.56688">
        <ele>532.23</ele>
        <time>2019-01-15T11:29:55Z</time>
      </trkpt>
      <trkpt lat="43.77356" lon="3.5669">
        <ele>532.23</ele>
        <time>2019-01-15T11:29:56Z</time>
      </trkpt>
      <trkpt lat="43.7736" lon="3.56705">
        <ele>533.19</ele>
        <time>2019-01-15T11:30:03Z</time>
      </trkpt>
      <trkpt lat="43.7736" lon="3.5671">
        <ele>533.67</ele>
        <time>2019-01-15T11:30:05Z</time>
      </trkpt>
      <trkpt lat="43.77361" lon="3.56719">
        <ele>534.15</ele>
        <time>2019-01-15T11:30:09Z</time>
      </trkpt>
      <trkpt lat="43.7736" lon="3.5673">
        <ele>535.11</ele>
        <time>2019-01-15T11:30:14Z</time>
      </trkpt>
      <trkpt lat="43.77359" lon="3.56734">
        <ele>535.59</ele>
        <time>2019-01-15T11:30:16Z</time>
      </trkpt>
      <trkpt lat="43.77355" lon="3.5676">
        <ele>537.51</ele>
        <time>2019-01-15T11:30:30Z</time>
      </trkpt>
      <trkpt lat="43.77355" lon="3.5678">
        <ele>536.07</ele>
        <time>2019-01-15T11:30:42Z</time>
      </trkpt>
      <trkpt lat="43.77355" lon="3.56781">
        <ele>536.07</ele>
        <time>2019-01-15T11:30:43Z</time>
      </trkpt>
      <trkpt lat="43.77358" lon="3.56799">
        <ele>535.11</ele>
        <time>2019-01-15T11:30:53Z</time>
      </trkpt>
      <trkpt lat="43.77362" lon="3.56816">
        <ele>541.84</ele>
        <time>2019-01-15T11:31:01Z</time>
      </trkpt>
      <trkpt lat="43.77363" lon="3.56828">
        <ele>547.13</ele>
        <time>2019-01-15T11:31:17Z</time>
      </trkpt>
      <trkpt lat="43.77361" lon="3.56831">
        <ele>548.09</ele>
        <time>2019-01-15T11:31:30Z</time>
      </trkpt>
      <trkpt lat="43.77358" lon="3.56825">
        <ele>548.57</ele>
        <time>2019-01-15T11:31:37Z</time>
      </trkpt>
      <trkpt lat="43.77352" lon="3.56832">
        <ele>544.72</ele>
        <time>2019-01-15T11:31:49Z</time>
      </trkpt>
      <trkpt lat="43.77343" lon="3.56835">
        <ele>543.76</ele>
        <time>2019-01-15T11:32:03Z</time>
      </trkpt>
      <trkpt lat="43.77339" lon="3.56838">
        <ele>546.17</ele>
        <time>2019-01-15T11:32:20Z</time>
      </trkpt>
      <trkpt lat="43.7735" lon="3.56839">
        <ele>546.65</ele>
        <time>2019-01-15T11:32:35Z</time>
      </trkpt>
      <trkpt lat="43.77353" lon="3.56837">
        <ele>547.61</ele>
        <time>2019-01-15T11:32:41Z</time>
      </trkpt>
      <trkpt lat="43.77363" lon="3.56841">
        <ele>546.65</ele>
        <time>2019-01-15T11:32:54Z</time>
      </trkpt>
      <trkpt lat="43.77368" lon="3.56853">
        <ele>546.65</ele>
        <time>2019-01-15T11:33:06Z</time>
      </trkpt>
      <trkpt lat="43.77372" lon="3.56881">
        <ele>541.84</ele>
        <time>2019-01-15T11:33:21Z</time>
      </trkpt>
      <trkpt lat="43.77372" lon="3.56886">
        <ele>540.88</ele>
        <time>2019-01-15T11:33:25Z</time>
      </trkpt>
      <trkpt lat="43.77374" lon="3.56901">
        <ele>535.59</ele>
        <time>2019-01-15T11:33:36Z</time>
      </trkpt>
      <trkpt lat="43.77375" lon="3.56902">
        <ele>535.59</ele>
        <time>2019-01-15T11:33:37Z</time>
      </trkpt>
      <trkpt lat="43.7738" lon="3.56909">
        <ele>533.19</ele>
        <time>2019-01-15T11:33:44Z</time>
      </trkpt>
      <trkpt lat="43.77384" lon="3.56919">
        <ele>529.82</ele>
        <time>2019-01-15T11:33:52Z</time>
      </trkpt>
      <trkpt lat="43.77385" lon="3.56922">
        <ele>528.86</ele>
        <time>2019-01-15T11:33:54Z</time>
      </trkpt>
      <trkpt lat="43.77389" lon="3.56932">
        <ele>527.9</ele>
        <time>2019-01-15T11:33:59Z</time>
      </trkpt>
      <trkpt lat="43.77398" lon="3.56946">
        <ele>529.34</ele>
        <time>2019-01-15T11:34:07Z</time>
      </trkpt>
      <trkpt lat="43.77407" lon="3.56969">
        <ele>532.23</ele>
        <time>2019-01-15T11:34:20Z</time>
      </trkpt>
      <trkpt lat="43.77408" lon="3.56979">
        <ele>534.63</ele>
        <time>2019-01-15T11:34:26Z</time>
      </trkpt>
      <trkpt lat="43.77412" lon="3.56994">
        <ele>533.19</ele>
        <time>2019-01-15T11:34:32Z</time>
      </trkpt>
      <trkpt lat="43.77421" lon="3.57001">
        <ele>531.75</ele>
        <time>2019-01-15T11:34:39Z</time>
      </trkpt>
      <trkpt lat="43.77426" lon="3.57006">
        <ele>531.75</ele>
        <time>2019-01-15T11:34:45Z</time>
      </trkpt>
      <trkpt lat="43.77428" lon="3.57009">
        <ele>532.71</ele>
        <time>2019-01-15T11:34:47Z</time>
      </trkpt>
      <trkpt lat="43.77432" lon="3.5701">
        <ele>531.75</ele>
        <time>2019-01-15T11:34:50Z</time>
      </trkpt>
      <trkpt lat="43.77441" lon="3.57021">
        <ele>529.34</ele>
        <time>2019-01-15T11:35:01Z</time>
      </trkpt>
      <trkpt lat="43.77445" lon="3.57021">
        <ele>527.9</ele>
        <time>2019-01-15T11:35:14Z</time>
      </trkpt>
      <trkpt lat="43.7745" lon="3.57022">
        <ele>532.71</ele>
        <time>2019-01-15T11:35:41Z</time>
      </trkpt>
      <trkpt lat="43.77449" lon="3.57023">
        <ele>532.23</ele>
        <time>2019-01-15T11:35:58Z</time>
      </trkpt>
      <trkpt lat="43.77453" lon="3.57025">
        <ele>533.19</ele>
        <time>2019-01-15T11:36:27Z</time>
      </trkpt>
      <trkpt lat="43.77454" lon="3.57026">
        <ele>534.15</ele>
        <time>2019-01-15T11:36:49Z</time>
      </trkpt>
      <trkpt lat="43.77451" lon="3.57023">
        <ele>536.07</ele>
        <time>2019-01-15T11:37:16Z</time>
      </trkpt>
      <trkpt lat="43.77458" lon="3.57021">
        <ele>534.63</ele>
        <time>2019-01-15T11:37:37Z</time>
      </trkpt>
      <trkpt lat="43.7747" lon="3.5703">
        <ele>533.67</ele>
        <time>2019-01-15T11:37:50Z</time>
      </trkpt>
      <trkpt lat="43.77475" lon="3.57034">
        <ele>535.59</ele>
        <time>2019-01-15T11:37:56Z</time>
      </trkpt>
      <trkpt lat="43.77492" lon="3.57038">
        <ele>535.59</ele>
        <time>2019-01-15T11:38:14Z</time>
      </trkpt>
      <trkpt lat="43.77498" lon="3.57043">
        <ele>535.11</ele>
        <time>2019-01-15T11:38:21Z</time>
      </trkpt>
      <trkpt lat="43.77501" lon="3.57045">
        <ele>534.63</ele>
        <time>2019-01-15T11:38:23Z</time>
      </trkpt>
      <trkpt lat="43.77507" lon="3.57053">
        <ele>533.19</ele>
        <time>2019-01-15T11:38:30Z</time>
      </trkpt>
      <trkpt lat="43.77523" lon="3.57064">
        <ele>532.23</ele>
        <time>2019-01-15T11:38:43Z</time>
      </trkpt>
      <trkpt lat="43.77531" lon="3.57067">
        <ele>531.27</ele>
        <time>2019-01-15T11:38:50Z</time>
      </trkpt>
      <trkpt lat="43.77545" lon="3.57079">
        <ele>530.3</ele>
        <time>2019-01-15T11:39:04Z</time>
      </trkpt>
      <trkpt lat="43.77548" lon="3.5708">
        <ele>529.82</ele>
        <time>2019-01-15T11:39:07Z</time>
      </trkpt>
      <trkpt lat="43.77564" lon="3.57093">
        <ele>531.75</ele>
        <time>2019-01-15T11:39:22Z</time>
      </trkpt>
      <trkpt lat="43.77567" lon="3.57093">
        <ele>531.75</ele>
        <time>2019-01-15T11:39:25Z</time>
      </trkpt>
      <trkpt lat="43.77575" lon="3.57093">
        <ele>530.79</ele>
        <time>2019-01-15T11:39:34Z</time>
      </trkpt>
      <trkpt lat="43.77586" lon="3.57102">
        <ele>529.82</ele>
        <time>2019-01-15T11:39:47Z</time>
      </trkpt>
      <trkpt lat="43.77585" lon="3.57102">
        <ele>529.34</ele>
        <time>2019-01-15T11:39:49Z</time>
      </trkpt>
      <trkpt lat="43.77588" lon="3.57096">
        <ele>528.38</ele>
        <time>2019-01-15T11:40:01Z</time>
      </trkpt>
      <trkpt lat="43.77592" lon="3.57099">
        <ele>528.86</ele>
        <time>2019-01-15T11:40:06Z</time>
      </trkpt>
      <trkpt lat="43.77604" lon="3.57109">
        <ele>525.5</ele>
        <time>2019-01-15T11:40:22Z</time>
      </trkpt>
      <trkpt lat="43.77608" lon="3.57112">
        <ele>525.02</ele>
        <time>2019-01-15T11:40:27Z</time>
      </trkpt>
      <trkpt lat="43.77619" lon="3.57116">
        <ele>524.54</ele>
        <time>2019-01-15T11:40:37Z</time>
      </trkpt>
      <trkpt lat="43.77623" lon="3.57118">
        <ele>524.06</ele>
        <time>2019-01-15T11:40:40Z</time>
      </trkpt>
      <trkpt lat="43.77638" lon="3.57124">
        <ele>521.65</ele>
        <time>2019-01-15T11:40:54Z</time>
      </trkpt>
      <trkpt lat="43.7765" lon="3.5713">
        <ele>520.69</ele>
        <time>2019-01-15T11:41:06Z</time>
      </trkpt>
      <trkpt lat="43.77664" lon="3.57137">
        <ele>518.29</ele>
        <time>2019-01-15T11:41:19Z</time>
      </trkpt>
      <trkpt lat="43.77675" lon="3.57144">
        <ele>514.44</ele>
        <time>2019-01-15T11:41:32Z</time>
      </trkpt>
      <trkpt lat="43.77683" lon="3.57156">
        <ele>512.04</ele>
        <time>2019-01-15T11:41:45Z</time>
      </trkpt>
      <trkpt lat="43.77694" lon="3.5717">
        <ele>509.64</ele>
        <time>2019-01-15T11:41:58Z</time>
      </trkpt>
      <trkpt lat="43.77696" lon="3.57173">
        <ele>509.16</ele>
        <time>2019-01-15T11:42:00Z</time>
      </trkpt>
      <trkpt lat="43.777" lon="3.57177">
        <ele>508.67</ele>
        <time>2019-01-15T11:42:04Z</time>
      </trkpt>
      <trkpt lat="43.77705" lon="3.57181">
        <ele>507.71</ele>
        <time>2019-01-15T11:42:09Z</time>
      </trkpt>
      <trkpt lat="43.7771" lon="3.57185">
        <ele>506.27</ele>
        <time>2019-01-15T11:42:15Z</time>
      </trkpt>
      <trkpt lat="43.77725" lon="3.57191">
        <ele>501.95</ele>
        <time>2019-01-15T11:42:28Z</time>
      </trkpt>
      <trkpt lat="43.77732" lon="3.57194">
        <ele>500.98</ele>
        <time>2019-01-15T11:42:37Z</time>
      </trkpt>
      <trkpt lat="43.77739" lon="3.57194">
        <ele>500.02</ele>
        <time>2019-01-15T11:42:42Z</time>
      </trkpt>
      <trkpt lat="43.77751" lon="3.57193">
        <ele>500.02</ele>
        <time>2019-01-15T11:42:52Z</time>
      </trkpt>
      <trkpt lat="43.77768" lon="3.57189">
        <ele>500.5</ele>
        <time>2019-01-15T11:43:05Z</time>
      </trkpt>
      <trkpt lat="43.7777" lon="3.57188">
        <ele>500.98</ele>
        <time>2019-01-15T11:43:07Z</time>
      </trkpt>
      <trkpt lat="43.77786" lon="3.57187">
        <ele>501.46</ele>
        <time>2019-01-15T11:43:21Z</time>
      </trkpt>
      <trkpt lat="43.77796" lon="3.57179">
        <ele>501.46</ele>
        <time>2019-01-15T11:43:32Z</time>
      </trkpt>
      <trkpt lat="43.77814" lon="3.57179">
        <ele>500.5</ele>
        <time>2019-01-15T11:43:47Z</time>
      </trkpt>
      <trkpt lat="43.77829" lon="3.57176">
        <ele>496.66</ele>
        <time>2019-01-15T11:44:00Z</time>
      </trkpt>
      <trkpt lat="43.77835" lon="3.57177">
        <ele>493.29</ele>
        <time>2019-01-15T11:44:18Z</time>
      </trkpt>
      <trkpt lat="43.77844" lon="3.57175">
        <ele>496.66</ele>
        <time>2019-01-15T11:44:33Z</time>
      </trkpt>
      <trkpt lat="43.77847" lon="3.57173">
        <ele>493.29</ele>
        <time>2019-01-15T11:45:08Z</time>
      </trkpt>
      <trkpt lat="43.77845" lon="3.57173">
        <ele>493.29</ele>
        <time>2019-01-15T11:45:28Z</time>
      </trkpt>
      <trkpt lat="43.77845" lon="3.57173">
        <ele>493.77</ele>
        <time>2019-01-15T11:45:48Z</time>
      </trkpt>
      <trkpt lat="43.77844" lon="3.57173">
        <ele>494.26</ele>
        <time>2019-01-15T11:46:17Z</time>
      </trkpt>
      <trkpt lat="43.77844" lon="3.57171">
        <ele>493.77</ele>
        <time>2019-01-15T11:46:22Z</time>
      </trkpt>
      <trkpt lat="43.77844" lon="3.57162">
        <ele>491.37</ele>
        <time>2019-01-15T11:46:30Z</time>
      </trkpt>
      <trkpt lat="43.77845" lon="3.57144">
        <ele>488.49</ele>
        <time>2019-01-15T11:46:43Z</time>
      </trkpt>
      <trkpt lat="43.77848" lon="3.57142">
        <ele>488.49</ele>
        <time>2019-01-15T11:46:49Z</time>
      </trkpt>
      <trkpt lat="43.77858" lon="3.57164">
        <ele>488.49</ele>
        <time>2019-01-15T11:47:06Z</time>
      </trkpt>
      <trkpt lat="43.77865" lon="3.57172">
        <ele>487.53</ele>
        <time>2019-01-15T11:47:13Z</time>
      </trkpt>
      <trkpt lat="43.77881" lon="3.57186">
        <ele>483.68</ele>
        <time>2019-01-15T11:47:28Z</time>
      </trkpt>
      <trkpt lat="43.77888" lon="3.57192">
        <ele>481.28</ele>
        <time>2019-01-15T11:47:36Z</time>
      </trkpt>
      <trkpt lat="43.77905" lon="3.57205">
        <ele>475.99</ele>
        <time>2019-01-15T11:47:52Z</time>
      </trkpt>
      <trkpt lat="43.77907" lon="3.572">
        <ele>475.51</ele>
        <time>2019-01-15T11:47:57Z</time>
      </trkpt>
      <trkpt lat="43.7791" lon="3.57197">
        <ele>473.59</ele>
        <time>2019-01-15T11:48:02Z</time>
      </trkpt>
      <trkpt lat="43.77921" lon="3.57205">
        <ele>469.26</ele>
        <time>2019-01-15T11:48:13Z</time>
      </trkpt>
      <trkpt lat="43.77923" lon="3.57209">
        <ele>468.78</ele>
        <time>2019-01-15T11:48:15Z</time>
      </trkpt>
      <trkpt lat="43.77923" lon="3.57213">
        <ele>468.78</ele>
        <time>2019-01-15T11:48:17Z</time>
      </trkpt>
      <trkpt lat="43.77927" lon="3.57217">
        <ele>468.78</ele>
        <time>2019-01-15T11:48:22Z</time>
      </trkpt>
      <trkpt lat="43.77936" lon="3.57215">
        <ele>470.7</ele>
        <time>2019-01-15T11:48:29Z</time>
      </trkpt>
      <trkpt lat="43.77942" lon="3.57218">
        <ele>470.7</ele>
        <time>2019-01-15T11:48:35Z</time>
      </trkpt>
      <trkpt lat="43.77954" lon="3.57213">
        <ele>468.78</ele>
        <time>2019-01-15T11:48:49Z</time>
      </trkpt>
      <trkpt lat="43.77951" lon="3.57212">
        <ele>471.18</ele>
        <time>2019-01-15T11:49:12Z</time>
      </trkpt>
      <trkpt lat="43.77967" lon="3.5721">
        <ele>469.74</ele>
        <time>2019-01-15T11:49:27Z</time>
      </trkpt>
      <trkpt lat="43.7797" lon="3.57211">
        <ele>469.26</ele>
        <time>2019-01-15T11:49:31Z</time>
      </trkpt>
      <trkpt lat="43.77982" lon="3.57213">
        <ele>467.82</ele>
        <time>2019-01-15T11:49:41Z</time>
      </trkpt>
      <trkpt lat="43.77987" lon="3.57213">
        <ele>467.82</ele>
        <time>2019-01-15T11:49:45Z</time>
      </trkpt>
      <trkpt lat="43.77993" lon="3.57213">
        <ele>468.78</ele>
        <time>2019-01-15T11:49:53Z</time>
      </trkpt>
      <trkpt lat="43.78008" lon="3.57217">
        <ele>472.14</ele>
        <time>2019-01-15T11:50:06Z</time>
      </trkpt>
      <trkpt lat="43.78014" lon="3.57212">
        <ele>472.14</ele>
        <time>2019-01-15T11:50:14Z</time>
      </trkpt>
      <trkpt lat="43.78019" lon="3.57204">
        <ele>474.55</ele>
        <time>2019-01-15T11:50:26Z</time>
      </trkpt>
      <trkpt lat="43.78021" lon="3.57202">
        <ele>476.95</ele>
        <time>2019-01-15T11:50:49Z</time>
      </trkpt>
      <trkpt lat="43.78022" lon="3.57199">
        <ele>475.03</ele>
        <time>2019-01-15T11:51:19Z</time>
      </trkpt>
      <trkpt lat="43.78021" lon="3.57199">
        <ele>476.95</ele>
        <time>2019-01-15T11:51:42Z</time>
      </trkpt>
      <trkpt lat="43.78019" lon="3.572">
        <ele>475.51</ele>
        <time>2019-01-15T11:52:09Z</time>
      </trkpt>
      <trkpt lat="43.78019" lon="3.57199">
        <ele>475.03</ele>
        <time>2019-01-15T11:52:26Z</time>
      </trkpt>
      <trkpt lat="43.78021" lon="3.57198">
        <ele>477.91</ele>
        <time>2019-01-15T11:52:48Z</time>
      </trkpt>
      <trkpt lat="43.78027" lon="3.57196">
        <ele>476.47</ele>
        <time>2019-01-15T11:53:06Z</time>
      </trkpt>
      <trkpt lat="43.7803" lon="3.57195">
        <ele>476.95</ele>
        <time>2019-01-15T11:53:10Z</time>
      </trkpt>
      <trkpt lat="43.7804" lon="3.57202">
        <ele>474.55</ele>
        <time>2019-01-15T11:53:21Z</time>
      </trkpt>
      <trkpt lat="43.78046" lon="3.57203">
        <ele>474.07</ele>
        <time>2019-01-15T11:53:25Z</time>
      </trkpt>
      <trkpt lat="43.78051" lon="3.57209">
        <ele>473.59</ele>
        <time>2019-01-15T11:53:31Z</time>
      </trkpt>
      <trkpt lat="43.78063" lon="3.57209">
        <ele>471.18</ele>
        <time>2019-01-15T11:53:42Z</time>
      </trkpt>
      <trkpt lat="43.78067" lon="3.57209">
        <ele>472.14</ele>
        <time>2019-01-15T11:53:55Z</time>
      </trkpt>
      <trkpt lat="43.78068" lon="3.57211">
        <ele>475.03</ele>
        <time>2019-01-15T11:54:14Z</time>
      </trkpt>
      <trkpt lat="43.78066" lon="3.57212">
        <ele>476.47</ele>
        <time>2019-01-15T11:54:47Z</time>
      </trkpt>
      <trkpt lat="43.78063" lon="3.5721">
        <ele>476.47</ele>
        <time>2019-01-15T11:55:10Z</time>
      </trkpt>
      <trkpt lat="43.78072" lon="3.57211">
        <ele>475.99</ele>
        <time>2019-01-15T11:55:24Z</time>
      </trkpt>
      <trkpt lat="43.78081" lon="3.57214">
        <ele>479.35</ele>
        <time>2019-01-15T11:55:36Z</time>
      </trkpt>
      <trkpt lat="43.78088" lon="3.57216">
        <ele>480.8</ele>
        <time>2019-01-15T11:55:49Z</time>
      </trkpt>
      <trkpt lat="43.78097" lon="3.57215">
        <ele>481.76</ele>
        <time>2019-01-15T11:56:03Z</time>
      </trkpt>
      <trkpt lat="43.78107" lon="3.57215">
        <ele>484.16</ele>
        <time>2019-01-15T11:56:18Z</time>
      </trkpt>
      <trkpt lat="43.78113" lon="3.57214">
        <ele>486.08</ele>
        <time>2019-01-15T11:56:31Z</time>
      </trkpt>
      <trkpt lat="43.78122" lon="3.57217">
        <ele>489.45</ele>
        <time>2019-01-15T11:56:43Z</time>
      </trkpt>
      <trkpt lat="43.7813" lon="3.57216">
        <ele>493.77</ele>
        <time>2019-01-15T11:56:56Z</time>
      </trkpt>
      <trkpt lat="43.78137" lon="3.57215">
        <ele>498.58</ele>
        <time>2019-01-15T11:57:10Z</time>
      </trkpt>
      <trkpt lat="43.78144" lon="3.57214">
        <ele>500.98</ele>
        <time>2019-01-15T11:57:24Z</time>
      </trkpt>
      <trkpt lat="43.78151" lon="3.57214">
        <ele>505.79</ele>
        <time>2019-01-15T11:57:39Z</time>
      </trkpt>
      <trkpt lat="43.78155" lon="3.57214">
        <ele>506.27</ele>
        <time>2019-01-15T11:57:51Z</time>
      </trkpt>
      <trkpt lat="43.78162" lon="3.57217">
        <ele>510.6</ele>
        <time>2019-01-15T11:58:04Z</time>
      </trkpt>
      <trkpt lat="43.78167" lon="3.57218">
        <ele>511.56</ele>
        <time>2019-01-15T11:58:16Z</time>
      </trkpt>
      <trkpt lat="43.7817" lon="3.57213">
        <ele>513.48</ele>
        <time>2019-01-15T11:58:30Z</time>
      </trkpt>
      <trkpt lat="43.78172" lon="3.57213">
        <ele>513.48</ele>
        <time>2019-01-15T11:58:34Z</time>
      </trkpt>
      <trkpt lat="43.78175" lon="3.57212">
        <ele>513.48</ele>
        <time>2019-01-15T11:58:42Z</time>
      </trkpt>
      <trkpt lat="43.78175" lon="3.57203">
        <ele>513</ele>
        <time>2019-01-15T11:58:57Z</time>
      </trkpt>
      <trkpt lat="43.78179" lon="3.57197">
        <ele>513.48</ele>
        <time>2019-01-15T11:59:33Z</time>
      </trkpt>
      <trkpt lat="43.78173" lon="3.57205">
        <ele>513</ele>
        <time>2019-01-15T11:59:51Z</time>
      </trkpt>
      <trkpt lat="43.78175" lon="3.57201">
        <ele>513</ele>
        <time>2019-01-15T12:00:07Z</time>
      </trkpt>
      <trkpt lat="43.78176" lon="3.57201">
        <ele>513</ele>
        <time>2019-01-15T12:00:08Z</time>
      </trkpt>
      <trkpt lat="43.78182" lon="3.57196">
        <ele>509.64</ele>
        <time>2019-01-15T12:00:22Z</time>
      </trkpt>
      <trkpt lat="43.7819" lon="3.5719">
        <ele>507.23</ele>
        <time>2019-01-15T12:00:33Z</time>
      </trkpt>
      <trkpt lat="43.78192" lon="3.5719">
        <ele>507.23</ele>
        <time>2019-01-15T12:00:35Z</time>
      </trkpt>
      <trkpt lat="43.782" lon="3.57183">
        <ele>508.19</ele>
        <time>2019-01-15T12:00:44Z</time>
      </trkpt>
      <trkpt lat="43.78205" lon="3.57181">
        <ele>507.71</ele>
        <time>2019-01-15T12:00:49Z</time>
      </trkpt>
      <trkpt lat="43.78216" lon="3.57182">
        <ele>507.23</ele>
        <time>2019-01-15T12:01:01Z</time>
      </trkpt>
      <trkpt lat="43.78228" lon="3.57178">
        <ele>505.31</ele>
        <time>2019-01-15T12:01:13Z</time>
      </trkpt>
      <trkpt lat="43.78235" lon="3.5718">
        <ele>506.27</ele>
        <time>2019-01-15T12:01:25Z</time>
      </trkpt>
      <trkpt lat="43.78236" lon="3.57179">
        <ele>505.79</ele>
        <time>2019-01-15T12:01:26Z</time>
      </trkpt>
      <trkpt lat="43.7824" lon="3.5718">
        <ele>505.31</ele>
        <time>2019-01-15T12:01:31Z</time>
      </trkpt>
      <trkpt lat="43.78247" lon="3.57178">
        <ele>505.31</ele>
        <time>2019-01-15T12:01:37Z</time>
      </trkpt>
      <trkpt lat="43.7825" lon="3.57178">
        <ele>505.31</ele>
        <time>2019-01-15T12:01:40Z</time>
      </trkpt>
      <trkpt lat="43.78252" lon="3.57178">
        <ele>505.31</ele>
        <time>2019-01-15T12:01:42Z</time>
      </trkpt>
      <trkpt lat="43.78267" lon="3.57181">
        <ele>501.46</ele>
        <time>2019-01-15T12:01:55Z</time>
      </trkpt>
      <trkpt lat="43.78271" lon="3.57182">
        <ele>500.98</ele>
        <time>2019-01-15T12:02:10Z</time>
      </trkpt>
      <trkpt lat="43.78272" lon="3.57179">
        <ele>499.06</ele>
        <time>2019-01-15T12:02:38Z</time>
      </trkpt>
      <trkpt lat="43.78273" lon="3.57177">
        <ele>499.06</ele>
        <time>2019-01-15T12:02:44Z</time>
      </trkpt>
      <trkpt lat="43.78275" lon="3.57177">
        <ele>498.58</ele>
        <time>2019-01-15T12:02:46Z</time>
      </trkpt>
      <trkpt lat="43.78278" lon="3.57176">
        <ele>498.58</ele>
        <time>2019-01-15T12:02:49Z</time>
      </trkpt>
      <trkpt lat="43.78286" lon="3.5718">
        <ele>496.66</ele>
        <time>2019-01-15T12:02:56Z</time>
      </trkpt>
      <trkpt lat="43.783" lon="3.57182">
        <ele>496.18</ele>
        <time>2019-01-15T12:03:09Z</time>
      </trkpt>
      <trkpt lat="43.78309" lon="3.57185">
        <ele>496.18</ele>
        <time>2019-01-15T12:03:18Z</time>
      </trkpt>
      <trkpt lat="43.78328" lon="3.57188">
        <ele>494.74</ele>
        <time>2019-01-15T12:03:32Z</time>
      </trkpt>
      <trkpt lat="43.78346" lon="3.57191">
        <ele>495.22</ele>
        <time>2019-01-15T12:03:47Z</time>
      </trkpt>
      <trkpt lat="43.78354" lon="3.57192">
        <ele>495.22</ele>
        <time>2019-01-15T12:03:54Z</time>
      </trkpt>
      <trkpt lat="43.78357" lon="3.57194">
        <ele>495.22</ele>
        <time>2019-01-15T12:03:58Z</time>
      </trkpt>
      <trkpt lat="43.78365" lon="3.57203">
        <ele>493.29</ele>
        <time>2019-01-15T12:04:12Z</time>
      </trkpt>
      <trkpt lat="43.78365" lon="3.57204">
        <ele>493.29</ele>
        <time>2019-01-15T12:04:13Z</time>
      </trkpt>
      <trkpt lat="43.78378" lon="3.57211">
        <ele>491.37</ele>
        <time>2019-01-15T12:04:24Z</time>
      </trkpt>
      <trkpt lat="43.78389" lon="3.57217">
        <ele>488.97</ele>
        <time>2019-01-15T12:04:34Z</time>
      </trkpt>
      <trkpt lat="43.78406" lon="3.57227">
        <ele>488.97</ele>
        <time>2019-01-15T12:04:48Z</time>
      </trkpt>
      <trkpt lat="43.78424" lon="3.57224">
        <ele>492.81</ele>
        <time>2019-01-15T12:05:02Z</time>
      </trkpt>
      <trkpt lat="43.78435" lon="3.57221">
        <ele>493.29</ele>
        <time>2019-01-15T12:05:11Z</time>
      </trkpt>
      <trkpt lat="43.78438" lon="3.5722">
        <ele>494.74</ele>
        <time>2019-01-15T12:05:15Z</time>
      </trkpt>
      <trkpt lat="43.7844" lon="3.57223">
        <ele>495.7</ele>
        <time>2019-01-15T12:05:18Z</time>
      </trkpt>
      <trkpt lat="43.78446" lon="3.57223">
        <ele>495.7</ele>
        <time>2019-01-15T12:05:23Z</time>
      </trkpt>
      <trkpt lat="43.78459" lon="3.57232">
        <ele>497.62</ele>
        <time>2019-01-15T12:05:38Z</time>
      </trkpt>
      <trkpt lat="43.7847" lon="3.57237">
        <ele>497.14</ele>
        <time>2019-01-15T12:05:52Z</time>
      </trkpt>
      <trkpt lat="43.78471" lon="3.57238">
        <ele>497.62</ele>
        <time>2019-01-15T12:05:53Z</time>
      </trkpt>
      <trkpt lat="43.78478" lon="3.57243">
        <ele>498.1</ele>
        <time>2019-01-15T12:06:06Z</time>
      </trkpt>
      <trkpt lat="43.78479" lon="3.57242">
        <ele>498.58</ele>
        <time>2019-01-15T12:06:08Z</time>
      </trkpt>
      <trkpt lat="43.78481" lon="3.57238">
        <ele>498.1</ele>
        <time>2019-01-15T12:06:22Z</time>
      </trkpt>
      <trkpt lat="43.78485" lon="3.57235">
        <ele>498.58</ele>
        <time>2019-01-15T12:06:37Z</time>
      </trkpt>
      <trkpt lat="43.78479" lon="3.57243">
        <ele>498.58</ele>
        <time>2019-01-15T12:06:52Z</time>
      </trkpt>
      <trkpt lat="43.78481" lon="3.57246">
        <ele>503.87</ele>
        <time>2019-01-15T12:07:11Z</time>
      </trkpt>
      <trkpt lat="43.78477" lon="3.57241">
        <ele>505.79</ele>
        <time>2019-01-15T12:07:26Z</time>
      </trkpt>
      <trkpt lat="43.78476" lon="3.57242">
        <ele>505.79</ele>
        <time>2019-01-15T12:07:27Z</time>
      </trkpt>
      <trkpt lat="43.7847" lon="3.57259">
        <ele>504.35</ele>
        <time>2019-01-15T12:07:42Z</time>
      </trkpt>
      <trkpt lat="43.78468" lon="3.57268">
        <ele>502.91</ele>
        <time>2019-01-15T12:07:48Z</time>
      </trkpt>
      <trkpt lat="43.78464" lon="3.57271">
        <ele>502.91</ele>
        <time>2019-01-15T12:08:02Z</time>
      </trkpt>
      <trkpt lat="43.78466" lon="3.57271">
        <ele>501.95</ele>
        <time>2019-01-15T12:08:12Z</time>
      </trkpt>
      <trkpt lat="43.78466" lon="3.57271">
        <ele>501.46</ele>
        <time>2019-01-15T12:08:14Z</time>
      </trkpt>
      <trkpt lat="43.78454" lon="3.57224">
        <ele>499.06</ele>
        <time>2019-01-15T13:06:52Z</time>
      </trkpt>
      <trkpt lat="43.78453" lon="3.57226">
        <ele>495.7</ele>
        <time>2019-01-15T13:07:15Z</time>
      </trkpt>
      <trkpt lat="43.78452" lon="3.57226">
        <ele>505.31</ele>
        <time>2019-01-15T13:07:34Z</time>
      </trkpt>
      <trkpt lat="43.78452" lon="3.57225">
        <ele>506.75</ele>
        <time>2019-01-15T13:08:04Z</time>
      </trkpt>
      <trkpt lat="43.78458" lon="3.5722">
        <ele>508.19</ele>
        <time>2019-01-15T13:08:17Z</time>
      </trkpt>
      <trkpt lat="43.78463" lon="3.57219">
        <ele>510.6</ele>
        <time>2019-01-15T13:08:29Z</time>
      </trkpt>
      <trkpt lat="43.78471" lon="3.57215">
        <ele>510.6</ele>
        <time>2019-01-15T13:08:42Z</time>
      </trkpt>
      <trkpt lat="43.78474" lon="3.57216">
        <ele>511.08</ele>
        <time>2019-01-15T13:08:46Z</time>
      </trkpt>
      <trkpt lat="43.78483" lon="3.57215">
        <ele>514.92</ele>
        <time>2019-01-15T13:09:01Z</time>
      </trkpt>
      <trkpt lat="43.7849" lon="3.57214">
        <ele>516.85</ele>
        <time>2019-01-15T13:09:15Z</time>
      </trkpt>
      <trkpt lat="43.78497" lon="3.57209">
        <ele>517.33</ele>
        <time>2019-01-15T13:09:32Z</time>
      </trkpt>
      <trkpt lat="43.78507" lon="3.57204">
        <ele>518.29</ele>
        <time>2019-01-15T13:09:46Z</time>
      </trkpt>
      <trkpt lat="43.78515" lon="3.57201">
        <ele>515.88</ele>
        <time>2019-01-15T13:10:03Z</time>
      </trkpt>
      <trkpt lat="43.7852" lon="3.57202">
        <ele>517.33</ele>
        <time>2019-01-15T13:10:17Z</time>
      </trkpt>
      <trkpt lat="43.78527" lon="3.57202">
        <ele>517.33</ele>
        <time>2019-01-15T13:10:28Z</time>
      </trkpt>
      <trkpt lat="43.78535" lon="3.57198">
        <ele>518.77</ele>
        <time>2019-01-15T13:10:42Z</time>
      </trkpt>
      <trkpt lat="43.78545" lon="3.57194">
        <ele>518.77</ele>
        <time>2019-01-15T13:10:56Z</time>
      </trkpt>
      <trkpt lat="43.78551" lon="3.57193">
        <ele>521.65</ele>
        <time>2019-01-15T13:11:09Z</time>
      </trkpt>
      <trkpt lat="43.7856" lon="3.57192">
        <ele>521.65</ele>
        <time>2019-01-15T13:11:23Z</time>
      </trkpt>
      <trkpt lat="43.78568" lon="3.57183">
        <ele>524.54</ele>
        <time>2019-01-15T13:11:36Z</time>
      </trkpt>
      <trkpt lat="43.78573" lon="3.57175">
        <ele>525.98</ele>
        <time>2019-01-15T13:11:50Z</time>
      </trkpt>
      <trkpt lat="43.7858" lon="3.5717">
        <ele>527.42</ele>
        <time>2019-01-15T13:12:04Z</time>
      </trkpt>
      <trkpt lat="43.78585" lon="3.57162">
        <ele>531.27</ele>
        <time>2019-01-15T13:12:17Z</time>
      </trkpt>
      <trkpt lat="43.7859" lon="3.57155">
        <ele>532.23</ele>
        <time>2019-01-15T13:12:31Z</time>
      </trkpt>
      <trkpt lat="43.78594" lon="3.57152">
        <ele>534.15</ele>
        <time>2019-01-15T13:12:42Z</time>
      </trkpt>
      <trkpt lat="43.78598" lon="3.57152">
        <ele>533.67</ele>
        <time>2019-01-15T13:12:46Z</time>
      </trkpt>
      <trkpt lat="43.78606" lon="3.57156">
        <ele>534.63</ele>
        <time>2019-01-15T13:13:00Z</time>
      </trkpt>
      <trkpt lat="43.78606" lon="3.57158">
        <ele>537.03</ele>
        <time>2019-01-15T13:13:27Z</time>
      </trkpt>
      <trkpt lat="43.78607" lon="3.57158">
        <ele>537.03</ele>
        <time>2019-01-15T13:13:28Z</time>
      </trkpt>
      <trkpt lat="43.78621" lon="3.5717">
        <ele>537.03</ele>
        <time>2019-01-15T13:13:45Z</time>
      </trkpt>
      <trkpt lat="43.78625" lon="3.5717">
        <ele>537.51</ele>
        <time>2019-01-15T13:13:49Z</time>
      </trkpt>
      <trkpt lat="43.78636" lon="3.57176">
        <ele>540.88</ele>
        <time>2019-01-15T13:14:01Z</time>
      </trkpt>
      <trkpt lat="43.78648" lon="3.57179">
        <ele>542.8</ele>
        <time>2019-01-15T13:14:13Z</time>
      </trkpt>
      <trkpt lat="43.78653" lon="3.5718">
        <ele>542.8</ele>
        <time>2019-01-15T13:14:19Z</time>
      </trkpt>
      <trkpt lat="43.78659" lon="3.57172">
        <ele>543.76</ele>
        <time>2019-01-15T13:14:33Z</time>
      </trkpt>
      <trkpt lat="43.78658" lon="3.57174">
        <ele>544.24</ele>
        <time>2019-01-15T13:14:57Z</time>
      </trkpt>
      <trkpt lat="43.78655" lon="3.57172">
        <ele>543.76</ele>
        <time>2019-01-15T13:15:04Z</time>
      </trkpt>
      <trkpt lat="43.78652" lon="3.57169">
        <ele>543.28</ele>
        <time>2019-01-15T13:15:08Z</time>
      </trkpt>
      <trkpt lat="43.78641" lon="3.57159">
        <ele>541.36</ele>
        <time>2019-01-15T13:15:24Z</time>
      </trkpt>
      <trkpt lat="43.78636" lon="3.57158">
        <ele>539.92</ele>
        <time>2019-01-15T13:15:35Z</time>
      </trkpt>
      <trkpt lat="43.78642" lon="3.5716">
        <ele>540.88</ele>
        <time>2019-01-15T13:15:48Z</time>
      </trkpt>
      <trkpt lat="43.78647" lon="3.57164">
        <ele>543.28</ele>
        <time>2019-01-15T13:16:07Z</time>
      </trkpt>
      <trkpt lat="43.78653" lon="3.57169">
        <ele>544.24</ele>
        <time>2019-01-15T13:16:18Z</time>
      </trkpt>
      <trkpt lat="43.78659" lon="3.57165">
        <ele>544.72</ele>
        <time>2019-01-15T13:16:31Z</time>
      </trkpt>
      <trkpt lat="43.7866" lon="3.57157">
        <ele>544.72</ele>
        <time>2019-01-15T13:16:40Z</time>
      </trkpt>
      <trkpt lat="43.78661" lon="3.57149">
        <ele>545.2</ele>
        <time>2019-01-15T13:16:46Z</time>
      </trkpt>
      <trkpt lat="43.78663" lon="3.57147">
        <ele>545.2</ele>
        <time>2019-01-15T13:16:48Z</time>
      </trkpt>
      <trkpt lat="43.78667" lon="3.5714">
        <ele>545.69</ele>
        <time>2019-01-15T13:16:55Z</time>
      </trkpt>
      <trkpt lat="43.78666" lon="3.57127">
        <ele>546.17</ele>
        <time>2019-01-15T13:17:08Z</time>
      </trkpt>
      <trkpt lat="43.78667" lon="3.57133">
        <ele>544.72</ele>
        <time>2019-01-15T13:17:18Z</time>
      </trkpt>
      <trkpt lat="43.78663" lon="3.57147">
        <ele>543.28</ele>
        <time>2019-01-15T13:17:31Z</time>
      </trkpt>
      <trkpt lat="43.7866" lon="3.57153">
        <ele>542.8</ele>
        <time>2019-01-15T13:17:36Z</time>
      </trkpt>
      <trkpt lat="43.78661" lon="3.57166">
        <ele>542.32</ele>
        <time>2019-01-15T13:17:50Z</time>
      </trkpt>
      <trkpt lat="43.78662" lon="3.57168">
        <ele>542.32</ele>
        <time>2019-01-15T13:17:53Z</time>
      </trkpt>
      <trkpt lat="43.78664" lon="3.57178">
        <ele>543.28</ele>
        <time>2019-01-15T13:18:05Z</time>
      </trkpt>
      <trkpt lat="43.78665" lon="3.57186">
        <ele>544.24</ele>
        <time>2019-01-15T13:18:16Z</time>
      </trkpt>
      <trkpt lat="43.78667" lon="3.57201">
        <ele>541.36</ele>
        <time>2019-01-15T13:18:27Z</time>
      </trkpt>
      <trkpt lat="43.78669" lon="3.57218">
        <ele>541.84</ele>
        <time>2019-01-15T13:18:41Z</time>
      </trkpt>
      <trkpt lat="43.78672" lon="3.57222">
        <ele>543.28</ele>
        <time>2019-01-15T13:18:47Z</time>
      </trkpt>
      <trkpt lat="43.78677" lon="3.5723">
        <ele>544.24</ele>
        <time>2019-01-15T13:18:54Z</time>
      </trkpt>
      <trkpt lat="43.78682" lon="3.57244">
        <ele>545.2</ele>
        <time>2019-01-15T13:19:06Z</time>
      </trkpt>
      <trkpt lat="43.78689" lon="3.57253">
        <ele>545.69</ele>
        <time>2019-01-15T13:19:19Z</time>
      </trkpt>
      <trkpt lat="43.78694" lon="3.57266">
        <ele>546.65</ele>
        <time>2019-01-15T13:19:34Z</time>
      </trkpt>
      <trkpt lat="43.78692" lon="3.5728">
        <ele>548.57</ele>
        <time>2019-01-15T13:19:49Z</time>
      </trkpt>
      <trkpt lat="43.78688" lon="3.57294">
        <ele>552.9</ele>
        <time>2019-01-15T13:20:03Z</time>
      </trkpt>
      <trkpt lat="43.78687" lon="3.57306">
        <ele>557.22</ele>
        <time>2019-01-15T13:20:15Z</time>
      </trkpt>
      <trkpt lat="43.78686" lon="3.57321">
        <ele>561.55</ele>
        <time>2019-01-15T13:20:27Z</time>
      </trkpt>
      <trkpt lat="43.78692" lon="3.57334">
        <ele>561.07</ele>
        <time>2019-01-15T13:20:39Z</time>
      </trkpt>
      <trkpt lat="43.78691" lon="3.57339">
        <ele>561.55</ele>
        <time>2019-01-15T13:20:43Z</time>
      </trkpt>
      <trkpt lat="43.78689" lon="3.57362">
        <ele>559.62</ele>
        <time>2019-01-15T13:21:00Z</time>
      </trkpt>
      <trkpt lat="43.78689" lon="3.57372">
        <ele>559.62</ele>
        <time>2019-01-15T13:21:06Z</time>
      </trkpt>
      <trkpt lat="43.78689" lon="3.57374">
        <ele>559.62</ele>
        <time>2019-01-15T13:21:08Z</time>
      </trkpt>
      <trkpt lat="43.78692" lon="3.5738">
        <ele>557.7</ele>
        <time>2019-01-15T13:21:17Z</time>
      </trkpt>
      <trkpt lat="43.78698" lon="3.5738">
        <ele>558.18</ele>
        <time>2019-01-15T13:21:31Z</time>
      </trkpt>
      <trkpt lat="43.78703" lon="3.57384">
        <ele>558.18</ele>
        <time>2019-01-15T13:21:43Z</time>
      </trkpt>
      <trkpt lat="43.7871" lon="3.5739">
        <ele>559.62</ele>
        <time>2019-01-15T13:21:57Z</time>
      </trkpt>
      <trkpt lat="43.78706" lon="3.57388">
        <ele>560.59</ele>
        <time>2019-01-15T13:22:06Z</time>
      </trkpt>
      <trkpt lat="43.78705" lon="3.57387">
        <ele>560.11</ele>
        <time>2019-01-15T13:22:08Z</time>
      </trkpt>
      <trkpt lat="43.78703" lon="3.57387">
        <ele>559.62</ele>
        <time>2019-01-15T13:22:10Z</time>
      </trkpt>
      <trkpt lat="43.78697" lon="3.57381">
        <ele>558.66</ele>
        <time>2019-01-15T13:22:17Z</time>
      </trkpt>
      <trkpt lat="43.78691" lon="3.57385">
        <ele>558.66</ele>
        <time>2019-01-15T13:22:30Z</time>
      </trkpt>
      <trkpt lat="43.78695" lon="3.574">
        <ele>556.26</ele>
        <time>2019-01-15T13:22:44Z</time>
      </trkpt>
      <trkpt lat="43.78696" lon="3.574">
        <ele>559.14</ele>
        <time>2019-01-15T13:23:06Z</time>
      </trkpt>
      <trkpt lat="43.78702" lon="3.57415">
        <ele>557.22</ele>
        <time>2019-01-15T13:23:21Z</time>
      </trkpt>
      <trkpt lat="43.78706" lon="3.57424">
        <ele>555.78</ele>
        <time>2019-01-15T13:23:33Z</time>
      </trkpt>
      <trkpt lat="43.78704" lon="3.57423">
        <ele>555.78</ele>
        <time>2019-01-15T13:23:37Z</time>
      </trkpt>
      <trkpt lat="43.78702" lon="3.57431">
        <ele>554.82</ele>
        <time>2019-01-15T13:23:45Z</time>
      </trkpt>
      <trkpt lat="43.78703" lon="3.57439">
        <ele>553.86</ele>
        <time>2019-01-15T13:23:50Z</time>
      </trkpt>
      <trkpt lat="43.78709" lon="3.57451">
        <ele>547.61</ele>
        <time>2019-01-15T13:24:03Z</time>
      </trkpt>
      <trkpt lat="43.7871" lon="3.57453">
        <ele>546.17</ele>
        <time>2019-01-15T13:24:06Z</time>
      </trkpt>
      <trkpt lat="43.78715" lon="3.57469">
        <ele>543.28</ele>
        <time>2019-01-15T13:24:18Z</time>
      </trkpt>
      <trkpt lat="43.78717" lon="3.57473">
        <ele>543.28</ele>
        <time>2019-01-15T13:24:21Z</time>
      </trkpt>
      <trkpt lat="43.78719" lon="3.57475">
        <ele>542.8</ele>
        <time>2019-01-15T13:24:23Z</time>
      </trkpt>
      <trkpt lat="43.78721" lon="3.57485">
        <ele>544.24</ele>
        <time>2019-01-15T13:24:28Z</time>
      </trkpt>
      <trkpt lat="43.78721" lon="3.57492">
        <ele>546.17</ele>
        <time>2019-01-15T13:24:33Z</time>
      </trkpt>
      <trkpt lat="43.78723" lon="3.5751">
        <ele>549.05</ele>
        <time>2019-01-15T13:24:49Z</time>
      </trkpt>
      <trkpt lat="43.78722" lon="3.57517">
        <ele>547.61</ele>
        <time>2019-01-15T13:24:55Z</time>
      </trkpt>
      <trkpt lat="43.78723" lon="3.57524">
        <ele>546.65</ele>
        <time>2019-01-15T13:24:59Z</time>
      </trkpt>
      <trkpt lat="43.78732" lon="3.57538">
        <ele>544.72</ele>
        <time>2019-01-15T13:25:11Z</time>
      </trkpt>
      <trkpt lat="43.78733" lon="3.57541">
        <ele>544.72</ele>
        <time>2019-01-15T13:25:13Z</time>
      </trkpt>
      <trkpt lat="43.78735" lon="3.57546">
        <ele>543.76</ele>
        <time>2019-01-15T13:25:17Z</time>
      </trkpt>
      <trkpt lat="43.78741" lon="3.57568">
        <ele>542.8</ele>
        <time>2019-01-15T13:25:31Z</time>
      </trkpt>
      <trkpt lat="43.78745" lon="3.57579">
        <ele>542.8</ele>
        <time>2019-01-15T13:25:40Z</time>
      </trkpt>
      <trkpt lat="43.78744" lon="3.57591">
        <ele>543.28</ele>
        <time>2019-01-15T13:25:48Z</time>
      </trkpt>
      <trkpt lat="43.78753" lon="3.57606">
        <ele>545.69</ele>
        <time>2019-01-15T13:26:01Z</time>
      </trkpt>
      <trkpt lat="43.78755" lon="3.57614">
        <ele>546.17</ele>
        <time>2019-01-15T13:26:07Z</time>
      </trkpt>
      <trkpt lat="43.78758" lon="3.57632">
        <ele>546.17</ele>
        <time>2019-01-15T13:26:20Z</time>
      </trkpt>
      <trkpt lat="43.78758" lon="3.57634">
        <ele>545.69</ele>
        <time>2019-01-15T13:26:21Z</time>
      </trkpt>
      <trkpt lat="43.78759" lon="3.57655">
        <ele>544.72</ele>
        <time>2019-01-15T13:26:35Z</time>
      </trkpt>
      <trkpt lat="43.78761" lon="3.57659">
        <ele>544.72</ele>
        <time>2019-01-15T13:26:39Z</time>
      </trkpt>
      <trkpt lat="43.78766" lon="3.57676">
        <ele>544.72</ele>
        <time>2019-01-15T13:26:51Z</time>
      </trkpt>
      <trkpt lat="43.78767" lon="3.5768">
        <ele>544.24</ele>
        <time>2019-01-15T13:26:54Z</time>
      </trkpt>
      <trkpt lat="43.78767" lon="3.57683">
        <ele>544.24</ele>
        <time>2019-01-15T13:26:56Z</time>
      </trkpt>
      <trkpt lat="43.78773" lon="3.57701">
        <ele>542.8</ele>
        <time>2019-01-15T13:27:10Z</time>
      </trkpt>
      <trkpt lat="43.78774" lon="3.57716">
        <ele>543.76</ele>
        <time>2019-01-15T13:27:22Z</time>
      </trkpt>
      <trkpt lat="43.7878" lon="3.5773">
        <ele>542.8</ele>
        <time>2019-01-15T13:27:34Z</time>
      </trkpt>
      <trkpt lat="43.78783" lon="3.57749">
        <ele>543.76</ele>
        <time>2019-01-15T13:27:47Z</time>
      </trkpt>
      <trkpt lat="43.78789" lon="3.57766">
        <ele>543.76</ele>
        <time>2019-01-15T13:27:59Z</time>
      </trkpt>
      <trkpt lat="43.78796" lon="3.57786">
        <ele>544.24</ele>
        <time>2019-01-15T13:28:14Z</time>
      </trkpt>
      <trkpt lat="43.78796" lon="3.57789">
        <ele>544.24</ele>
        <time>2019-01-15T13:28:17Z</time>
      </trkpt>
      <trkpt lat="43.78801" lon="3.57804">
        <ele>542.32</ele>
        <time>2019-01-15T13:28:30Z</time>
      </trkpt>
      <trkpt lat="43.78803" lon="3.5781">
        <ele>540.88</ele>
        <time>2019-01-15T13:28:34Z</time>
      </trkpt>
      <trkpt lat="43.78811" lon="3.57828">
        <ele>537.51</ele>
        <time>2019-01-15T13:28:48Z</time>
      </trkpt>
      <trkpt lat="43.78811" lon="3.5783">
        <ele>537.51</ele>
        <time>2019-01-15T13:28:49Z</time>
      </trkpt>
      <trkpt lat="43.78815" lon="3.57838">
        <ele>537.03</ele>
        <time>2019-01-15T13:28:55Z</time>
      </trkpt>
      <trkpt lat="43.78823" lon="3.57849">
        <ele>536.55</ele>
        <time>2019-01-15T13:29:07Z</time>
      </trkpt>
      <trkpt lat="43.78823" lon="3.5785">
        <ele>536.55</ele>
        <time>2019-01-15T13:29:08Z</time>
      </trkpt>
      <trkpt lat="43.78834" lon="3.57862">
        <ele>537.51</ele>
        <time>2019-01-15T13:29:23Z</time>
      </trkpt>
      <trkpt lat="43.78847" lon="3.57876">
        <ele>540.4</ele>
        <time>2019-01-15T13:29:38Z</time>
      </trkpt>
      <trkpt lat="43.78859" lon="3.5789">
        <ele>543.76</ele>
        <time>2019-01-15T13:29:52Z</time>
      </trkpt>
      <trkpt lat="43.78866" lon="3.57897">
        <ele>544.72</ele>
        <time>2019-01-15T13:30:03Z</time>
      </trkpt>
      <trkpt lat="43.78878" lon="3.57902">
        <ele>547.13</ele>
        <time>2019-01-15T13:30:16Z</time>
      </trkpt>
      <trkpt lat="43.78889" lon="3.57907">
        <ele>551.45</ele>
        <time>2019-01-15T13:30:30Z</time>
      </trkpt>
      <trkpt lat="43.78891" lon="3.57909">
        <ele>551.93</ele>
        <time>2019-01-15T13:30:51Z</time>
      </trkpt>
      <trkpt lat="43.78897" lon="3.57913">
        <ele>554.34</ele>
        <time>2019-01-15T13:31:14Z</time>
      </trkpt>
      <trkpt lat="43.78907" lon="3.57921">
        <ele>558.18</ele>
        <time>2019-01-15T13:31:28Z</time>
      </trkpt>
      <trkpt lat="43.78913" lon="3.57931">
        <ele>557.7</ele>
        <time>2019-01-15T13:31:41Z</time>
      </trkpt>
      <trkpt lat="43.78923" lon="3.57938">
        <ele>556.74</ele>
        <time>2019-01-15T13:31:53Z</time>
      </trkpt>
      <trkpt lat="43.78932" lon="3.57945">
        <ele>554.82</ele>
        <time>2019-01-15T13:32:04Z</time>
      </trkpt>
      <trkpt lat="43.78941" lon="3.57951">
        <ele>553.86</ele>
        <time>2019-01-15T13:32:15Z</time>
      </trkpt>
      <trkpt lat="43.7895" lon="3.57964">
        <ele>555.78</ele>
        <time>2019-01-15T13:32:27Z</time>
      </trkpt>
      <trkpt lat="43.7896" lon="3.57972">
        <ele>556.74</ele>
        <time>2019-01-15T13:32:39Z</time>
      </trkpt>
      <trkpt lat="43.7897" lon="3.57979">
        <ele>557.7</ele>
        <time>2019-01-15T13:32:51Z</time>
      </trkpt>
      <trkpt lat="43.78977" lon="3.57983">
        <ele>560.11</ele>
        <time>2019-01-15T13:33:02Z</time>
      </trkpt>
      <trkpt lat="43.78988" lon="3.57987">
        <ele>560.11</ele>
        <time>2019-01-15T13:33:16Z</time>
      </trkpt>
      <trkpt lat="43.78996" lon="3.57991">
        <ele>561.07</ele>
        <time>2019-01-15T13:33:27Z</time>
      </trkpt>
      <trkpt lat="43.78996" lon="3.57991">
        <ele>565.87</ele>
        <time>2019-01-15T13:33:58Z</time>
      </trkpt>
      <trkpt lat="43.78997" lon="3.57996">
        <ele>564.91</ele>
        <time>2019-01-15T13:34:27Z</time>
      </trkpt>
      <trkpt lat="43.78998" lon="3.57994">
        <ele>562.03</ele>
        <time>2019-01-15T13:34:51Z</time>
      </trkpt>
      <trkpt lat="43.79001" lon="3.57997">
        <ele>560.59</ele>
        <time>2019-01-15T13:35:07Z</time>
      </trkpt>
      <trkpt lat="43.79" lon="3.57995">
        <ele>564.43</ele>
        <time>2019-01-15T13:35:34Z</time>
      </trkpt>
      <trkpt lat="43.79" lon="3.57996">
        <ele>568.76</ele>
        <time>2019-01-15T13:36:06Z</time>
      </trkpt>
      <trkpt lat="43.79004" lon="3.58003">
        <ele>566.83</ele>
        <time>2019-01-15T13:36:35Z</time>
      </trkpt>
      <trkpt lat="43.79011" lon="3.58013">
        <ele>559.62</ele>
        <time>2019-01-15T13:36:49Z</time>
      </trkpt>
      <trkpt lat="43.79016" lon="3.58009">
        <ele>560.59</ele>
        <time>2019-01-15T13:37:02Z</time>
      </trkpt>
      <trkpt lat="43.79022" lon="3.58012">
        <ele>561.07</ele>
        <time>2019-01-15T13:37:16Z</time>
      </trkpt>
      <trkpt lat="43.79023" lon="3.58013">
        <ele>563.47</ele>
        <time>2019-01-15T13:37:32Z</time>
      </trkpt>
      <trkpt lat="43.79024" lon="3.58012">
        <ele>561.55</ele>
        <time>2019-01-15T13:37:52Z</time>
      </trkpt>
      <trkpt lat="43.79025" lon="3.58005">
        <ele>562.51</ele>
        <time>2019-01-15T13:38:06Z</time>
      </trkpt>
      <trkpt lat="43.79021" lon="3.58004">
        <ele>565.87</ele>
        <time>2019-01-15T13:38:21Z</time>
      </trkpt>
      <trkpt lat="43.79012" lon="3.58012">
        <ele>566.35</ele>
        <time>2019-01-15T13:38:34Z</time>
      </trkpt>
      <trkpt lat="43.79011" lon="3.5802">
        <ele>561.07</ele>
        <time>2019-01-15T13:38:45Z</time>
      </trkpt>
      <trkpt lat="43.79016" lon="3.58033">
        <ele>556.26</ele>
        <time>2019-01-15T13:38:58Z</time>
      </trkpt>
      <trkpt lat="43.79021" lon="3.58038">
        <ele>553.38</ele>
        <time>2019-01-15T13:39:10Z</time>
      </trkpt>
      <trkpt lat="43.79033" lon="3.58043">
        <ele>550.97</ele>
        <time>2019-01-15T13:39:23Z</time>
      </trkpt>
      <trkpt lat="43.7904" lon="3.58044">
        <ele>554.34</ele>
        <time>2019-01-15T13:39:36Z</time>
      </trkpt>
      <trkpt lat="43.79045" lon="3.58041">
        <ele>554.34</ele>
        <time>2019-01-15T13:39:48Z</time>
      </trkpt>
      <trkpt lat="43.79045" lon="3.58051">
        <ele>555.3</ele>
        <time>2019-01-15T13:40:02Z</time>
      </trkpt>
      <trkpt lat="43.79049" lon="3.58064">
        <ele>552.41</ele>
        <time>2019-01-15T13:40:15Z</time>
      </trkpt>
      <trkpt lat="43.79059" lon="3.58082">
        <ele>549.53</ele>
        <time>2019-01-15T13:40:32Z</time>
      </trkpt>
      <trkpt lat="43.79066" lon="3.58095">
        <ele>547.13</ele>
        <time>2019-01-15T13:40:47Z</time>
      </trkpt>
      <trkpt lat="43.7907" lon="3.58107">
        <ele>545.2</ele>
        <time>2019-01-15T13:41:00Z</time>
      </trkpt>
      <trkpt lat="43.79072" lon="3.58113">
        <ele>545.2</ele>
        <time>2019-01-15T13:41:05Z</time>
      </trkpt>
      <trkpt lat="43.79077" lon="3.58123">
        <ele>545.2</ele>
        <time>2019-01-15T13:41:19Z</time>
      </trkpt>
      <trkpt lat="43.79081" lon="3.58134">
        <ele>547.13</ele>
        <time>2019-01-15T13:41:31Z</time>
      </trkpt>
      <trkpt lat="43.79087" lon="3.58146">
        <ele>549.05</ele>
        <time>2019-01-15T13:41:44Z</time>
      </trkpt>
      <trkpt lat="43.79095" lon="3.58155">
        <ele>549.53</ele>
        <time>2019-01-15T13:41:56Z</time>
      </trkpt>
      <trkpt lat="43.79095" lon="3.58165">
        <ele>551.93</ele>
        <time>2019-01-15T13:42:08Z</time>
      </trkpt>
      <trkpt lat="43.79101" lon="3.58179">
        <ele>554.82</ele>
        <time>2019-01-15T13:42:20Z</time>
      </trkpt>
      <trkpt lat="43.79101" lon="3.58182">
        <ele>554.82</ele>
        <time>2019-01-15T13:42:22Z</time>
      </trkpt>
      <trkpt lat="43.79105" lon="3.58189">
        <ele>554.34</ele>
        <time>2019-01-15T13:42:26Z</time>
      </trkpt>
      <trkpt lat="43.7911" lon="3.58202">
        <ele>553.86</ele>
        <time>2019-01-15T13:42:39Z</time>
      </trkpt>
      <trkpt lat="43.79109" lon="3.58204">
        <ele>555.78</ele>
        <time>2019-01-15T13:42:55Z</time>
      </trkpt>
      <trkpt lat="43.79108" lon="3.58206">
        <ele>562.03</ele>
        <time>2019-01-15T13:43:12Z</time>
      </trkpt>
      <trkpt lat="43.7911" lon="3.58207">
        <ele>562.51</ele>
        <time>2019-01-15T13:43:38Z</time>
      </trkpt>
      <trkpt lat="43.79103" lon="3.58215">
        <ele>563.95</ele>
        <time>2019-01-15T13:43:51Z</time>
      </trkpt>
      <trkpt lat="43.79097" lon="3.58221">
        <ele>565.87</ele>
        <time>2019-01-15T13:44:05Z</time>
      </trkpt>
      <trkpt lat="43.79087" lon="3.58222">
        <ele>566.83</ele>
        <time>2019-01-15T13:44:20Z</time>
      </trkpt>
      <trkpt lat="43.79076" lon="3.58231">
        <ele>567.8</ele>
        <time>2019-01-15T13:44:32Z</time>
      </trkpt>
      <trkpt lat="43.79072" lon="3.58235">
        <ele>570.2</ele>
        <time>2019-01-15T13:44:43Z</time>
      </trkpt>
      <trkpt lat="43.79066" lon="3.58258">
        <ele>569.72</ele>
        <time>2019-01-15T13:44:58Z</time>
      </trkpt>
      <trkpt lat="43.7906" lon="3.58275">
        <ele>573.08</ele>
        <time>2019-01-15T13:45:15Z</time>
      </trkpt>
      <trkpt lat="43.79053" lon="3.58289">
        <ele>575.01</ele>
        <time>2019-01-15T13:45:32Z</time>
      </trkpt>
      <trkpt lat="43.79044" lon="3.583">
        <ele>579.81</ele>
        <time>2019-01-15T13:45:50Z</time>
      </trkpt>
      <trkpt lat="43.79035" lon="3.58311">
        <ele>583.66</ele>
        <time>2019-01-15T13:46:05Z</time>
      </trkpt>
      <trkpt lat="43.79025" lon="3.58324">
        <ele>587.98</ele>
        <time>2019-01-15T13:46:21Z</time>
      </trkpt>
      <trkpt lat="43.79023" lon="3.58331">
        <ele>589.43</ele>
        <time>2019-01-15T13:46:28Z</time>
      </trkpt>
      <trkpt lat="43.79012" lon="3.58347">
        <ele>593.27</ele>
        <time>2019-01-15T13:46:48Z</time>
      </trkpt>
      <trkpt lat="43.79012" lon="3.58353">
        <ele>596.15</ele>
        <time>2019-01-15T13:47:02Z</time>
      </trkpt>
      <trkpt lat="43.79014" lon="3.58358">
        <ele>599.04</ele>
        <time>2019-01-15T13:47:25Z</time>
      </trkpt>
      <trkpt lat="43.79016" lon="3.58364">
        <ele>598.56</ele>
        <time>2019-01-15T13:47:38Z</time>
      </trkpt>
      <trkpt lat="43.79018" lon="3.58371">
        <ele>600.48</ele>
        <time>2019-01-15T13:47:56Z</time>
      </trkpt>
      <trkpt lat="43.79019" lon="3.58378">
        <ele>603.36</ele>
        <time>2019-01-15T13:48:10Z</time>
      </trkpt>
      <trkpt lat="43.79017" lon="3.58387">
        <ele>608.17</ele>
        <time>2019-01-15T13:48:24Z</time>
      </trkpt>
      <trkpt lat="43.79019" lon="3.58395">
        <ele>610.57</ele>
        <time>2019-01-15T13:48:38Z</time>
      </trkpt>
      <trkpt lat="43.79019" lon="3.58401">
        <ele>614.9</ele>
        <time>2019-01-15T13:48:54Z</time>
      </trkpt>
      <trkpt lat="43.79022" lon="3.58403">
        <ele>615.86</ele>
        <time>2019-01-15T13:49:09Z</time>
      </trkpt>
      <trkpt lat="43.79027" lon="3.58402">
        <ele>615.38</ele>
        <time>2019-01-15T13:49:24Z</time>
      </trkpt>
      <trkpt lat="43.79027" lon="3.584">
        <ele>620.19</ele>
        <time>2019-01-15T13:49:42Z</time>
      </trkpt>
      <trkpt lat="43.79029" lon="3.58399">
        <ele>621.15</ele>
        <time>2019-01-15T13:49:59Z</time>
      </trkpt>
      <trkpt lat="43.7903" lon="3.58402">
        <ele>621.15</ele>
        <time>2019-01-15T13:50:16Z</time>
      </trkpt>
      <trkpt lat="43.7903" lon="3.58401">
        <ele>621.15</ele>
        <time>2019-01-15T13:50:35Z</time>
      </trkpt>
      <trkpt lat="43.79029" lon="3.58403">
        <ele>619.71</ele>
        <time>2019-01-15T13:50:49Z</time>
      </trkpt>
      <trkpt lat="43.79028" lon="3.58401">
        <ele>621.15</ele>
        <time>2019-01-15T13:51:09Z</time>
      </trkpt>
      <trkpt lat="43.79029" lon="3.58404">
        <ele>622.59</ele>
        <time>2019-01-15T13:51:34Z</time>
      </trkpt>
      <trkpt lat="43.79029" lon="3.58405">
        <ele>624.51</ele>
        <time>2019-01-15T13:51:57Z</time>
      </trkpt>
      <trkpt lat="43.79029" lon="3.58405">
        <ele>625.47</ele>
        <time>2019-01-15T13:52:21Z</time>
      </trkpt>
      <trkpt lat="43.79029" lon="3.58405">
        <ele>625.47</ele>
        <time>2019-01-15T13:52:40Z</time>
      </trkpt>
      <trkpt lat="43.79027" lon="3.58404">
        <ele>626.44</ele>
        <time>2019-01-15T13:53:06Z</time>
      </trkpt>
      <trkpt lat="43.79027" lon="3.58404">
        <ele>626.92</ele>
        <time>2019-01-15T13:53:08Z</time>
      </trkpt>
      <trkpt lat="43.79027" lon="3.58402">
        <ele>625.96</ele>
        <time>2019-01-15T13:53:22Z</time>
      </trkpt>
      <trkpt lat="43.79027" lon="3.58402">
        <ele>624.51</ele>
        <time>2019-01-15T13:53:45Z</time>
      </trkpt>
      <trkpt lat="43.79028" lon="3.58404">
        <ele>624.99</ele>
        <time>2019-01-15T13:54:04Z</time>
      </trkpt>
      <trkpt lat="43.79029" lon="3.58408">
        <ele>625.47</ele>
        <time>2019-01-15T13:54:19Z</time>
      </trkpt>
      <trkpt lat="43.79031" lon="3.58411">
        <ele>626.92</ele>
        <time>2019-01-15T13:54:33Z</time>
      </trkpt>
      <trkpt lat="43.79032" lon="3.58412">
        <ele>630.76</ele>
        <time>2019-01-15T13:54:49Z</time>
      </trkpt>
      <trkpt lat="43.79028" lon="3.58415">
        <ele>633.65</ele>
        <time>2019-01-15T13:55:05Z</time>
      </trkpt>
      <trkpt lat="43.79026" lon="3.58421">
        <ele>635.09</ele>
        <time>2019-01-15T13:55:20Z</time>
      </trkpt>
      <trkpt lat="43.79024" lon="3.58425">
        <ele>636.53</ele>
        <time>2019-01-15T13:55:32Z</time>
      </trkpt>
      <trkpt lat="43.79024" lon="3.58425">
        <ele>635.09</ele>
        <time>2019-01-15T13:55:49Z</time>
      </trkpt>
      <trkpt lat="43.79019" lon="3.58429">
        <ele>635.57</ele>
        <time>2019-01-15T13:56:08Z</time>
      </trkpt>
      <trkpt lat="43.79015" lon="3.58435">
        <ele>637.97</ele>
        <time>2019-01-15T13:56:26Z</time>
      </trkpt>
      <trkpt lat="43.79013" lon="3.58441">
        <ele>640.38</ele>
        <time>2019-01-15T13:56:40Z</time>
      </trkpt>
      <trkpt lat="43.79011" lon="3.58448">
        <ele>643.26</ele>
        <time>2019-01-15T13:56:53Z</time>
      </trkpt>
      <trkpt lat="43.79011" lon="3.58449">
        <ele>645.18</ele>
        <time>2019-01-15T13:57:11Z</time>
      </trkpt>
      <trkpt lat="43.79013" lon="3.58451">
        <ele>645.66</ele>
        <time>2019-01-15T13:57:28Z</time>
      </trkpt>
      <trkpt lat="43.79015" lon="3.58454">
        <ele>646.62</ele>
        <time>2019-01-15T13:57:41Z</time>
      </trkpt>
      <trkpt lat="43.79021" lon="3.58452">
        <ele>645.66</ele>
        <time>2019-01-15T13:57:54Z</time>
      </trkpt>
      <trkpt lat="43.79022" lon="3.58459">
        <ele>645.18</ele>
        <time>2019-01-15T13:58:02Z</time>
      </trkpt>
      <trkpt lat="43.79023" lon="3.58462">
        <ele>645.66</ele>
        <time>2019-01-15T13:58:05Z</time>
      </trkpt>
      <trkpt lat="43.79025" lon="3.58466">
        <ele>645.66</ele>
        <time>2019-01-15T13:58:18Z</time>
      </trkpt>
      <trkpt lat="43.79025" lon="3.58465">
        <ele>645.66</ele>
        <time>2019-01-15T13:58:48Z</time>
      </trkpt>
      <trkpt lat="43.79025" lon="3.58465">
        <ele>645.18</ele>
        <time>2019-01-15T13:59:08Z</time>
      </trkpt>
      <trkpt lat="43.79032" lon="3.58462">
        <ele>645.66</ele>
        <time>2019-01-15T13:59:21Z</time>
      </trkpt>
      <trkpt lat="43.79032" lon="3.58461">
        <ele>645.66</ele>
        <time>2019-01-15T13:59:22Z</time>
      </trkpt>
      <trkpt lat="43.79036" lon="3.58454">
        <ele>646.62</ele>
        <time>2019-01-15T13:59:35Z</time>
      </trkpt>
      <trkpt lat="43.79043" lon="3.58449">
        <ele>645.66</ele>
        <time>2019-01-15T13:59:46Z</time>
      </trkpt>
      <trkpt lat="43.7905" lon="3.58444">
        <ele>645.18</ele>
        <time>2019-01-15T14:00:00Z</time>
      </trkpt>
      <trkpt lat="43.7905" lon="3.58444">
        <ele>646.62</ele>
        <time>2019-01-15T14:00:25Z</time>
      </trkpt>
      <trkpt lat="43.79049" lon="3.58443">
        <ele>646.14</ele>
        <time>2019-01-15T14:00:49Z</time>
      </trkpt>
      <trkpt lat="43.7905" lon="3.58442">
        <ele>645.18</ele>
        <time>2019-01-15T14:01:11Z</time>
      </trkpt>
      <trkpt lat="43.79046" lon="3.5844">
        <ele>644.22</ele>
        <time>2019-01-15T14:01:40Z</time>
      </trkpt>
      <trkpt lat="43.79048" lon="3.58442">
        <ele>645.18</ele>
        <time>2019-01-15T14:02:03Z</time>
      </trkpt>
      <trkpt lat="43.79048" lon="3.58444">
        <ele>643.26</ele>
        <time>2019-01-15T14:02:34Z</time>
      </trkpt>
      <trkpt lat="43.79045" lon="3.58444">
        <ele>645.18</ele>
        <time>2019-01-15T14:02:47Z</time>
      </trkpt>
      <trkpt lat="43.79048" lon="3.58453">
        <ele>644.22</ele>
        <time>2019-01-15T14:03:01Z</time>
      </trkpt>
      <trkpt lat="43.79047" lon="3.58459">
        <ele>648.07</ele>
        <time>2019-01-15T14:03:16Z</time>
      </trkpt>
      <trkpt lat="43.79045" lon="3.58464">
        <ele>648.07</ele>
        <time>2019-01-15T14:03:30Z</time>
      </trkpt>
      <trkpt lat="43.79048" lon="3.58474">
        <ele>649.03</ele>
        <time>2019-01-15T14:03:43Z</time>
      </trkpt>
      <trkpt lat="43.79053" lon="3.58479">
        <ele>650.95</ele>
        <time>2019-01-15T14:03:55Z</time>
      </trkpt>
      <trkpt lat="43.79058" lon="3.5848">
        <ele>652.39</ele>
        <time>2019-01-15T14:04:08Z</time>
      </trkpt>
      <trkpt lat="43.79062" lon="3.58478">
        <ele>653.35</ele>
        <time>2019-01-15T14:04:18Z</time>
      </trkpt>
      <trkpt lat="43.79069" lon="3.58475">
        <ele>654.31</ele>
        <time>2019-01-15T14:04:30Z</time>
      </trkpt>
      <trkpt lat="43.79077" lon="3.58481">
        <ele>653.83</ele>
        <time>2019-01-15T14:04:43Z</time>
      </trkpt>
      <trkpt lat="43.79085" lon="3.58483">
        <ele>654.8</ele>
        <time>2019-01-15T14:04:56Z</time>
      </trkpt>
      <trkpt lat="43.79086" lon="3.58482">
        <ele>654.31</ele>
        <time>2019-01-15T14:05:07Z</time>
      </trkpt>
      <trkpt lat="43.79088" lon="3.58488">
        <ele>653.83</ele>
        <time>2019-01-15T14:05:18Z</time>
      </trkpt>
      <trkpt lat="43.79094" lon="3.58495">
        <ele>653.83</ele>
        <time>2019-01-15T14:05:30Z</time>
      </trkpt>
      <trkpt lat="43.791" lon="3.58502">
        <ele>654.8</ele>
        <time>2019-01-15T14:05:43Z</time>
      </trkpt>
      <trkpt lat="43.79106" lon="3.58508">
        <ele>654.8</ele>
        <time>2019-01-15T14:05:56Z</time>
      </trkpt>
      <trkpt lat="43.79117" lon="3.58511">
        <ele>653.35</ele>
        <time>2019-01-15T14:06:11Z</time>
      </trkpt>
      <trkpt lat="43.7912" lon="3.58514">
        <ele>651.91</ele>
        <time>2019-01-15T14:06:33Z</time>
      </trkpt>
      <trkpt lat="43.7912" lon="3.58524">
        <ele>651.43</ele>
        <time>2019-01-15T14:06:42Z</time>
      </trkpt>
      <trkpt lat="43.79122" lon="3.5854">
        <ele>651.91</ele>
        <time>2019-01-15T14:06:55Z</time>
      </trkpt>
      <trkpt lat="43.79135" lon="3.58547">
        <ele>650.95</ele>
        <time>2019-01-15T14:07:08Z</time>
      </trkpt>
      <trkpt lat="43.79143" lon="3.58561">
        <ele>653.35</ele>
        <time>2019-01-15T14:07:21Z</time>
      </trkpt>
      <trkpt lat="43.79146" lon="3.58573">
        <ele>654.8</ele>
        <time>2019-01-15T14:07:30Z</time>
      </trkpt>
      <trkpt lat="43.7915" lon="3.58575">
        <ele>655.28</ele>
        <time>2019-01-15T14:07:34Z</time>
      </trkpt>
      <trkpt lat="43.79165" lon="3.58576">
        <ele>656.24</ele>
        <time>2019-01-15T14:07:49Z</time>
      </trkpt>
      <trkpt lat="43.79166" lon="3.58577">
        <ele>656.24</ele>
        <time>2019-01-15T14:07:50Z</time>
      </trkpt>
      <trkpt lat="43.79168" lon="3.58579">
        <ele>659.6</ele>
        <time>2019-01-15T14:08:05Z</time>
      </trkpt>
      <trkpt lat="43.7917" lon="3.5858">
        <ele>660.08</ele>
        <time>2019-01-15T14:08:18Z</time>
      </trkpt>
      <trkpt lat="43.79185" lon="3.58576">
        <ele>657.68</ele>
        <time>2019-01-15T14:08:32Z</time>
      </trkpt>
      <trkpt lat="43.79192" lon="3.5857">
        <ele>655.28</ele>
        <time>2019-01-15T14:08:47Z</time>
      </trkpt>
      <trkpt lat="43.79191" lon="3.58571">
        <ele>655.28</ele>
        <time>2019-01-15T14:09:08Z</time>
      </trkpt>
      <trkpt lat="43.79188" lon="3.58573">
        <ele>656.24</ele>
        <time>2019-01-15T14:09:22Z</time>
      </trkpt>
      <trkpt lat="43.7919" lon="3.5857">
        <ele>655.28</ele>
        <time>2019-01-15T14:09:37Z</time>
      </trkpt>
      <trkpt lat="43.7919" lon="3.58569">
        <ele>656.24</ele>
        <time>2019-01-15T14:10:02Z</time>
      </trkpt>
      <trkpt lat="43.7919" lon="3.58569">
        <ele>655.76</ele>
        <time>2019-01-15T14:10:28Z</time>
      </trkpt>
      <trkpt lat="43.79184" lon="3.58572">
        <ele>657.2</ele>
        <time>2019-01-15T14:10:55Z</time>
      </trkpt>
      <trkpt lat="43.79176" lon="3.58576">
        <ele>658.64</ele>
        <time>2019-01-15T14:11:06Z</time>
      </trkpt>
      <trkpt lat="43.79171" lon="3.5858">
        <ele>659.12</ele>
        <time>2019-01-15T14:11:16Z</time>
      </trkpt>
      <trkpt lat="43.79173" lon="3.58586">
        <ele>658.64</ele>
        <time>2019-01-15T14:11:20Z</time>
      </trkpt>
      <trkpt lat="43.79178" lon="3.58592">
        <ele>658.64</ele>
        <time>2019-01-15T14:11:27Z</time>
      </trkpt>
      <trkpt lat="43.7918" lon="3.58599">
        <ele>659.12</ele>
        <time>2019-01-15T14:11:34Z</time>
      </trkpt>
      <trkpt lat="43.79187" lon="3.586">
        <ele>658.64</ele>
        <time>2019-01-15T14:11:40Z</time>
      </trkpt>
      <trkpt lat="43.79192" lon="3.58608">
        <ele>656.24</ele>
        <time>2019-01-15T14:11:49Z</time>
      </trkpt>
      <trkpt lat="43.79196" lon="3.58612">
        <ele>656.24</ele>
        <time>2019-01-15T14:11:54Z</time>
      </trkpt>
      <trkpt lat="43.79201" lon="3.5861">
        <ele>655.76</ele>
        <time>2019-01-15T14:11:59Z</time>
      </trkpt>
      <trkpt lat="43.79206" lon="3.58615">
        <ele>654.8</ele>
        <time>2019-01-15T14:12:06Z</time>
      </trkpt>
      <trkpt lat="43.79208" lon="3.58621">
        <ele>653.35</ele>
        <time>2019-01-15T14:12:12Z</time>
      </trkpt>
      <trkpt lat="43.79211" lon="3.58623">
        <ele>652.39</ele>
        <time>2019-01-15T14:12:16Z</time>
      </trkpt>
      <trkpt lat="43.79219" lon="3.58627">
        <ele>650.95</ele>
        <time>2019-01-15T14:12:29Z</time>
      </trkpt>
      <trkpt lat="43.79218" lon="3.58629">
        <ele>655.76</ele>
        <time>2019-01-15T14:12:50Z</time>
      </trkpt>
      <trkpt lat="43.79218" lon="3.5863">
        <ele>658.16</ele>
        <time>2019-01-15T14:13:18Z</time>
      </trkpt>
      <trkpt lat="43.79219" lon="3.5863">
        <ele>657.68</ele>
        <time>2019-01-15T14:13:30Z</time>
      </trkpt>
      <trkpt lat="43.79222" lon="3.5863">
        <ele>656.72</ele>
        <time>2019-01-15T14:13:47Z</time>
      </trkpt>
      <trkpt lat="43.79223" lon="3.5863">
        <ele>657.68</ele>
        <time>2019-01-15T14:14:23Z</time>
      </trkpt>
      <trkpt lat="43.79224" lon="3.58629">
        <ele>657.68</ele>
        <time>2019-01-15T14:15:01Z</time>
      </trkpt>
      <trkpt lat="43.79224" lon="3.5863">
        <ele>657.68</ele>
        <time>2019-01-15T14:15:27Z</time>
      </trkpt>
      <trkpt lat="43.79223" lon="3.58629">
        <ele>656.24</ele>
        <time>2019-01-15T14:15:57Z</time>
      </trkpt>
      <trkpt lat="43.79222" lon="3.58628">
        <ele>656.24</ele>
        <time>2019-01-15T14:16:17Z</time>
      </trkpt>
      <trkpt lat="43.79219" lon="3.58632">
        <ele>655.76</ele>
        <time>2019-01-15T14:16:29Z</time>
      </trkpt>
      <trkpt lat="43.79214" lon="3.58646">
        <ele>655.28</ele>
        <time>2019-01-15T14:16:43Z</time>
      </trkpt>
      <trkpt lat="43.79213" lon="3.58648">
        <ele>655.28</ele>
        <time>2019-01-15T14:16:58Z</time>
      </trkpt>
      <trkpt lat="43.79213" lon="3.58649">
        <ele>655.76</ele>
        <time>2019-01-15T14:16:59Z</time>
      </trkpt>
      <trkpt lat="43.79212" lon="3.58653">
        <ele>656.72</ele>
        <time>2019-01-15T14:17:11Z</time>
      </trkpt>
      <trkpt lat="43.79213" lon="3.58654">
        <ele>657.68</ele>
        <time>2019-01-15T14:17:38Z</time>
      </trkpt>
      <trkpt lat="43.7922" lon="3.58659">
        <ele>654.8</ele>
        <time>2019-01-15T14:17:52Z</time>
      </trkpt>
      <trkpt lat="43.79227" lon="3.5866">
        <ele>652.39</ele>
        <time>2019-01-15T14:18:04Z</time>
      </trkpt>
      <trkpt lat="43.79232" lon="3.58669">
        <ele>649.99</ele>
        <time>2019-01-15T14:18:18Z</time>
      </trkpt>
      <trkpt lat="43.79235" lon="3.58677">
        <ele>649.03</ele>
        <time>2019-01-15T14:18:31Z</time>
      </trkpt>
      <trkpt lat="43.79239" lon="3.58678">
        <ele>647.59</ele>
        <time>2019-01-15T14:18:44Z</time>
      </trkpt>
      <trkpt lat="43.79244" lon="3.58685">
        <ele>646.14</ele>
        <time>2019-01-15T14:18:58Z</time>
      </trkpt>
      <trkpt lat="43.79244" lon="3.58688">
        <ele>645.18</ele>
        <time>2019-01-15T14:19:15Z</time>
      </trkpt>
      <trkpt lat="43.79245" lon="3.58692">
        <ele>644.22</ele>
        <time>2019-01-15T14:19:28Z</time>
      </trkpt>
      <trkpt lat="43.79247" lon="3.58694">
        <ele>644.22</ele>
        <time>2019-01-15T14:20:01Z</time>
      </trkpt>
      <trkpt lat="43.7925" lon="3.58697">
        <ele>642.78</ele>
        <time>2019-01-15T14:20:22Z</time>
      </trkpt>
      <trkpt lat="43.79254" lon="3.58702">
        <ele>640.86</ele>
        <time>2019-01-15T14:20:36Z</time>
      </trkpt>
      <trkpt lat="43.79258" lon="3.58704">
        <ele>639.41</ele>
        <time>2019-01-15T14:20:46Z</time>
      </trkpt>
      <trkpt lat="43.79263" lon="3.58712">
        <ele>637.01</ele>
        <time>2019-01-15T14:21:03Z</time>
      </trkpt>
      <trkpt lat="43.79269" lon="3.58717">
        <ele>637.01</ele>
        <time>2019-01-15T14:21:17Z</time>
      </trkpt>
      <trkpt lat="43.79273" lon="3.58725">
        <ele>634.13</ele>
        <time>2019-01-15T14:21:27Z</time>
      </trkpt>
      <trkpt lat="43.79281" lon="3.58736">
        <ele>633.65</ele>
        <time>2019-01-15T14:21:41Z</time>
      </trkpt>
      <trkpt lat="43.79285" lon="3.58741">
        <ele>632.68</ele>
        <time>2019-01-15T14:21:52Z</time>
      </trkpt>
      <trkpt lat="43.7929" lon="3.58748">
        <ele>631.72</ele>
        <time>2019-01-15T14:22:06Z</time>
      </trkpt>
      <trkpt lat="43.79294" lon="3.5875">
        <ele>630.76</ele>
        <time>2019-01-15T14:22:19Z</time>
      </trkpt>
      <trkpt lat="43.79298" lon="3.58746">
        <ele>627.88</ele>
        <time>2019-01-15T14:22:33Z</time>
      </trkpt>
      <trkpt lat="43.79302" lon="3.58749">
        <ele>625.47</ele>
        <time>2019-01-15T14:22:45Z</time>
      </trkpt>
      <trkpt lat="43.79309" lon="3.58754">
        <ele>624.03</ele>
        <time>2019-01-15T14:22:57Z</time>
      </trkpt>
      <trkpt lat="43.79314" lon="3.5876">
        <ele>623.07</ele>
        <time>2019-01-15T14:23:10Z</time>
      </trkpt>
      <trkpt lat="43.79319" lon="3.58767">
        <ele>622.11</ele>
        <time>2019-01-15T14:23:25Z</time>
      </trkpt>
      <trkpt lat="43.79322" lon="3.58772">
        <ele>619.71</ele>
        <time>2019-01-15T14:23:39Z</time>
      </trkpt>
      <trkpt lat="43.79328" lon="3.58779">
        <ele>618.26</ele>
        <time>2019-01-15T14:23:53Z</time>
      </trkpt>
      <trkpt lat="43.79329" lon="3.58782">
        <ele>618.26</ele>
        <time>2019-01-15T14:24:07Z</time>
      </trkpt>
      <trkpt lat="43.79335" lon="3.58784">
        <ele>617.3</ele>
        <time>2019-01-15T14:24:21Z</time>
      </trkpt>
      <trkpt lat="43.79341" lon="3.58791">
        <ele>615.38</ele>
        <time>2019-01-15T14:24:34Z</time>
      </trkpt>
      <trkpt lat="43.7935" lon="3.58799">
        <ele>613.94</ele>
        <time>2019-01-15T14:24:47Z</time>
      </trkpt>
      <trkpt lat="43.79359" lon="3.58802">
        <ele>612.5</ele>
        <time>2019-01-15T14:25:01Z</time>
      </trkpt>
      <trkpt lat="43.79365" lon="3.58805">
        <ele>611.06</ele>
        <time>2019-01-15T14:25:11Z</time>
      </trkpt>
      <trkpt lat="43.79369" lon="3.58801">
        <ele>609.13</ele>
        <time>2019-01-15T14:25:19Z</time>
      </trkpt>
      <trkpt lat="43.79378" lon="3.58811">
        <ele>605.29</ele>
        <time>2019-01-15T14:25:34Z</time>
      </trkpt>
      <trkpt lat="43.79381" lon="3.58812">
        <ele>603.85</ele>
        <time>2019-01-15T14:25:47Z</time>
      </trkpt>
      <trkpt lat="43.79385" lon="3.58814">
        <ele>602.88</ele>
        <time>2019-01-15T14:26:02Z</time>
      </trkpt>
      <trkpt lat="43.79391" lon="3.58815">
        <ele>600.96</ele>
        <time>2019-01-15T14:26:16Z</time>
      </trkpt>
      <trkpt lat="43.79394" lon="3.58817">
        <ele>599.52</ele>
        <time>2019-01-15T14:26:29Z</time>
      </trkpt>
      <trkpt lat="43.79396" lon="3.58816">
        <ele>597.12</ele>
        <time>2019-01-15T14:26:43Z</time>
      </trkpt>
      <trkpt lat="43.79398" lon="3.58817">
        <ele>596.15</ele>
        <time>2019-01-15T14:26:57Z</time>
      </trkpt>
      <trkpt lat="43.79401" lon="3.58814">
        <ele>594.71</ele>
        <time>2019-01-15T14:27:10Z</time>
      </trkpt>
      <trkpt lat="43.79404" lon="3.58812">
        <ele>592.79</ele>
        <time>2019-01-15T14:27:24Z</time>
      </trkpt>
      <trkpt lat="43.79407" lon="3.58817">
        <ele>593.75</ele>
        <time>2019-01-15T14:27:38Z</time>
      </trkpt>
      <trkpt lat="43.79415" lon="3.58818">
        <ele>592.79</ele>
        <time>2019-01-15T14:27:51Z</time>
      </trkpt>
      <trkpt lat="43.7942" lon="3.58825">
        <ele>592.31</ele>
        <time>2019-01-15T14:28:04Z</time>
      </trkpt>
      <trkpt lat="43.79426" lon="3.58831">
        <ele>591.35</ele>
        <time>2019-01-15T14:28:18Z</time>
      </trkpt>
      <trkpt lat="43.79434" lon="3.58836">
        <ele>590.87</ele>
        <time>2019-01-15T14:28:30Z</time>
      </trkpt>
      <trkpt lat="43.7944" lon="3.5884">
        <ele>590.87</ele>
        <time>2019-01-15T14:28:41Z</time>
      </trkpt>
      <trkpt lat="43.79445" lon="3.58844">
        <ele>590.39</ele>
        <time>2019-01-15T14:28:53Z</time>
      </trkpt>
      <trkpt lat="43.7945" lon="3.58846">
        <ele>590.39</ele>
        <time>2019-01-15T14:29:06Z</time>
      </trkpt>
      <trkpt lat="43.79449" lon="3.58841">
        <ele>590.87</ele>
        <time>2019-01-15T14:29:19Z</time>
      </trkpt>
      <trkpt lat="43.79453" lon="3.58842">
        <ele>589.43</ele>
        <time>2019-01-15T14:29:38Z</time>
      </trkpt>
      <trkpt lat="43.79458" lon="3.58841">
        <ele>587.02</ele>
        <time>2019-01-15T14:29:50Z</time>
      </trkpt>
      <trkpt lat="43.79463" lon="3.58841">
        <ele>584.14</ele>
        <time>2019-01-15T14:30:04Z</time>
      </trkpt>
      <trkpt lat="43.79468" lon="3.58847">
        <ele>582.7</ele>
        <time>2019-01-15T14:30:18Z</time>
      </trkpt>
      <trkpt lat="43.79467" lon="3.58851">
        <ele>583.18</ele>
        <time>2019-01-15T14:30:35Z</time>
      </trkpt>
      <trkpt lat="43.79469" lon="3.58851">
        <ele>582.7</ele>
        <time>2019-01-15T14:30:57Z</time>
      </trkpt>
      <trkpt lat="43.79469" lon="3.58854">
        <ele>583.66</ele>
        <time>2019-01-15T14:31:16Z</time>
      </trkpt>
      <trkpt lat="43.79467" lon="3.58854">
        <ele>582.7</ele>
        <time>2019-01-15T14:31:32Z</time>
      </trkpt>
      <trkpt lat="43.79462" lon="3.58854">
        <ele>580.77</ele>
        <time>2019-01-15T14:31:43Z</time>
      </trkpt>
      <trkpt lat="43.79458" lon="3.58861">
        <ele>576.93</ele>
        <time>2019-01-15T14:31:56Z</time>
      </trkpt>
      <trkpt lat="43.79456" lon="3.58867">
        <ele>576.45</ele>
        <time>2019-01-15T14:32:08Z</time>
      </trkpt>
      <trkpt lat="43.79453" lon="3.58868">
        <ele>576.93</ele>
        <time>2019-01-15T14:32:11Z</time>
      </trkpt>
      <trkpt lat="43.79454" lon="3.58876">
        <ele>579.33</ele>
        <time>2019-01-15T14:32:25Z</time>
      </trkpt>
      <trkpt lat="43.79459" lon="3.58874">
        <ele>582.7</ele>
        <time>2019-01-15T14:32:37Z</time>
      </trkpt>
      <trkpt lat="43.79461" lon="3.58864">
        <ele>583.18</ele>
        <time>2019-01-15T14:32:49Z</time>
      </trkpt>
      <trkpt lat="43.79468" lon="3.58858">
        <ele>585.1</ele>
        <time>2019-01-15T14:33:02Z</time>
      </trkpt>
      <trkpt lat="43.79475" lon="3.58863">
        <ele>586.06</ele>
        <time>2019-01-15T14:33:17Z</time>
      </trkpt>
      <trkpt lat="43.79481" lon="3.58868">
        <ele>585.58</ele>
        <time>2019-01-15T14:33:28Z</time>
      </trkpt>
      <trkpt lat="43.79482" lon="3.58876">
        <ele>584.14</ele>
        <time>2019-01-15T14:33:41Z</time>
      </trkpt>
      <trkpt lat="43.79488" lon="3.58884">
        <ele>582.7</ele>
        <time>2019-01-15T14:34:00Z</time>
      </trkpt>
      <trkpt lat="43.79491" lon="3.58892">
        <ele>581.25</ele>
        <time>2019-01-15T14:34:14Z</time>
      </trkpt>
      <trkpt lat="43.79494" lon="3.58897">
        <ele>579.81</ele>
        <time>2019-01-15T14:34:26Z</time>
      </trkpt>
      <trkpt lat="43.79496" lon="3.58902">
        <ele>576.45</ele>
        <time>2019-01-15T14:34:40Z</time>
      </trkpt>
      <trkpt lat="43.795" lon="3.58908">
        <ele>573.56</ele>
        <time>2019-01-15T14:34:54Z</time>
      </trkpt>
      <trkpt lat="43.79507" lon="3.58911">
        <ele>573.56</ele>
        <time>2019-01-15T14:35:09Z</time>
      </trkpt>
      <trkpt lat="43.79507" lon="3.5892">
        <ele>572.6</ele>
        <time>2019-01-15T14:35:23Z</time>
      </trkpt>
      <trkpt lat="43.79507" lon="3.58927">
        <ele>575.49</ele>
        <time>2019-01-15T14:35:37Z</time>
      </trkpt>
      <trkpt lat="43.79513" lon="3.58931">
        <ele>573.56</ele>
        <time>2019-01-15T14:35:50Z</time>
      </trkpt>
      <trkpt lat="43.79513" lon="3.58934">
        <ele>575.97</ele>
        <time>2019-01-15T14:36:10Z</time>
      </trkpt>
      <trkpt lat="43.79513" lon="3.58934">
        <ele>577.41</ele>
        <time>2019-01-15T14:36:42Z</time>
      </trkpt>
      <trkpt lat="43.79513" lon="3.58935">
        <ele>578.37</ele>
        <time>2019-01-15T14:37:10Z</time>
      </trkpt>
      <trkpt lat="43.79517" lon="3.58939">
        <ele>575.97</ele>
        <time>2019-01-15T14:37:23Z</time>
      </trkpt>
      <trkpt lat="43.79521" lon="3.5894">
        <ele>576.45</ele>
        <time>2019-01-15T14:37:39Z</time>
      </trkpt>
      <trkpt lat="43.79523" lon="3.5894">
        <ele>575.49</ele>
        <time>2019-01-15T14:37:56Z</time>
      </trkpt>
      <trkpt lat="43.79523" lon="3.58938">
        <ele>573.56</ele>
        <time>2019-01-15T14:38:09Z</time>
      </trkpt>
      <trkpt lat="43.79525" lon="3.58941">
        <ele>572.12</ele>
        <time>2019-01-15T14:38:24Z</time>
      </trkpt>
      <trkpt lat="43.79526" lon="3.58942">
        <ele>571.64</ele>
        <time>2019-01-15T14:38:39Z</time>
      </trkpt>
      <trkpt lat="43.79529" lon="3.58945">
        <ele>570.68</ele>
        <time>2019-01-15T14:38:54Z</time>
      </trkpt>
      <trkpt lat="43.7953" lon="3.58946">
        <ele>566.83</ele>
        <time>2019-01-15T14:39:11Z</time>
      </trkpt>
      <trkpt lat="43.79536" lon="3.5895">
        <ele>565.39</ele>
        <time>2019-01-15T14:39:24Z</time>
      </trkpt>
      <trkpt lat="43.79535" lon="3.58954">
        <ele>565.87</ele>
        <time>2019-01-15T14:39:36Z</time>
      </trkpt>
      <trkpt lat="43.79534" lon="3.58956">
        <ele>566.35</ele>
        <time>2019-01-15T14:39:42Z</time>
      </trkpt>
      <trkpt lat="43.79536" lon="3.58962">
        <ele>566.83</ele>
        <time>2019-01-15T14:39:56Z</time>
      </trkpt>
      <trkpt lat="43.79532" lon="3.58964">
        <ele>567.8</ele>
        <time>2019-01-15T14:40:13Z</time>
      </trkpt>
      <trkpt lat="43.79528" lon="3.58964">
        <ele>568.28</ele>
        <time>2019-01-15T14:40:26Z</time>
      </trkpt>
      <trkpt lat="43.79527" lon="3.58966">
        <ele>566.83</ele>
        <time>2019-01-15T14:40:42Z</time>
      </trkpt>
      <trkpt lat="43.79526" lon="3.58971">
        <ele>565.39</ele>
        <time>2019-01-15T14:40:57Z</time>
      </trkpt>
      <trkpt lat="43.79527" lon="3.5898">
        <ele>562.99</ele>
        <time>2019-01-15T14:41:09Z</time>
      </trkpt>
      <trkpt lat="43.79528" lon="3.58983">
        <ele>562.51</ele>
        <time>2019-01-15T14:41:12Z</time>
      </trkpt>
      <trkpt lat="43.79532" lon="3.58988">
        <ele>561.55</ele>
        <time>2019-01-15T14:41:17Z</time>
      </trkpt>
      <trkpt lat="43.79539" lon="3.59001">
        <ele>562.51</ele>
        <time>2019-01-15T14:41:31Z</time>
      </trkpt>
      <trkpt lat="43.7954" lon="3.59013">
        <ele>562.99</ele>
        <time>2019-01-15T14:41:42Z</time>
      </trkpt>
      <trkpt lat="43.79545" lon="3.59022">
        <ele>561.07</ele>
        <time>2019-01-15T14:41:55Z</time>
      </trkpt>
      <trkpt lat="43.79547" lon="3.5903">
        <ele>561.07</ele>
        <time>2019-01-15T14:42:09Z</time>
      </trkpt>
      <trkpt lat="43.7955" lon="3.59038">
        <ele>562.51</ele>
        <time>2019-01-15T14:42:21Z</time>
      </trkpt>
      <trkpt lat="43.79555" lon="3.5904">
        <ele>562.99</ele>
        <time>2019-01-15T14:42:33Z</time>
      </trkpt>
      <trkpt lat="43.79554" lon="3.59041">
        <ele>565.39</ele>
        <time>2019-01-15T14:43:00Z</time>
      </trkpt>
      <trkpt lat="43.79553" lon="3.59042">
        <ele>566.83</ele>
        <time>2019-01-15T14:43:26Z</time>
      </trkpt>
      <trkpt lat="43.79562" lon="3.59042">
        <ele>564.43</ele>
        <time>2019-01-15T14:43:40Z</time>
      </trkpt>
      <trkpt lat="43.79571" lon="3.59056">
        <ele>562.99</ele>
        <time>2019-01-15T14:43:53Z</time>
      </trkpt>
      <trkpt lat="43.79573" lon="3.5906">
        <ele>562.99</ele>
        <time>2019-01-15T14:43:57Z</time>
      </trkpt>
      <trkpt lat="43.79579" lon="3.59072">
        <ele>562.03</ele>
        <time>2019-01-15T14:44:11Z</time>
      </trkpt>
      <trkpt lat="43.7958" lon="3.59075">
        <ele>561.55</ele>
        <time>2019-01-15T14:44:15Z</time>
      </trkpt>
      <trkpt lat="43.79587" lon="3.59085">
        <ele>562.03</ele>
        <time>2019-01-15T14:44:29Z</time>
      </trkpt>
      <trkpt lat="43.79593" lon="3.59087">
        <ele>561.55</ele>
        <time>2019-01-15T14:44:43Z</time>
      </trkpt>
      <trkpt lat="43.79594" lon="3.59087">
        <ele>561.55</ele>
        <time>2019-01-15T14:45:07Z</time>
      </trkpt>
      <trkpt lat="43.7959" lon="3.59091">
        <ele>562.03</ele>
        <time>2019-01-15T14:45:33Z</time>
      </trkpt>
      <trkpt lat="43.7959" lon="3.59095">
        <ele>561.07</ele>
        <time>2019-01-15T14:45:47Z</time>
      </trkpt>
      <trkpt lat="43.79589" lon="3.59098">
        <ele>561.07</ele>
        <time>2019-01-15T14:45:59Z</time>
      </trkpt>
      <trkpt lat="43.79589" lon="3.591">
        <ele>559.62</ele>
        <time>2019-01-15T14:46:12Z</time>
      </trkpt>
      <trkpt lat="43.79584" lon="3.59098">
        <ele>559.62</ele>
        <time>2019-01-15T14:46:28Z</time>
      </trkpt>
      <trkpt lat="43.79585" lon="3.59098">
        <ele>559.62</ele>
        <time>2019-01-15T14:46:44Z</time>
      </trkpt>
      <trkpt lat="43.79587" lon="3.59101">
        <ele>561.55</ele>
        <time>2019-01-15T14:47:15Z</time>
      </trkpt>
      <trkpt lat="43.79591" lon="3.59105">
        <ele>562.51</ele>
        <time>2019-01-15T14:47:28Z</time>
      </trkpt>
      <trkpt lat="43.79594" lon="3.59106">
        <ele>561.55</ele>
        <time>2019-01-15T14:47:32Z</time>
      </trkpt>
      <trkpt lat="43.79598" lon="3.5911">
        <ele>559.62</ele>
        <time>2019-01-15T14:47:45Z</time>
      </trkpt>
      <trkpt lat="43.79597" lon="3.59118">
        <ele>558.18</ele>
        <time>2019-01-15T14:47:58Z</time>
      </trkpt>
      <trkpt lat="43.79598" lon="3.59124">
        <ele>559.14</ele>
        <time>2019-01-15T14:48:12Z</time>
      </trkpt>
      <trkpt lat="43.79602" lon="3.59131">
        <ele>560.59</ele>
        <time>2019-01-15T14:48:23Z</time>
      </trkpt>
      <trkpt lat="43.79606" lon="3.59136">
        <ele>561.55</ele>
        <time>2019-01-15T14:48:28Z</time>
      </trkpt>
      <trkpt lat="43.79615" lon="3.59143">
        <ele>563.47</ele>
        <time>2019-01-15T14:48:41Z</time>
      </trkpt>
      <trkpt lat="43.79622" lon="3.59151">
        <ele>565.39</ele>
        <time>2019-01-15T14:48:56Z</time>
      </trkpt>
      <trkpt lat="43.7963" lon="3.59163">
        <ele>564.43</ele>
        <time>2019-01-15T14:49:11Z</time>
      </trkpt>
      <trkpt lat="43.79638" lon="3.59171">
        <ele>566.35</ele>
        <time>2019-01-15T14:49:24Z</time>
      </trkpt>
      <trkpt lat="43.79644" lon="3.59175">
        <ele>567.32</ele>
        <time>2019-01-15T14:49:33Z</time>
      </trkpt>
      <trkpt lat="43.79653" lon="3.59182">
        <ele>567.8</ele>
        <time>2019-01-15T14:49:44Z</time>
      </trkpt>
      <trkpt lat="43.79659" lon="3.59184">
        <ele>568.76</ele>
        <time>2019-01-15T14:49:50Z</time>
      </trkpt>
      <trkpt lat="43.79671" lon="3.59188">
        <ele>570.2</ele>
        <time>2019-01-15T14:50:04Z</time>
      </trkpt>
      <trkpt lat="43.79676" lon="3.59195">
        <ele>569.24</ele>
        <time>2019-01-15T14:50:18Z</time>
      </trkpt>
      <trkpt lat="43.7968" lon="3.59206">
        <ele>566.83</ele>
        <time>2019-01-15T14:50:31Z</time>
      </trkpt>
      <trkpt lat="43.79685" lon="3.59215">
        <ele>564.91</ele>
        <time>2019-01-15T14:50:45Z</time>
      </trkpt>
      <trkpt lat="43.79693" lon="3.59227">
        <ele>562.99</ele>
        <time>2019-01-15T14:50:59Z</time>
      </trkpt>
      <trkpt lat="43.79698" lon="3.59232">
        <ele>562.99</ele>
        <time>2019-01-15T14:51:05Z</time>
      </trkpt>
      <trkpt lat="43.797" lon="3.59234">
        <ele>562.51</ele>
        <time>2019-01-15T14:51:08Z</time>
      </trkpt>
      <trkpt lat="43.79708" lon="3.59245">
        <ele>562.51</ele>
        <time>2019-01-15T14:51:23Z</time>
      </trkpt>
      <trkpt lat="43.79711" lon="3.59251">
        <ele>562.99</ele>
        <time>2019-01-15T14:51:37Z</time>
      </trkpt>
      <trkpt lat="43.79715" lon="3.59255">
        <ele>563.47</ele>
        <time>2019-01-15T14:51:43Z</time>
      </trkpt>
      <trkpt lat="43.79727" lon="3.59267">
        <ele>565.87</ele>
        <time>2019-01-15T14:51:57Z</time>
      </trkpt>
      <trkpt lat="43.79731" lon="3.59273">
        <ele>563.47</ele>
        <time>2019-01-15T14:52:13Z</time>
      </trkpt>
      <trkpt lat="43.79735" lon="3.59287">
        <ele>563.95</ele>
        <time>2019-01-15T14:52:26Z</time>
      </trkpt>
      <trkpt lat="43.79738" lon="3.59303">
        <ele>560.11</ele>
        <time>2019-01-15T14:52:38Z</time>
      </trkpt>
      <trkpt lat="43.79742" lon="3.5932">
        <ele>556.26</ele>
        <time>2019-01-15T14:52:52Z</time>
      </trkpt>
      <trkpt lat="43.79742" lon="3.59327">
        <ele>553.86</ele>
        <time>2019-01-15T14:53:16Z</time>
      </trkpt>
      <trkpt lat="43.79743" lon="3.59341">
        <ele>551.93</ele>
        <time>2019-01-15T14:53:29Z</time>
      </trkpt>
      <trkpt lat="43.79747" lon="3.59354">
        <ele>550.49</ele>
        <time>2019-01-15T14:53:43Z</time>
      </trkpt>
      <trkpt lat="43.7975" lon="3.5937">
        <ele>548.57</ele>
        <time>2019-01-15T14:53:56Z</time>
      </trkpt>
      <trkpt lat="43.79756" lon="3.59397">
        <ele>547.61</ele>
        <time>2019-01-15T14:54:12Z</time>
      </trkpt>
      <trkpt lat="43.79762" lon="3.59408">
        <ele>547.13</ele>
        <time>2019-01-15T14:54:21Z</time>
      </trkpt>
      <trkpt lat="43.79769" lon="3.59414">
        <ele>547.13</ele>
        <time>2019-01-15T14:54:31Z</time>
      </trkpt>
      <trkpt lat="43.7977" lon="3.59416">
        <ele>547.13</ele>
        <time>2019-01-15T14:54:33Z</time>
      </trkpt>
      <trkpt lat="43.79773" lon="3.59418">
        <ele>547.61</ele>
        <time>2019-01-15T14:54:36Z</time>
      </trkpt>
      <trkpt lat="43.79773" lon="3.5942">
        <ele>547.61</ele>
        <time>2019-01-15T14:54:38Z</time>
      </trkpt>
      <trkpt lat="43.7978" lon="3.5943">
        <ele>547.61</ele>
        <time>2019-01-15T14:54:50Z</time>
      </trkpt>
      <trkpt lat="43.7979" lon="3.59437">
        <ele>548.09</ele>
        <time>2019-01-15T14:55:04Z</time>
      </trkpt>
      <trkpt lat="43.79792" lon="3.59443">
        <ele>546.65</ele>
        <time>2019-01-15T14:55:10Z</time>
      </trkpt>
      <trkpt lat="43.79793" lon="3.59444">
        <ele>546.65</ele>
        <time>2019-01-15T14:55:12Z</time>
      </trkpt>
      <trkpt lat="43.79806" lon="3.59461">
        <ele>546.17</ele>
        <time>2019-01-15T14:55:27Z</time>
      </trkpt>
      <trkpt lat="43.79813" lon="3.59469">
        <ele>547.13</ele>
        <time>2019-01-15T14:55:35Z</time>
      </trkpt>
      <trkpt lat="43.79822" lon="3.59477">
        <ele>545.69</ele>
        <time>2019-01-15T14:55:48Z</time>
      </trkpt>
      <trkpt lat="43.7982" lon="3.59484">
        <ele>544.72</ele>
        <time>2019-01-15T14:55:59Z</time>
      </trkpt>
      <trkpt lat="43.7982" lon="3.59489">
        <ele>543.28</ele>
        <time>2019-01-15T14:56:10Z</time>
      </trkpt>
      <trkpt lat="43.79819" lon="3.59492">
        <ele>541.36</ele>
        <time>2019-01-15T14:56:31Z</time>
      </trkpt>
      <trkpt lat="43.79817" lon="3.59491">
        <ele>542.32</ele>
        <time>2019-01-15T14:57:04Z</time>
      </trkpt>
      <trkpt lat="43.7982" lon="3.59491">
        <ele>541.84</ele>
        <time>2019-01-15T14:57:20Z</time>
      </trkpt>
      <trkpt lat="43.79826" lon="3.59495">
        <ele>539.92</ele>
        <time>2019-01-15T14:57:27Z</time>
      </trkpt>
      <trkpt lat="43.79824" lon="3.59503">
        <ele>539.44</ele>
        <time>2019-01-15T14:57:39Z</time>
      </trkpt>
      <trkpt lat="43.79823" lon="3.59508">
        <ele>537.51</ele>
        <time>2019-01-15T14:57:53Z</time>
      </trkpt>
      <trkpt lat="43.79827" lon="3.59518">
        <ele>534.63</ele>
        <time>2019-01-15T14:58:06Z</time>
      </trkpt>
      <trkpt lat="43.79824" lon="3.59523">
        <ele>532.71</ele>
        <time>2019-01-15T14:58:19Z</time>
      </trkpt>
      <trkpt lat="43.79825" lon="3.59533">
        <ele>530.79</ele>
        <time>2019-01-15T14:58:28Z</time>
      </trkpt>
      <trkpt lat="43.79827" lon="3.59538">
        <ele>529.82</ele>
        <time>2019-01-15T14:58:32Z</time>
      </trkpt>
      <trkpt lat="43.79827" lon="3.59541">
        <ele>529.34</ele>
        <time>2019-01-15T14:58:34Z</time>
      </trkpt>
      <trkpt lat="43.79835" lon="3.59548">
        <ele>528.38</ele>
        <time>2019-01-15T14:58:45Z</time>
      </trkpt>
      <trkpt lat="43.79843" lon="3.59557">
        <ele>525.5</ele>
        <time>2019-01-15T14:58:58Z</time>
      </trkpt>
      <trkpt lat="43.79843" lon="3.59568">
        <ele>523.09</ele>
        <time>2019-01-15T14:59:10Z</time>
      </trkpt>
      <trkpt lat="43.79844" lon="3.59578">
        <ele>520.69</ele>
        <time>2019-01-15T14:59:22Z</time>
      </trkpt>
      <trkpt lat="43.79851" lon="3.59586">
        <ele>517.33</ele>
        <time>2019-01-15T14:59:34Z</time>
      </trkpt>
      <trkpt lat="43.79856" lon="3.59598">
        <ele>513.96</ele>
        <time>2019-01-15T14:59:47Z</time>
      </trkpt>
      <trkpt lat="43.79857" lon="3.59606">
        <ele>513.48</ele>
        <time>2019-01-15T14:59:58Z</time>
      </trkpt>
      <trkpt lat="43.79857" lon="3.59608">
        <ele>513</ele>
        <time>2019-01-15T15:00:00Z</time>
      </trkpt>
      <trkpt lat="43.79862" lon="3.59618">
        <ele>511.08</ele>
        <time>2019-01-15T15:00:11Z</time>
      </trkpt>
      <trkpt lat="43.79861" lon="3.59624">
        <ele>508.67</ele>
        <time>2019-01-15T15:00:24Z</time>
      </trkpt>
      <trkpt lat="43.79866" lon="3.5963">
        <ele>506.75</ele>
        <time>2019-01-15T15:00:37Z</time>
      </trkpt>
      <trkpt lat="43.7987" lon="3.59631">
        <ele>503.39</ele>
        <time>2019-01-15T15:00:49Z</time>
      </trkpt>
      <trkpt lat="43.79879" lon="3.59639">
        <ele>500.98</ele>
        <time>2019-01-15T15:01:03Z</time>
      </trkpt>
      <trkpt lat="43.79882" lon="3.59646">
        <ele>500.5</ele>
        <time>2019-01-15T15:01:11Z</time>
      </trkpt>
      <trkpt lat="43.79877" lon="3.59657">
        <ele>499.54</ele>
        <time>2019-01-15T15:01:25Z</time>
      </trkpt>
      <trkpt lat="43.79879" lon="3.5967">
        <ele>498.1</ele>
        <time>2019-01-15T15:01:35Z</time>
      </trkpt>
      <trkpt lat="43.79879" lon="3.59682">
        <ele>496.66</ele>
        <time>2019-01-15T15:01:47Z</time>
      </trkpt>
      <trkpt lat="43.79879" lon="3.59683">
        <ele>496.66</ele>
        <time>2019-01-15T15:01:48Z</time>
      </trkpt>
      <trkpt lat="43.79885" lon="3.59692">
        <ele>496.66</ele>
        <time>2019-01-15T15:01:55Z</time>
      </trkpt>
      <trkpt lat="43.79888" lon="3.59699">
        <ele>497.14</ele>
        <time>2019-01-15T15:02:00Z</time>
      </trkpt>
      <trkpt lat="43.79891" lon="3.59711">
        <ele>495.7</ele>
        <time>2019-01-15T15:02:13Z</time>
      </trkpt>
      <trkpt lat="43.79897" lon="3.59712">
        <ele>494.74</ele>
        <time>2019-01-15T15:02:26Z</time>
      </trkpt>
      <trkpt lat="43.79905" lon="3.59716">
        <ele>492.81</ele>
        <time>2019-01-15T15:02:39Z</time>
      </trkpt>
      <trkpt lat="43.79913" lon="3.5972">
        <ele>491.37</ele>
        <time>2019-01-15T15:02:51Z</time>
      </trkpt>
      <trkpt lat="43.79921" lon="3.59724">
        <ele>486.56</ele>
        <time>2019-01-15T15:03:05Z</time>
      </trkpt>
      <trkpt lat="43.79926" lon="3.59724">
        <ele>485.6</ele>
        <time>2019-01-15T15:03:11Z</time>
      </trkpt>
      <trkpt lat="43.7993" lon="3.59724">
        <ele>484.16</ele>
        <time>2019-01-15T15:03:15Z</time>
      </trkpt>
      <trkpt lat="43.79933" lon="3.59723">
        <ele>484.16</ele>
        <time>2019-01-15T15:03:18Z</time>
      </trkpt>
      <trkpt lat="43.79941" lon="3.59727">
        <ele>481.76</ele>
        <time>2019-01-15T15:03:31Z</time>
      </trkpt>
      <trkpt lat="43.79941" lon="3.59727">
        <ele>479.35</ele>
        <time>2019-01-15T15:03:48Z</time>
      </trkpt>
      <trkpt lat="43.79942" lon="3.59729">
        <ele>478.87</ele>
        <time>2019-01-15T15:04:08Z</time>
      </trkpt>
      <trkpt lat="43.79947" lon="3.59729">
        <ele>475.99</ele>
        <time>2019-01-15T15:04:22Z</time>
      </trkpt>
      <trkpt lat="43.79954" lon="3.59728">
        <ele>473.59</ele>
        <time>2019-01-15T15:04:37Z</time>
      </trkpt>
      <trkpt lat="43.79962" lon="3.5973">
        <ele>472.14</ele>
        <time>2019-01-15T15:04:49Z</time>
      </trkpt>
      <trkpt lat="43.7997" lon="3.59734">
        <ele>467.34</ele>
        <time>2019-01-15T15:05:03Z</time>
      </trkpt>
      <trkpt lat="43.79974" lon="3.59737">
        <ele>465.9</ele>
        <time>2019-01-15T15:05:15Z</time>
      </trkpt>
      <trkpt lat="43.79979" lon="3.59742">
        <ele>462.05</ele>
        <time>2019-01-15T15:05:28Z</time>
      </trkpt>
      <trkpt lat="43.79984" lon="3.5974">
        <ele>461.57</ele>
        <time>2019-01-15T15:05:34Z</time>
      </trkpt>
      <trkpt lat="43.79994" lon="3.59734">
        <ele>456.76</ele>
        <time>2019-01-15T15:05:47Z</time>
      </trkpt>
      <trkpt lat="43.8" lon="3.59738">
        <ele>455.32</ele>
        <time>2019-01-15T15:05:59Z</time>
      </trkpt>
      <trkpt lat="43.80007" lon="3.59745">
        <ele>452.44</ele>
        <time>2019-01-15T15:06:12Z</time>
      </trkpt>
      <trkpt lat="43.80013" lon="3.59751">
        <ele>450.52</ele>
        <time>2019-01-15T15:06:24Z</time>
      </trkpt>
      <trkpt lat="43.80013" lon="3.59755">
        <ele>449.55</ele>
        <time>2019-01-15T15:06:28Z</time>
      </trkpt>
      <trkpt lat="43.80012" lon="3.59762">
        <ele>448.59</ele>
        <time>2019-01-15T15:06:35Z</time>
      </trkpt>
      <trkpt lat="43.80013" lon="3.59773">
        <ele>450.52</ele>
        <time>2019-01-15T15:06:47Z</time>
      </trkpt>
      <trkpt lat="43.80029" lon="3.5977">
        <ele>447.63</ele>
        <time>2019-01-15T15:07:03Z</time>
      </trkpt>
      <trkpt lat="43.80035" lon="3.59772">
        <ele>447.63</ele>
        <time>2019-01-15T15:07:10Z</time>
      </trkpt>
      <trkpt lat="43.80038" lon="3.59774">
        <ele>448.59</ele>
        <time>2019-01-15T15:07:13Z</time>
      </trkpt>
      <trkpt lat="43.8005" lon="3.59778">
        <ele>446.67</ele>
        <time>2019-01-15T15:07:25Z</time>
      </trkpt>
      <trkpt lat="43.80066" lon="3.59775">
        <ele>444.75</ele>
        <time>2019-01-15T15:07:37Z</time>
      </trkpt>
      <trkpt lat="43.80076" lon="3.59767">
        <ele>444.27</ele>
        <time>2019-01-15T15:07:49Z</time>
      </trkpt>
      <trkpt lat="43.80081" lon="3.59759">
        <ele>440.42</ele>
        <time>2019-01-15T15:07:58Z</time>
      </trkpt>
      <trkpt lat="43.80086" lon="3.59759">
        <ele>440.42</ele>
        <time>2019-01-15T15:08:03Z</time>
      </trkpt>
      <trkpt lat="43.80094" lon="3.59756">
        <ele>439.94</ele>
        <time>2019-01-15T15:08:15Z</time>
      </trkpt>
      <trkpt lat="43.80104" lon="3.59752">
        <ele>438.98</ele>
        <time>2019-01-15T15:08:29Z</time>
      </trkpt>
      <trkpt lat="43.80111" lon="3.59753">
        <ele>437.54</ele>
        <time>2019-01-15T15:08:41Z</time>
      </trkpt>
      <trkpt lat="43.8012" lon="3.59754">
        <ele>438.02</ele>
        <time>2019-01-15T15:08:54Z</time>
      </trkpt>
      <trkpt lat="43.80136" lon="3.59747">
        <ele>436.58</ele>
        <time>2019-01-15T15:09:08Z</time>
      </trkpt>
      <trkpt lat="43.80138" lon="3.59749">
        <ele>436.1</ele>
        <time>2019-01-15T15:09:10Z</time>
      </trkpt>
      <trkpt lat="43.80141" lon="3.5975">
        <ele>436.1</ele>
        <time>2019-01-15T15:09:13Z</time>
      </trkpt>
      <trkpt lat="43.80143" lon="3.59747">
        <ele>436.1</ele>
        <time>2019-01-15T15:09:16Z</time>
      </trkpt>
      <trkpt lat="43.80151" lon="3.59741">
        <ele>435.13</ele>
        <time>2019-01-15T15:09:26Z</time>
      </trkpt>
      <trkpt lat="43.8016" lon="3.5973">
        <ele>431.77</ele>
        <time>2019-01-15T15:09:38Z</time>
      </trkpt>
      <trkpt lat="43.80163" lon="3.59725">
        <ele>432.25</ele>
        <time>2019-01-15T15:09:43Z</time>
      </trkpt>
      <trkpt lat="43.8017" lon="3.59719">
        <ele>433.69</ele>
        <time>2019-01-15T15:09:53Z</time>
      </trkpt>
      <trkpt lat="43.80178" lon="3.59725">
        <ele>434.17</ele>
        <time>2019-01-15T15:10:03Z</time>
      </trkpt>
      <trkpt lat="43.80184" lon="3.59718">
        <ele>432.73</ele>
        <time>2019-01-15T15:10:17Z</time>
      </trkpt>
      <trkpt lat="43.80186" lon="3.59713">
        <ele>433.21</ele>
        <time>2019-01-15T15:10:33Z</time>
      </trkpt>
      <trkpt lat="43.80187" lon="3.59719">
        <ele>432.73</ele>
        <time>2019-01-15T15:10:44Z</time>
      </trkpt>
      <trkpt lat="43.8019" lon="3.59726">
        <ele>433.69</ele>
        <time>2019-01-15T15:10:58Z</time>
      </trkpt>
      <trkpt lat="43.8019" lon="3.59735">
        <ele>430.81</ele>
        <time>2019-01-15T15:11:09Z</time>
      </trkpt>
      <trkpt lat="43.80192" lon="3.59747">
        <ele>428.89</ele>
        <time>2019-01-15T15:11:21Z</time>
      </trkpt>
      <trkpt lat="43.80192" lon="3.59759">
        <ele>427.44</ele>
        <time>2019-01-15T15:11:31Z</time>
      </trkpt>
      <trkpt lat="43.80192" lon="3.59766">
        <ele>427.44</ele>
        <time>2019-01-15T15:11:36Z</time>
      </trkpt>
      <trkpt lat="43.80192" lon="3.59771">
        <ele>427.44</ele>
        <time>2019-01-15T15:11:39Z</time>
      </trkpt>
      <trkpt lat="43.80198" lon="3.59783">
        <ele>426.96</ele>
        <time>2019-01-15T15:11:51Z</time>
      </trkpt>
      <trkpt lat="43.80201" lon="3.59795">
        <ele>426</ele>
        <time>2019-01-15T15:12:03Z</time>
      </trkpt>
      <trkpt lat="43.80202" lon="3.59798">
        <ele>425.52</ele>
        <time>2019-01-15T15:12:06Z</time>
      </trkpt>
      <trkpt lat="43.80203" lon="3.59802">
        <ele>425.04</ele>
        <time>2019-01-15T15:12:09Z</time>
      </trkpt>
      <trkpt lat="43.80211" lon="3.59807">
        <ele>421.68</ele>
        <time>2019-01-15T15:12:23Z</time>
      </trkpt>
      <trkpt lat="43.80214" lon="3.59821">
        <ele>421.68</ele>
        <time>2019-01-15T15:12:38Z</time>
      </trkpt>
      <trkpt lat="43.80212" lon="3.59825">
        <ele>420.71</ele>
        <time>2019-01-15T15:12:43Z</time>
      </trkpt>
      <trkpt lat="43.80208" lon="3.59835">
        <ele>421.19</ele>
        <time>2019-01-15T15:12:52Z</time>
      </trkpt>
      <trkpt lat="43.80208" lon="3.59843">
        <ele>422.16</ele>
        <time>2019-01-15T15:12:59Z</time>
      </trkpt>
      <trkpt lat="43.80203" lon="3.5985">
        <ele>422.16</ele>
        <time>2019-01-15T15:13:05Z</time>
      </trkpt>
      <trkpt lat="43.80208" lon="3.59869">
        <ele>425.04</ele>
        <time>2019-01-15T15:13:21Z</time>
      </trkpt>
      <trkpt lat="43.80216" lon="3.59875">
        <ele>425.52</ele>
        <time>2019-01-15T15:13:35Z</time>
      </trkpt>
      <trkpt lat="43.80219" lon="3.59872">
        <ele>426</ele>
        <time>2019-01-15T15:13:51Z</time>
      </trkpt>
      <trkpt lat="43.80219" lon="3.59873">
        <ele>429.37</ele>
        <time>2019-01-15T15:14:13Z</time>
      </trkpt>
      <trkpt lat="43.80221" lon="3.59875">
        <ele>431.29</ele>
        <time>2019-01-15T15:14:37Z</time>
      </trkpt>
      <trkpt lat="43.8022" lon="3.59874">
        <ele>429.85</ele>
        <time>2019-01-15T15:14:57Z</time>
      </trkpt>
      <trkpt lat="43.80218" lon="3.59876">
        <ele>429.37</ele>
        <time>2019-01-15T15:15:09Z</time>
      </trkpt>
      <trkpt lat="43.80217" lon="3.59887">
        <ele>430.81</ele>
        <time>2019-01-15T15:15:25Z</time>
      </trkpt>
      <trkpt lat="43.80218" lon="3.59891">
        <ele>431.29</ele>
        <time>2019-01-15T15:15:28Z</time>
      </trkpt>
      <trkpt lat="43.80227" lon="3.59896">
        <ele>431.77</ele>
        <time>2019-01-15T15:15:43Z</time>
      </trkpt>
      <trkpt lat="43.80228" lon="3.59896">
        <ele>430.81</ele>
        <time>2019-01-15T15:16:07Z</time>
      </trkpt>
      <trkpt lat="43.80227" lon="3.59895">
        <ele>430.81</ele>
        <time>2019-01-15T15:16:25Z</time>
      </trkpt>
      <trkpt lat="43.80228" lon="3.59896">
        <ele>429.37</ele>
        <time>2019-01-15T15:16:55Z</time>
      </trkpt>
      <trkpt lat="43.80225" lon="3.59902">
        <ele>428.4</ele>
        <time>2019-01-15T15:17:09Z</time>
      </trkpt>
      <trkpt lat="43.80225" lon="3.5991">
        <ele>428.4</ele>
        <time>2019-01-15T15:17:17Z</time>
      </trkpt>
      <trkpt lat="43.80225" lon="3.59915">
        <ele>428.89</ele>
        <time>2019-01-15T15:17:21Z</time>
      </trkpt>
      <trkpt lat="43.80222" lon="3.5993">
        <ele>427.92</ele>
        <time>2019-01-15T15:17:31Z</time>
      </trkpt>
      <trkpt lat="43.80228" lon="3.59939">
        <ele>428.4</ele>
        <time>2019-01-15T15:17:40Z</time>
      </trkpt>
      <trkpt lat="43.80237" lon="3.59945">
        <ele>428.4</ele>
        <time>2019-01-15T15:17:53Z</time>
      </trkpt>
      <trkpt lat="43.80239" lon="3.59949">
        <ele>425.52</ele>
        <time>2019-01-15T15:18:05Z</time>
      </trkpt>
      <trkpt lat="43.80234" lon="3.59955">
        <ele>424.56</ele>
        <time>2019-01-15T15:18:19Z</time>
      </trkpt>
      <trkpt lat="43.80237" lon="3.59954">
        <ele>425.52</ele>
        <time>2019-01-15T15:18:32Z</time>
      </trkpt>
      <trkpt lat="43.80238" lon="3.59961">
        <ele>424.56</ele>
        <time>2019-01-15T15:18:44Z</time>
      </trkpt>
      <trkpt lat="43.80239" lon="3.59962">
        <ele>424.56</ele>
        <time>2019-01-15T15:18:45Z</time>
      </trkpt>
      <trkpt lat="43.80237" lon="3.59969">
        <ele>422.16</ele>
        <time>2019-01-15T15:18:56Z</time>
      </trkpt>
      <trkpt lat="43.8024" lon="3.5998">
        <ele>417.83</ele>
        <time>2019-01-15T15:19:12Z</time>
      </trkpt>
      <trkpt lat="43.80247" lon="3.59987">
        <ele>417.83</ele>
        <time>2019-01-15T15:19:26Z</time>
      </trkpt>
      <trkpt lat="43.80249" lon="3.59998">
        <ele>413.98</ele>
        <time>2019-01-15T15:19:41Z</time>
      </trkpt>
      <trkpt lat="43.80249" lon="3.60012">
        <ele>412.54</ele>
        <time>2019-01-15T15:19:53Z</time>
      </trkpt>
      <trkpt lat="43.80253" lon="3.60024">
        <ele>413.98</ele>
        <time>2019-01-15T15:20:05Z</time>
      </trkpt>
      <trkpt lat="43.80252" lon="3.60028">
        <ele>413.5</ele>
        <time>2019-01-15T15:20:24Z</time>
      </trkpt>
      <trkpt lat="43.80249" lon="3.6004">
        <ele>412.06</ele>
        <time>2019-01-15T15:20:37Z</time>
      </trkpt>
      <trkpt lat="43.80248" lon="3.60045">
        <ele>412.06</ele>
        <time>2019-01-15T15:20:41Z</time>
      </trkpt>
      <trkpt lat="43.80254" lon="3.60056">
        <ele>411.58</ele>
        <time>2019-01-15T15:20:50Z</time>
      </trkpt>
      <trkpt lat="43.80253" lon="3.6007">
        <ele>411.1</ele>
        <time>2019-01-15T15:21:00Z</time>
      </trkpt>
      <trkpt lat="43.80251" lon="3.60073">
        <ele>410.62</ele>
        <time>2019-01-15T15:21:03Z</time>
      </trkpt>
      <trkpt lat="43.80247" lon="3.60085">
        <ele>411.1</ele>
        <time>2019-01-15T15:21:12Z</time>
      </trkpt>
      <trkpt lat="43.80241" lon="3.60102">
        <ele>409.18</ele>
        <time>2019-01-15T15:21:26Z</time>
      </trkpt>
      <trkpt lat="43.80236" lon="3.60113">
        <ele>407.26</ele>
        <time>2019-01-15T15:21:39Z</time>
      </trkpt>
      <trkpt lat="43.80234" lon="3.60122">
        <ele>409.66</ele>
        <time>2019-01-15T15:21:51Z</time>
      </trkpt>
      <trkpt lat="43.80235" lon="3.60125">
        <ele>413.98</ele>
        <time>2019-01-15T15:22:17Z</time>
      </trkpt>
      <trkpt lat="43.80231" lon="3.60127">
        <ele>412.06</ele>
        <time>2019-01-15T15:22:31Z</time>
      </trkpt>
      <trkpt lat="43.80229" lon="3.60129">
        <ele>411.1</ele>
        <time>2019-01-15T15:22:36Z</time>
      </trkpt>
      <trkpt lat="43.80231" lon="3.60136">
        <ele>410.62</ele>
        <time>2019-01-15T15:22:44Z</time>
      </trkpt>
      <trkpt lat="43.80231" lon="3.60144">
        <ele>407.26</ele>
        <time>2019-01-15T15:22:57Z</time>
      </trkpt>
      <trkpt lat="43.80233" lon="3.60146">
        <ele>406.77</ele>
        <time>2019-01-15T15:23:04Z</time>
      </trkpt>
      <trkpt lat="43.8024" lon="3.60152">
        <ele>404.85</ele>
        <time>2019-01-15T15:23:18Z</time>
      </trkpt>
      <trkpt lat="43.80242" lon="3.60154">
        <ele>404.85</ele>
        <time>2019-01-15T15:23:48Z</time>
      </trkpt>
      <trkpt lat="43.80241" lon="3.60153">
        <ele>405.33</ele>
        <time>2019-01-15T15:24:18Z</time>
      </trkpt>
      <trkpt lat="43.8024" lon="3.60152">
        <ele>406.29</ele>
        <time>2019-01-15T15:24:39Z</time>
      </trkpt>
      <trkpt lat="43.8024" lon="3.60152">
        <ele>406.77</ele>
        <time>2019-01-15T15:25:10Z</time>
      </trkpt>
      <trkpt lat="43.80241" lon="3.60153">
        <ele>406.29</ele>
        <time>2019-01-15T15:25:27Z</time>
      </trkpt>
      <trkpt lat="43.8025" lon="3.60161">
        <ele>404.37</ele>
        <time>2019-01-15T15:25:42Z</time>
      </trkpt>
      <trkpt lat="43.80261" lon="3.60169">
        <ele>401.49</ele>
        <time>2019-01-15T15:25:56Z</time>
      </trkpt>
      <trkpt lat="43.80261" lon="3.60168">
        <ele>401.01</ele>
        <time>2019-01-15T15:25:57Z</time>
      </trkpt>
      <trkpt lat="43.80261" lon="3.60163">
        <ele>400.05</ele>
        <time>2019-01-15T15:26:01Z</time>
      </trkpt>
      <trkpt lat="43.80267" lon="3.60158">
        <ele>397.64</ele>
        <time>2019-01-15T15:26:07Z</time>
      </trkpt>
      <trkpt lat="43.80271" lon="3.60147">
        <ele>392.36</ele>
        <time>2019-01-15T15:26:21Z</time>
      </trkpt>
      <trkpt lat="43.80273" lon="3.60147">
        <ele>391.87</ele>
        <time>2019-01-15T15:26:23Z</time>
      </trkpt>
      <trkpt lat="43.80276" lon="3.60146">
        <ele>390.91</ele>
        <time>2019-01-15T15:26:26Z</time>
      </trkpt>
      <trkpt lat="43.80283" lon="3.60142">
        <ele>388.03</ele>
        <time>2019-01-15T15:26:33Z</time>
      </trkpt>
      <trkpt lat="43.80292" lon="3.60122">
        <ele>387.07</ele>
        <time>2019-01-15T15:26:48Z</time>
      </trkpt>
      <trkpt lat="43.80291" lon="3.60119">
        <ele>386.59</ele>
        <time>2019-01-15T15:26:51Z</time>
      </trkpt>
      <trkpt lat="43.80291" lon="3.60109">
        <ele>385.63</ele>
        <time>2019-01-15T15:26:57Z</time>
      </trkpt>
      <trkpt lat="43.80299" lon="3.60082">
        <ele>383.7</ele>
        <time>2019-01-15T15:27:13Z</time>
      </trkpt>
      <trkpt lat="43.803" lon="3.60078">
        <ele>382.74</ele>
        <time>2019-01-15T15:27:16Z</time>
      </trkpt>
      <trkpt lat="43.80304" lon="3.60064">
        <ele>379.38</ele>
        <time>2019-01-15T15:27:25Z</time>
      </trkpt>
      <trkpt lat="43.80304" lon="3.60061">
        <ele>378.9</ele>
        <time>2019-01-15T15:27:27Z</time>
      </trkpt>
      <trkpt lat="43.80306" lon="3.60056">
        <ele>376.97</ele>
        <time>2019-01-15T15:27:33Z</time>
      </trkpt>
      <trkpt lat="43.80309" lon="3.60066">
        <ele>376.97</ele>
        <time>2019-01-15T15:27:40Z</time>
      </trkpt>
      <trkpt lat="43.80313" lon="3.60066">
        <ele>377.45</ele>
        <time>2019-01-15T15:27:48Z</time>
      </trkpt>
      <trkpt lat="43.80321" lon="3.60069">
        <ele>374.09</ele>
        <time>2019-01-15T15:28:03Z</time>
      </trkpt>
      <trkpt lat="43.80323" lon="3.60075">
        <ele>373.61</ele>
        <time>2019-01-15T15:28:08Z</time>
      </trkpt>
      <trkpt lat="43.80328" lon="3.60084">
        <ele>373.13</ele>
        <time>2019-01-15T15:28:16Z</time>
      </trkpt>
      <trkpt lat="43.80337" lon="3.60093">
        <ele>369.76</ele>
        <time>2019-01-15T15:28:29Z</time>
      </trkpt>
      <trkpt lat="43.80342" lon="3.60096">
        <ele>367.84</ele>
        <time>2019-01-15T15:28:34Z</time>
      </trkpt>
      <trkpt lat="43.80351" lon="3.60093">
        <ele>360.15</ele>
        <time>2019-01-15T15:28:47Z</time>
      </trkpt>
      <trkpt lat="43.80353" lon="3.60092">
        <ele>358.23</ele>
        <time>2019-01-15T15:28:50Z</time>
      </trkpt>
      <trkpt lat="43.80358" lon="3.60089">
        <ele>355.83</ele>
        <time>2019-01-15T15:28:54Z</time>
      </trkpt>
      <trkpt lat="43.80363" lon="3.60088">
        <ele>354.38</ele>
        <time>2019-01-15T15:28:58Z</time>
      </trkpt>
      <trkpt lat="43.80374" lon="3.60091">
        <ele>352.94</ele>
        <time>2019-01-15T15:29:06Z</time>
      </trkpt>
      <trkpt lat="43.80382" lon="3.60092">
        <ele>351.98</ele>
        <time>2019-01-15T15:29:12Z</time>
      </trkpt>
      <trkpt lat="43.80386" lon="3.60094">
        <ele>351.5</ele>
        <time>2019-01-15T15:29:18Z</time>
      </trkpt>
      <trkpt lat="43.80385" lon="3.60096">
        <ele>351.5</ele>
        <time>2019-01-15T15:29:20Z</time>
      </trkpt>
      <trkpt lat="43.80377" lon="3.60108">
        <ele>350.54</ele>
        <time>2019-01-15T15:29:35Z</time>
      </trkpt>
      <trkpt lat="43.80379" lon="3.60112">
        <ele>349.1</ele>
        <time>2019-01-15T15:29:40Z</time>
      </trkpt>
      <trkpt lat="43.80395" lon="3.60113">
        <ele>342.85</ele>
        <time>2019-01-15T15:29:55Z</time>
      </trkpt>
      <trkpt lat="43.80405" lon="3.60114">
        <ele>340.44</ele>
        <time>2019-01-15T15:30:04Z</time>
      </trkpt>
      <trkpt lat="43.8042" lon="3.60109">
        <ele>336.6</ele>
        <time>2019-01-15T15:30:19Z</time>
      </trkpt>
      <trkpt lat="43.80425" lon="3.60111">
        <ele>336.12</ele>
        <time>2019-01-15T15:30:23Z</time>
      </trkpt>
      <trkpt lat="43.80438" lon="3.60112">
        <ele>335.64</ele>
        <time>2019-01-15T15:30:34Z</time>
      </trkpt>
      <trkpt lat="43.80448" lon="3.6011">
        <ele>334.2</ele>
        <time>2019-01-15T15:30:43Z</time>
      </trkpt>
      <trkpt lat="43.80452" lon="3.60108">
        <ele>334.2</ele>
        <time>2019-01-15T15:30:46Z</time>
      </trkpt>
      <trkpt lat="43.80458" lon="3.60104">
        <ele>333.23</ele>
        <time>2019-01-15T15:30:52Z</time>
      </trkpt>
      <trkpt lat="43.8046" lon="3.60099">
        <ele>332.75</ele>
        <time>2019-01-15T15:30:56Z</time>
      </trkpt>
      <trkpt lat="43.80456" lon="3.60081">
        <ele>330.83</ele>
        <time>2019-01-15T15:31:07Z</time>
      </trkpt>
      <trkpt lat="43.80449" lon="3.60058">
        <ele>328.91</ele>
        <time>2019-01-15T15:31:22Z</time>
      </trkpt>
      <trkpt lat="43.80448" lon="3.60055">
        <ele>328.43</ele>
        <time>2019-01-15T15:31:24Z</time>
      </trkpt>
      <trkpt lat="43.80446" lon="3.60052">
        <ele>327.47</ele>
        <time>2019-01-15T15:31:27Z</time>
      </trkpt>
      <trkpt lat="43.80443" lon="3.60039">
        <ele>326.02</ele>
        <time>2019-01-15T15:31:35Z</time>
      </trkpt>
      <trkpt lat="43.80443" lon="3.60036">
        <ele>326.02</ele>
        <time>2019-01-15T15:31:37Z</time>
      </trkpt>
      <trkpt lat="43.8044" lon="3.60019">
        <ele>324.58</ele>
        <time>2019-01-15T15:31:47Z</time>
      </trkpt>
      <trkpt lat="43.80438" lon="3.60014">
        <ele>323.14</ele>
        <time>2019-01-15T15:31:50Z</time>
      </trkpt>
      <trkpt lat="43.80437" lon="3.60007">
        <ele>322.18</ele>
        <time>2019-01-15T15:31:54Z</time>
      </trkpt>
      <trkpt lat="43.80435" lon="3.59998">
        <ele>321.22</ele>
        <time>2019-01-15T15:31:59Z</time>
      </trkpt>
      <trkpt lat="43.8043" lon="3.59981">
        <ele>318.81</ele>
        <time>2019-01-15T15:32:10Z</time>
      </trkpt>
      <trkpt lat="43.80429" lon="3.59972">
        <ele>318.33</ele>
        <time>2019-01-15T15:32:16Z</time>
      </trkpt>
      <trkpt lat="43.8043" lon="3.59969">
        <ele>318.33</ele>
        <time>2019-01-15T15:32:18Z</time>
      </trkpt>
      <trkpt lat="43.80435" lon="3.59972">
        <ele>317.85</ele>
        <time>2019-01-15T15:32:24Z</time>
      </trkpt>
      <trkpt lat="43.80442" lon="3.5998">
        <ele>316.41</ele>
        <time>2019-01-15T15:32:33Z</time>
      </trkpt>
      <trkpt lat="43.80448" lon="3.59987">
        <ele>315.45</ele>
        <time>2019-01-15T15:32:40Z</time>
      </trkpt>
      <trkpt lat="43.80457" lon="3.60002">
        <ele>314.01</ele>
        <time>2019-01-15T15:32:52Z</time>
      </trkpt>
      <trkpt lat="43.80457" lon="3.5999">
        <ele>312.09</ele>
        <time>2019-01-15T15:33:02Z</time>
      </trkpt>
      <trkpt lat="43.80452" lon="3.59975">
        <ele>310.16</ele>
        <time>2019-01-15T15:33:12Z</time>
      </trkpt>
      <trkpt lat="43.80445" lon="3.59949">
        <ele>306.8</ele>
        <time>2019-01-15T15:33:28Z</time>
      </trkpt>
      <trkpt lat="43.80444" lon="3.59947">
        <ele>306.32</ele>
        <time>2019-01-15T15:33:29Z</time>
      </trkpt>
      <trkpt lat="43.80445" lon="3.59931">
        <ele>302.95</ele>
        <time>2019-01-15T15:33:40Z</time>
      </trkpt>
      <trkpt lat="43.80446" lon="3.59925">
        <ele>301.99</ele>
        <time>2019-01-15T15:33:44Z</time>
      </trkpt>
      <trkpt lat="43.80449" lon="3.59914">
        <ele>300.55</ele>
        <time>2019-01-15T15:33:52Z</time>
      </trkpt>
      <trkpt lat="43.80457" lon="3.59928">
        <ele>300.55</ele>
        <time>2019-01-15T15:34:06Z</time>
      </trkpt>
      <trkpt lat="43.80459" lon="3.59927">
        <ele>300.55</ele>
        <time>2019-01-15T15:34:09Z</time>
      </trkpt>
      <trkpt lat="43.80458" lon="3.59917">
        <ele>299.59</ele>
        <time>2019-01-15T15:34:16Z</time>
      </trkpt>
      <trkpt lat="43.80456" lon="3.59894">
        <ele>297.67</ele>
        <time>2019-01-15T15:34:31Z</time>
      </trkpt>
      <trkpt lat="43.80456" lon="3.59882">
        <ele>295.74</ele>
        <time>2019-01-15T15:34:38Z</time>
      </trkpt>
      <trkpt lat="43.80457" lon="3.59879">
        <ele>295.26</ele>
        <time>2019-01-15T15:34:40Z</time>
      </trkpt>
      <trkpt lat="43.80456" lon="3.59874">
        <ele>293.34</ele>
        <time>2019-01-15T15:34:44Z</time>
      </trkpt>
      <trkpt lat="43.80458" lon="3.59858">
        <ele>289.49</ele>
        <time>2019-01-15T15:34:54Z</time>
      </trkpt>
      <trkpt lat="43.80464" lon="3.59836">
        <ele>284.69</ele>
        <time>2019-01-15T15:35:07Z</time>
      </trkpt>
      <trkpt lat="43.80466" lon="3.59811">
        <ele>284.69</ele>
        <time>2019-01-15T15:35:21Z</time>
      </trkpt>
      <trkpt lat="43.80469" lon="3.59801">
        <ele>284.21</ele>
        <time>2019-01-15T15:35:28Z</time>
      </trkpt>
      <trkpt lat="43.8048" lon="3.59784">
        <ele>283.73</ele>
        <time>2019-01-15T15:35:44Z</time>
      </trkpt>
      <trkpt lat="43.80484" lon="3.59784">
        <ele>282.77</ele>
        <time>2019-01-15T15:35:47Z</time>
      </trkpt>
      <trkpt lat="43.80491" lon="3.59783">
        <ele>280.84</ele>
        <time>2019-01-15T15:35:53Z</time>
      </trkpt>
      <trkpt lat="43.80498" lon="3.59785">
        <ele>277.96</ele>
        <time>2019-01-15T15:36:01Z</time>
      </trkpt>
      <trkpt lat="43.80521" lon="3.59793">
        <ele>275.07</ele>
        <time>2019-01-15T15:36:17Z</time>
      </trkpt>
      <trkpt lat="43.80537" lon="3.59801">
        <ele>273.63</ele>
        <time>2019-01-15T15:36:30Z</time>
      </trkpt>
      <trkpt lat="43.80557" lon="3.5981">
        <ele>274.59</ele>
        <time>2019-01-15T15:36:44Z</time>
      </trkpt>
      <trkpt lat="43.80575" lon="3.59805">
        <ele>277.48</ele>
        <time>2019-01-15T15:36:58Z</time>
      </trkpt>
      <trkpt lat="43.80598" lon="3.59793">
        <ele>273.15</ele>
        <time>2019-01-15T15:37:14Z</time>
      </trkpt>
      <trkpt lat="43.80603" lon="3.59789">
        <ele>275.56</ele>
        <time>2019-01-15T15:37:31Z</time>
      </trkpt>
      <trkpt lat="43.80602" lon="3.59789">
        <ele>276.04</ele>
        <time>2019-01-15T15:37:53Z</time>
      </trkpt>
      <trkpt lat="43.80601" lon="3.59788">
        <ele>278.92</ele>
        <time>2019-01-15T15:38:24Z</time>
      </trkpt>
      <trkpt lat="43.80601" lon="3.59787">
        <ele>278.92</ele>
        <time>2019-01-15T15:38:53Z</time>
      </trkpt>
      <trkpt lat="43.80605" lon="3.5979">
        <ele>279.88</ele>
        <time>2019-01-15T15:39:10Z</time>
      </trkpt>
      <trkpt lat="43.80605" lon="3.59791">
        <ele>280.84</ele>
        <time>2019-01-15T15:39:49Z</time>
      </trkpt>
      <trkpt lat="43.80605" lon="3.59791">
        <ele>279.88</ele>
        <time>2019-01-15T15:40:20Z</time>
      </trkpt>
      <trkpt lat="43.80605" lon="3.59791">
        <ele>279.4</ele>
        <time>2019-01-15T15:40:36Z</time>
      </trkpt>
      <trkpt lat="43.80604" lon="3.59791">
        <ele>278.92</ele>
        <time>2019-01-15T15:40:54Z</time>
      </trkpt>
      <trkpt lat="43.80615" lon="3.59789">
        <ele>278.92</ele>
        <time>2019-01-15T15:41:09Z</time>
      </trkpt>
      <trkpt lat="43.80618" lon="3.59785">
        <ele>278.44</ele>
        <time>2019-01-15T15:41:13Z</time>
      </trkpt>
      <trkpt lat="43.80632" lon="3.59775">
        <ele>276.52</ele>
        <time>2019-01-15T15:41:27Z</time>
      </trkpt>
      <trkpt lat="43.80643" lon="3.59772">
        <ele>276.52</ele>
        <time>2019-01-15T15:41:36Z</time>
      </trkpt>
      <trkpt lat="43.80656" lon="3.59762">
        <ele>274.59</ele>
        <time>2019-01-15T15:41:50Z</time>
      </trkpt>
      <trkpt lat="43.8066" lon="3.59759">
        <ele>274.11</ele>
        <time>2019-01-15T15:41:54Z</time>
      </trkpt>
      <trkpt lat="43.80672" lon="3.5976">
        <ele>273.63</ele>
        <time>2019-01-15T15:42:05Z</time>
      </trkpt>
      <trkpt lat="43.80676" lon="3.5976">
        <ele>271.71</ele>
        <time>2019-01-15T15:42:10Z</time>
      </trkpt>
      <trkpt lat="43.80675" lon="3.59763">
        <ele>270.75</ele>
        <time>2019-01-15T15:42:13Z</time>
      </trkpt>
      <trkpt lat="43.80674" lon="3.59775">
        <ele>268.35</ele>
        <time>2019-01-15T15:42:25Z</time>
      </trkpt>
      <trkpt lat="43.80684" lon="3.59772">
        <ele>266.9</ele>
        <time>2019-01-15T15:42:36Z</time>
      </trkpt>
      <trkpt lat="43.80689" lon="3.59772">
        <ele>265.46</ele>
        <time>2019-01-15T15:42:40Z</time>
      </trkpt>
      <trkpt lat="43.80704" lon="3.59758">
        <ele>262.58</ele>
        <time>2019-01-15T15:42:55Z</time>
      </trkpt>
      <trkpt lat="43.80714" lon="3.5974">
        <ele>259.69</ele>
        <time>2019-01-15T15:43:10Z</time>
      </trkpt>
      <trkpt lat="43.80716" lon="3.59736">
        <ele>260.17</ele>
        <time>2019-01-15T15:43:13Z</time>
      </trkpt>
      <trkpt lat="43.80719" lon="3.59712">
        <ele>256.81</ele>
        <time>2019-01-15T15:43:29Z</time>
      </trkpt>
      <trkpt lat="43.8072" lon="3.5969">
        <ele>254.89</ele>
        <time>2019-01-15T15:43:44Z</time>
      </trkpt>
      <trkpt lat="43.80717" lon="3.59663">
        <ele>252</ele>
        <time>2019-01-15T15:44:01Z</time>
      </trkpt>
      <trkpt lat="43.80717" lon="3.59661">
        <ele>252</ele>
        <time>2019-01-15T15:44:02Z</time>
      </trkpt>
      <trkpt lat="43.80718" lon="3.59649">
        <ele>251.04</ele>
        <time>2019-01-15T15:44:09Z</time>
      </trkpt>
      <trkpt lat="43.80723" lon="3.59627">
        <ele>248.64</ele>
        <time>2019-01-15T15:44:24Z</time>
      </trkpt>
      <trkpt lat="43.80736" lon="3.59608">
        <ele>246.23</ele>
        <time>2019-01-15T15:44:41Z</time>
      </trkpt>
      <trkpt lat="43.80753" lon="3.596">
        <ele>245.27</ele>
        <time>2019-01-15T15:44:56Z</time>
      </trkpt>
      <trkpt lat="43.80757" lon="3.59597">
        <ele>245.27</ele>
        <time>2019-01-15T15:45:00Z</time>
      </trkpt>
      <trkpt lat="43.80764" lon="3.59596">
        <ele>245.27</ele>
        <time>2019-01-15T15:45:05Z</time>
      </trkpt>
      <trkpt lat="43.80769" lon="3.59596">
        <ele>245.75</ele>
        <time>2019-01-15T15:45:09Z</time>
      </trkpt>
      <trkpt lat="43.80782" lon="3.59597">
        <ele>242.39</ele>
        <time>2019-01-15T15:45:21Z</time>
      </trkpt>
      <trkpt lat="43.80789" lon="3.59598">
        <ele>241.43</ele>
        <time>2019-01-15T15:45:27Z</time>
      </trkpt>
      <trkpt lat="43.8081" lon="3.59602">
        <ele>240.47</ele>
        <time>2019-01-15T15:45:44Z</time>
      </trkpt>
      <trkpt lat="43.80811" lon="3.59603">
        <ele>239.99</ele>
        <time>2019-01-15T15:45:45Z</time>
      </trkpt>
      <trkpt lat="43.80814" lon="3.59599">
        <ele>238.54</ele>
        <time>2019-01-15T15:45:51Z</time>
      </trkpt>
      <trkpt lat="43.80825" lon="3.59591">
        <ele>234.7</ele>
        <time>2019-01-15T15:46:06Z</time>
      </trkpt>
      <trkpt lat="43.80825" lon="3.59591">
        <ele>234.22</ele>
        <time>2019-01-15T15:46:07Z</time>
      </trkpt>
      <trkpt lat="43.80831" lon="3.59596">
        <ele>233.74</ele>
        <time>2019-01-15T15:46:13Z</time>
      </trkpt>
      <trkpt lat="43.80838" lon="3.59607">
        <ele>232.3</ele>
        <time>2019-01-15T15:46:22Z</time>
      </trkpt>
      <trkpt lat="43.80842" lon="3.59605">
        <ele>231.33</ele>
        <time>2019-01-15T15:46:26Z</time>
      </trkpt>
      <trkpt lat="43.80842" lon="3.59579">
        <ele>228.45</ele>
        <time>2019-01-15T15:46:43Z</time>
      </trkpt>
      <trkpt lat="43.8084" lon="3.59571">
        <ele>227.97</ele>
        <time>2019-01-15T15:46:48Z</time>
      </trkpt>
      <trkpt lat="43.80835" lon="3.59553">
        <ele>224.12</ele>
        <time>2019-01-15T15:47:02Z</time>
      </trkpt>
      <trkpt lat="43.80848" lon="3.59558">
        <ele>221.72</ele>
        <time>2019-01-15T15:47:15Z</time>
      </trkpt>
      <trkpt lat="43.80851" lon="3.59558">
        <ele>221.24</ele>
        <time>2019-01-15T15:47:18Z</time>
      </trkpt>
      <trkpt lat="43.80859" lon="3.59563">
        <ele>220.76</ele>
        <time>2019-01-15T15:47:26Z</time>
      </trkpt>
      <trkpt lat="43.80867" lon="3.59573">
        <ele>220.28</ele>
        <time>2019-01-15T15:47:37Z</time>
      </trkpt>
      <trkpt lat="43.80871" lon="3.59578">
        <ele>217.88</ele>
        <time>2019-01-15T15:47:43Z</time>
      </trkpt>
      <trkpt lat="43.80873" lon="3.59556">
        <ele>213.55</ele>
        <time>2019-01-15T15:47:58Z</time>
      </trkpt>
      <trkpt lat="43.80872" lon="3.59541">
        <ele>209.7</ele>
        <time>2019-01-15T15:48:12Z</time>
      </trkpt>
      <trkpt lat="43.80873" lon="3.59542">
        <ele>209.7</ele>
        <time>2019-01-15T15:48:13Z</time>
      </trkpt>
      <trkpt lat="43.80877" lon="3.59545">
        <ele>208.74</ele>
        <time>2019-01-15T15:48:19Z</time>
      </trkpt>
      <trkpt lat="43.80882" lon="3.59548">
        <ele>207.78</ele>
        <time>2019-01-15T15:48:24Z</time>
      </trkpt>
      <trkpt lat="43.80887" lon="3.59555">
        <ele>205.86</ele>
        <time>2019-01-15T15:48:31Z</time>
      </trkpt>
      <trkpt lat="43.8089" lon="3.5955">
        <ele>204.9</ele>
        <time>2019-01-15T15:48:36Z</time>
      </trkpt>
      <trkpt lat="43.80887" lon="3.59545">
        <ele>203.46</ele>
        <time>2019-01-15T15:48:41Z</time>
      </trkpt>
      <trkpt lat="43.80883" lon="3.59537">
        <ele>201.05</ele>
        <time>2019-01-15T15:48:47Z</time>
      </trkpt>
      <trkpt lat="43.80885" lon="3.59521">
        <ele>197.69</ele>
        <time>2019-01-15T15:49:00Z</time>
      </trkpt>
      <trkpt lat="43.80889" lon="3.59519">
        <ele>196.73</ele>
        <time>2019-01-15T15:49:04Z</time>
      </trkpt>
      <trkpt lat="43.80895" lon="3.59512">
        <ele>198.17</ele>
        <time>2019-01-15T15:49:20Z</time>
      </trkpt>
      <trkpt lat="43.80895" lon="3.59505">
        <ele>202.49</ele>
        <time>2019-01-15T15:49:43Z</time>
      </trkpt>
      <trkpt lat="43.80898" lon="3.59499">
        <ele>202.98</ele>
        <time>2019-01-15T15:49:48Z</time>
      </trkpt>
      <trkpt lat="43.80902" lon="3.59494">
        <ele>202.49</ele>
        <time>2019-01-15T15:49:54Z</time>
      </trkpt>
      <trkpt lat="43.80903" lon="3.5949">
        <ele>200.57</ele>
        <time>2019-01-15T15:50:10Z</time>
      </trkpt>
      <trkpt lat="43.80902" lon="3.59487">
        <ele>201.53</ele>
        <time>2019-01-15T15:50:31Z</time>
      </trkpt>
      <trkpt lat="43.80892" lon="3.59488">
        <ele>199.61</ele>
        <time>2019-01-15T15:50:42Z</time>
      </trkpt>
      <trkpt lat="43.80886" lon="3.59483">
        <ele>198.17</ele>
        <time>2019-01-15T15:50:51Z</time>
      </trkpt>
      <trkpt lat="43.80882" lon="3.59481">
        <ele>195.77</ele>
        <time>2019-01-15T15:51:04Z</time>
      </trkpt>
      <trkpt lat="43.80881" lon="3.5948">
        <ele>195.77</ele>
        <time>2019-01-15T15:51:25Z</time>
      </trkpt>
      <trkpt lat="43.80881" lon="3.5948">
        <ele>195.77</ele>
        <time>2019-01-15T15:51:44Z</time>
      </trkpt>
      <trkpt lat="43.8088" lon="3.59481">
        <ele>196.73</ele>
        <time>2019-01-15T15:52:07Z</time>
      </trkpt>
      <trkpt lat="43.8088" lon="3.59479">
        <ele>197.21</ele>
        <time>2019-01-15T15:52:33Z</time>
      </trkpt>
      <trkpt lat="43.80881" lon="3.59476">
        <ele>197.21</ele>
        <time>2019-01-15T15:52:46Z</time>
      </trkpt>
      <trkpt lat="43.80877" lon="3.59469">
        <ele>195.28</ele>
        <time>2019-01-15T15:52:53Z</time>
      </trkpt>
      <trkpt lat="43.80871" lon="3.59465">
        <ele>194.8</ele>
        <time>2019-01-15T15:53:00Z</time>
      </trkpt>
      <trkpt lat="43.80866" lon="3.5945">
        <ele>193.36</ele>
        <time>2019-01-15T15:53:12Z</time>
      </trkpt>
      <trkpt lat="43.80866" lon="3.59438">
        <ele>191.44</ele>
        <time>2019-01-15T15:53:21Z</time>
      </trkpt>
      <trkpt lat="43.80865" lon="3.5942">
        <ele>191.92</ele>
        <time>2019-01-15T15:53:34Z</time>
      </trkpt>
      <trkpt lat="43.8086" lon="3.59409">
        <ele>189.52</ele>
        <time>2019-01-15T15:53:42Z</time>
      </trkpt>
      <trkpt lat="43.80856" lon="3.59374">
        <ele>185.19</ele>
        <time>2019-01-15T15:53:54Z</time>
      </trkpt>
      <trkpt lat="43.80857" lon="3.59375">
        <ele>184.23</ele>
        <time>2019-01-15T15:54:07Z</time>
      </trkpt>
      <trkpt lat="43.80858" lon="3.59375">
        <ele>185.19</ele>
        <time>2019-01-15T15:54:25Z</time>
      </trkpt>
      <trkpt lat="43.80855" lon="3.59373">
        <ele>186.63</ele>
        <time>2019-01-15T15:54:46Z</time>
      </trkpt>
      <trkpt lat="43.8085" lon="3.5937">
        <ele>185.67</ele>
        <time>2019-01-15T15:55:00Z</time>
      </trkpt>
      <trkpt lat="43.80844" lon="3.59366">
        <ele>182.31</ele>
        <time>2019-01-15T15:55:20Z</time>
      </trkpt>
      <trkpt lat="43.80846" lon="3.59366">
        <ele>182.31</ele>
        <time>2019-01-15T15:55:50Z</time>
      </trkpt>
      <trkpt lat="43.80845" lon="3.59364">
        <ele>184.23</ele>
        <time>2019-01-15T15:56:17Z</time>
      </trkpt>
      <trkpt lat="43.80849" lon="3.59369">
        <ele>184.23</ele>
        <time>2019-01-15T15:56:31Z</time>
      </trkpt>
      <trkpt lat="43.80863" lon="3.59384">
        <ele>186.15</ele>
        <time>2019-01-15T15:56:46Z</time>
      </trkpt>
      <trkpt lat="43.80876" lon="3.59402">
        <ele>187.11</ele>
        <time>2019-01-15T15:57:01Z</time>
      </trkpt>
      <trkpt lat="43.80887" lon="3.59401">
        <ele>187.59</ele>
        <time>2019-01-15T15:57:11Z</time>
      </trkpt>
      <trkpt lat="43.80889" lon="3.59406">
        <ele>187.59</ele>
        <time>2019-01-15T15:57:25Z</time>
      </trkpt>
      <trkpt lat="43.80889" lon="3.59404">
        <ele>188.08</ele>
        <time>2019-01-15T15:57:35Z</time>
      </trkpt>
      <trkpt lat="43.80888" lon="3.59402">
        <ele>187.59</ele>
        <time>2019-01-15T15:57:38Z</time>
      </trkpt>
      <trkpt lat="43.80889" lon="3.59399">
        <ele>187.59</ele>
        <time>2019-01-15T15:57:40Z</time>
      </trkpt>
      <trkpt lat="43.80905" lon="3.59387">
        <ele>189.04</ele>
        <time>2019-01-15T15:57:59Z</time>
      </trkpt>
      <trkpt lat="43.8092" lon="3.5938">
        <ele>189.52</ele>
        <time>2019-01-15T15:58:15Z</time>
      </trkpt>
      <trkpt lat="43.80937" lon="3.5937">
        <ele>187.11</ele>
        <time>2019-01-15T15:58:30Z</time>
      </trkpt>
      <trkpt lat="43.8094" lon="3.59367">
        <ele>186.63</ele>
        <time>2019-01-15T15:58:33Z</time>
      </trkpt>
      <trkpt lat="43.80946" lon="3.59363">
        <ele>185.67</ele>
        <time>2019-01-15T15:58:39Z</time>
      </trkpt>
      <trkpt lat="43.80964" lon="3.59354">
        <ele>184.23</ele>
        <time>2019-01-15T15:58:56Z</time>
      </trkpt>
      <trkpt lat="43.80973" lon="3.59334">
        <ele>184.23</ele>
        <time>2019-01-15T15:59:10Z</time>
      </trkpt>
      <trkpt lat="43.80985" lon="3.5932">
        <ele>184.71</ele>
        <time>2019-01-15T15:59:24Z</time>
      </trkpt>
      <trkpt lat="43.81002" lon="3.5931">
        <ele>185.19</ele>
        <time>2019-01-15T15:59:39Z</time>
      </trkpt>
      <trkpt lat="43.81007" lon="3.59309">
        <ele>184.71</ele>
        <time>2019-01-15T15:59:43Z</time>
      </trkpt>
      <trkpt lat="43.81012" lon="3.59311">
        <ele>184.23</ele>
        <time>2019-01-15T15:59:47Z</time>
      </trkpt>
      <trkpt lat="43.81017" lon="3.59313">
        <ele>183.75</ele>
        <time>2019-01-15T15:59:52Z</time>
      </trkpt>
      <trkpt lat="43.81035" lon="3.59321">
        <ele>182.31</ele>
        <time>2019-01-15T16:00:08Z</time>
      </trkpt>
      <trkpt lat="43.81053" lon="3.59317">
        <ele>179.42</ele>
        <time>2019-01-15T16:00:23Z</time>
      </trkpt>
      <trkpt lat="43.81054" lon="3.59315">
        <ele>182.31</ele>
        <time>2019-01-15T16:00:38Z</time>
      </trkpt>
      <trkpt lat="43.81054" lon="3.59312">
        <ele>183.75</ele>
        <time>2019-01-15T16:01:01Z</time>
      </trkpt>
      <trkpt lat="43.81046" lon="3.5931">
        <ele>182.79</ele>
        <time>2019-01-15T16:01:09Z</time>
      </trkpt>
      <trkpt lat="43.81031" lon="3.59305">
        <ele>180.87</ele>
        <time>2019-01-15T16:01:24Z</time>
      </trkpt>
      <trkpt lat="43.81033" lon="3.59294">
        <ele>180.38</ele>
        <time>2019-01-15T16:01:37Z</time>
      </trkpt>
      <trkpt lat="43.81039" lon="3.59292">
        <ele>179.9</ele>
        <time>2019-01-15T16:01:43Z</time>
      </trkpt>
      <trkpt lat="43.81051" lon="3.59276">
        <ele>177.5</ele>
        <time>2019-01-15T16:01:58Z</time>
      </trkpt>
      <trkpt lat="43.81054" lon="3.59272">
        <ele>177.02</ele>
        <time>2019-01-15T16:02:01Z</time>
      </trkpt>
      <trkpt lat="43.81057" lon="3.59258">
        <ele>176.54</ele>
        <time>2019-01-15T16:02:10Z</time>
      </trkpt>
      <trkpt lat="43.81053" lon="3.59249">
        <ele>174.62</ele>
        <time>2019-01-15T16:02:17Z</time>
      </trkpt>
      <trkpt lat="43.81051" lon="3.59239">
        <ele>172.69</ele>
        <time>2019-01-15T16:02:24Z</time>
      </trkpt>
      <trkpt lat="43.81052" lon="3.59228">
        <ele>170.77</ele>
        <time>2019-01-15T16:02:31Z</time>
      </trkpt>
      <trkpt lat="43.81053" lon="3.59216">
        <ele>169.81</ele>
        <time>2019-01-15T16:02:39Z</time>
      </trkpt>
      <trkpt lat="43.81073" lon="3.59207">
        <ele>169.33</ele>
        <time>2019-01-15T16:02:55Z</time>
      </trkpt>
      <trkpt lat="43.81094" lon="3.59204">
        <ele>167.89</ele>
        <time>2019-01-15T16:03:11Z</time>
      </trkpt>
      <trkpt lat="43.81112" lon="3.59201">
        <ele>168.85</ele>
        <time>2019-01-15T16:03:26Z</time>
      </trkpt>
      <trkpt lat="43.81117" lon="3.59176">
        <ele>168.37</ele>
        <time>2019-01-15T16:03:42Z</time>
      </trkpt>
      <trkpt lat="43.81135" lon="3.5917">
        <ele>166.93</ele>
        <time>2019-01-15T16:03:57Z</time>
      </trkpt>
      <trkpt lat="43.81155" lon="3.5916">
        <ele>163.56</ele>
        <time>2019-01-15T16:04:14Z</time>
      </trkpt>
      <trkpt lat="43.81175" lon="3.59151">
        <ele>162.6</ele>
        <time>2019-01-15T16:04:31Z</time>
      </trkpt>
      <trkpt lat="43.81195" lon="3.59142">
        <ele>162.12</ele>
        <time>2019-01-15T16:04:49Z</time>
      </trkpt>
      <trkpt lat="43.81216" lon="3.59131">
        <ele>163.56</ele>
        <time>2019-01-15T16:05:07Z</time>
      </trkpt>
      <trkpt lat="43.81239" lon="3.59121">
        <ele>163.56</ele>
        <time>2019-01-15T16:05:26Z</time>
      </trkpt>
      <trkpt lat="43.81259" lon="3.59105">
        <ele>165.48</ele>
        <time>2019-01-15T16:05:45Z</time>
      </trkpt>
      <trkpt lat="43.81262" lon="3.59097">
        <ele>168.37</ele>
        <time>2019-01-15T16:05:58Z</time>
      </trkpt>
      <trkpt lat="43.81266" lon="3.59099">
        <ele>172.21</ele>
        <time>2019-01-15T16:06:29Z</time>
      </trkpt>
      <trkpt lat="43.81266" lon="3.59093">
        <ele>173.66</ele>
        <time>2019-01-15T16:06:52Z</time>
      </trkpt>
      <trkpt lat="43.81267" lon="3.59095">
        <ele>174.62</ele>
        <time>2019-01-15T16:06:59Z</time>
      </trkpt>
      <trkpt lat="43.81282" lon="3.59101">
        <ele>170.77</ele>
        <time>2019-01-15T16:07:14Z</time>
      </trkpt>
      <trkpt lat="43.81286" lon="3.59099">
        <ele>174.62</ele>
        <time>2019-01-15T16:07:30Z</time>
      </trkpt>
      <trkpt lat="43.81285" lon="3.59098">
        <ele>175.58</ele>
        <time>2019-01-15T16:07:56Z</time>
      </trkpt>
      <trkpt lat="43.81283" lon="3.59098">
        <ele>173.66</ele>
        <time>2019-01-15T16:08:10Z</time>
      </trkpt>
    </trkseg>
  </trk>
</gpx>